[[{"header":{"parameterUnit":"m.s-1","parameterCategory":1,"la1":30.6,"la2":28.766,"lo1":-90.7593,"lo2":-88.6598,"dy":0.0162,"dx":0.0183,"nx":116,"ny":114,"refTime":"2024-05-31T18:00:00:Z","depth":0,"parameterNumber":2,"parameterNumberName":"U-component_of_WINDS"},"data":[0.0,0.0,0.0,0.0,0.0,0.0,0.0,0.0,0.0,0.0,0.0,0.0,0.0,0.0,0.0,0.0,0.0,0.0,0.0,0.0,0.0,0.0,0.0,0.0,0.0,0.0,0.0,0.0,0.0,0.0,0.0,0.0,0.0,0.0,0.0,0.0,0.0,0.0,0.0,0.0,0.0,0.0,0.0,0.0,0.0,0.0,0.0,0.0,0.0,0.0,0.0,0.0,0.0,0.0,0.0,0.0,0.0,0.0,0.0,0.0,0.0,0.0,0.0,0.0,0.0,0.0,0.0,0.0,0.0,0.0,0.0,0.0,0.0,0.0,0.0,0.0,0.0,0.0,0.0,0.0,0.0,0.0,0.0,0.0,0.0,0.0,0.0,0.0,0.0,0.0,0.0,0.0,0.0,0.0,0.0,0.0,0.0,0.0,0.0,0.0,0.0,0.0,0.0,0.0,0.0,0.0,0.0,0.0,0.0,0.0,0.0,0.0,0.0,0.0,0.0,0.0,0.0,0.0,0.0,0.0,0.0,0.0,0.0,0.0,0.0,0.0,0.0,0.0,0.0,0.0,0.0,0.0,0.0,0.0,0.0,0.0,0.0,0.0,0.0,0.0,0.0,0.0,0.0,0.0,0.0,0.0,0.0,0.0,0.0,0.0,0.0,0.0,0.0,0.0,0.0,0.0,0.0,0.0,0.0,0.0,0.0,0.0,0.0,0.0,0.0,0.0,0.0,0.0,0.0,0.0,0.0,0.0,0.0,0.0,0.0,0.0,0.0,0.0,0.0,0.0,0.0,0.0,0.0,0.0,0.0,0.0,0.0,0.0,0.0,0.0,0.0,0.0,0.0,0.0,0.0,0.0,0.0,0.0,0.0,0.0,0.0,0.0,0.0,0.0,0.0,0.0,0.0,0.0,0.0,0.0,0.0,0.0,0.0,0.0,0.0,0.0,0.0,0.0,0.0,0.0,0.0,0.0,0.0,0.0,0.0,0.0,0.0,0.0,0.0,0.0,0.0,0.0,0.0,0.0,0.0,0.0,0.0,0.0,0.0,0.0,0.0,0.0,0.0,0.0,0.0,0.0,0.0,0.0,0.0,0.0,0.0,0.0,0.0,0.0,0.0,0.0,0.0,0.0,0.0,0.0,0.0,0.0,0.0,0.0,0.0,0.0,0.0,0.0,0.0,0.0,0.0,0.0,0.0,0.0,0.0,0.0,0.0,0.0,0.0,0.0,0.0,0.0,0.0,0.0,0.0,0.0,0.0,0.0,0.0,0.0,0.0,0.0,0.0,0.0,0.0,0.0,0.0,0.0,0.0,0.0,0.0,0.0,0.0,0.0,0.0,0.0,0.0,0.0,0.0,0.0,0.0,0.0,0.0,0.0,0.0,0.0,0.0,0.0,0.0,0.0,0.0,0.0,0.0,0.0,0.0,0.0,0.0,0.0,0.0,0.0,0.0,0.0,0.0,0.0,0.0,0.0,0.0,0.0,0.0,0.0,0.0,0.0,0.0,0.0,0.0,0.0,0.0,0.0,0.0,0.0,0.0,0.0,0.0,0.0,0.0,0.0,0.0,0.0,0.0,0.0,0.0,0.0,0.0,0.0,0.0,0.0,0.0,0.0,0.0,0.0,0.0,0.0,0.0,0.0,0.0,0.0,0.0,0.0,0.0,0.0,0.0,0.0,0.0,0.0,0.0,0.0,0.0,0.0,0.0,0.0,0.0,0.0,0.0,0.0,0.0,0.0,0.0,0.0,0.0,0.0,0.0,0.0,0.0,0.0,0.0,0.0,0.0,0.0,0.0,0.0,0.0,0.0,0.0,0.0,0.0,0.0,0.0,0.0,0.0,0.0,0.0,0.0,0.0,0.0,0.0,0.0,0.0,0.0,0.0,0.0,0.0,0.0,0.0,0.0,0.0,0.0,0.0,0.0,0.0,0.0,0.0,0.0,0.0,0.0,0.0,0.0,0.0,0.0,0.0,0.0,0.0,0.0,0.0,0.0,0.0,0.0,0.0,0.0,0.0,0.0,0.0,0.0,0.0,0.0,0.0,0.0,0.0,0.0,0.0,0.0,0.0,0.0,0.0,0.0,0.0,0.0,0.0,0.0,0.0,0.0,0.0,0.0,0.0,0.0,0.0,0.0,0.0,0.0,0.0,0.0,0.0,0.0,0.0,0.0,0.0,0.0,0.0,0.0,0.0,0.0,0.0,0.0,0.0,0.0,0.0,0.0,0.0,0.0,0.0,0.0,0.0,0.0,0.0,0.0,0.0,0.0,0.0,0.0,0.0,0.0,0.0,0.0,0.0,0.0,0.0,0.0,0.0,0.0,0.0,0.0,0.0,0.0,0.0,0.0,0.0,0.0,0.0,0.0,0.0,0.0,0.0,0.0,0.0,0.0,0.0,0.0,0.0,0.0,0.0,0.0,0.0,0.0,0.0,0.0,0.0,0.0,0.0,0.0,0.0,0.0,0.0,0.0,0.0,0.0,0.0,0.0,0.0,0.0,0.0,0.0,0.0,0.0,0.0,0.0,0.0,0.0,0.0,0.0,0.0,0.0,0.0,0.0,0.0,0.0,0.0,0.0,0.0,0.0,0.0,0.0,0.0,0.0,0.0,0.0,0.0,0.0,0.0,0.0,0.0,0.0,0.0,0.0,0.0,0.0,0.0,0.0,0.0,0.0,0.0,0.0,0.0,0.0,0.0,0.0,0.0,0.0,0.0,0.0,0.0,0.0,0.0,0.0,0.0,0.0,0.0,0.0,0.0,0.0,0.0,0.0,0.0,0.0,0.0,0.0,0.0,0.0,0.0,0.0,0.0,0.0,0.0,0.0,0.0,0.0,0.0,0.0,0.0,0.0,0.0,0.0,0.0,0.0,0.0,0.0,0.0,0.0,0.0,0.0,0.0,0.0,0.0,0.0,0.0,0.0,0.0,0.0,0.0,0.0,0.0,0.0,0.0,0.0,0.0,0.0,0.0,0.0,0.0,0.0,0.0,0.0,0.0,0.0,0.0,0.0,0.0,0.0,0.0,0.0,0.0,0.0,0.0,0.0,0.0,0.0,0.0,0.0,0.0,0.0,0.0,0.0,0.0,0.0,0.0,0.0,0.0,0.0,0.0,0.0,0.0,0.0,0.0,0.0,0.0,0.0,0.0,0.0,0.0,0.0,0.0,0.0,0.0,0.0,0.0,0.0,0.0,0.0,0.0,0.0,0.0,0.0,0.0,0.0,0.0,0.0,0.0,0.0,0.0,0.0,0.0,0.0,0.0,0.0,0.0,0.0,0.0,0.0,0.0,0.0,0.0,0.0,0.0,0.0,0.0,0.0,0.0,0.0,0.0,0.0,0.0,0.0,0.0,0.0,0.0,0.0,0.0,0.0,0.0,0.0,0.0,0.0,0.0,0.0,0.0,0.0,0.0,0.0,0.0,0.0,0.0,0.0,0.0,0.0,0.0,0.0,0.0,0.0,0.0,0.0,0.0,0.0,0.0,0.0,0.0,0.0,0.0,0.0,0.0,0.0,0.0,0.0,0.0,0.0,0.0,0.0,0.0,0.0,0.0,0.0,0.0,0.0,0.0,0.0,0.0,0.0,0.0,0.0,0.0,0.0,0.0,0.0,0.0,0.0,0.0,0.0,0.0,0.0,0.0,0.0,0.0,0.0,0.0,0.0,0.0,0.0,0.0,0.0,0.0,0.0,0.0,0.0,0.0,0.0,0.0,0.0,0.0,0.0,0.0,0.0,0.0,0.0,0.0,0.0,0.0,0.0,0.0,0.0,0.0,0.0,0.0,0.0,0.0,0.0,0.0,0.0,0.0,0.0,0.0,0.0,0.0,0.0,0.0,0.0,0.0,0.0,0.0,0.0,0.0,0.0,0.0,0.0,0.0,0.0,0.0,0.0,0.0,0.0,0.0,0.0,0.0,0.0,0.0,0.0,0.0,0.0,0.0,0.0,0.0,0.0,0.0,0.0,0.0,0.0,0.0,0.0,0.0,0.0,0.0,0.0,0.0,0.0,0.0,0.0,0.0,0.0,0.0,0.0,0.0,0.0,0.0,0.0,0.0,0.0,0.0,0.0,0.0,0.0,0.0,0.0,0.0,0.0,0.0,0.0,0.0,0.0,0.0,0.0,0.0,0.0,0.0,0.0,0.0,0.0,0.0,0.0,0.0,0.0,0.0,0.0,0.0,0.0,0.0,0.0,0.0,0.0,0.0,0.0,0.0,0.0,0.0,0.0,0.0,0.0,0.0,0.0,0.0,0.0,0.0,0.0,0.0,0.0,0.0,0.0,0.0,0.0,0.0,0.0,0.0,0.0,0.0,0.0,0.0,0.0,0.0,0.0,0.0,0.0,0.0,0.0,0.0,0.0,0.0,0.0,0.0,0.0,0.0,0.0,0.0,0.0,0.0,0.0,0.0,0.0,0.0,0.0,0.0,0.0,0.0,0.0,0.0,0.0,0.0,0.0,0.0,0.0,0.0,0.0,0.0,0.0,0.0,0.0,0.0,0.0,0.0,0.0,0.0,0.0,0.0,0.0,0.0,0.0,0.0,0.0,0.0,0.0,0.0,0.0,0.0,0.0,0.0,0.0,0.0,0.0,0.0,0.0,0.0,0.0,0.0,0.0,0.0,0.0,0.0,0.0,0.0,0.0,0.0,0.0,0.0,0.0,0.0,0.0,0.0,0.0,0.0,0.0,0.0,0.0,0.0,0.0,0.0,0.0,0.0,0.0,0.0,0.0,0.0,0.0,0.0,0.0,0.0,0.0,0.0,0.0,0.0,0.0,0.0,0.0,0.0,0.0,0.0,0.0,0.0,0.0,0.0,0.0,0.0,0.0,0.0,0.0,0.0,0.0,0.0,0.0,0.0,0.0,0.0,0.0,0.0,0.0,0.0,0.0,0.0,0.0,0.0,0.0,0.0,0.0,0.0,0.0,0.0,0.0,0.0,0.0,0.0,0.0,0.0,0.0,0.0,0.0,0.0,0.0,0.0,0.0,0.0,0.0,0.0,0.0,0.0,0.0,0.0,0.0,0.0,0.0,0.0,0.0,0.0,0.0,0.0,0.0,0.0,0.0,0.0,0.0,0.0,0.0,0.0,0.0,0.0,0.0,0.0,0.0,0.0,0.0,0.0,0.0,0.0,0.0,0.0,0.0,0.0,0.0,0.0,0.0,0.0,0.0,0.0,0.0,0.0,0.0,0.0,0.0,0.0,0.0,0.0,0.0,0.0,0.0,0.0,0.0,0.0,0.0,0.0,0.0,0.0,0.0,0.0,0.0,0.0,0.0,0.0,0.0,0.0,0.0,0.0,0.0,0.0,0.0,0.0,0.0,0.0,0.0,0.0,0.0,0.0,0.0,0.0,0.0,0.0,0.0,0.0,0.0,0.0,0.0,0.0,0.0,0.0,0.0,0.0,0.0,0.0,0.0,0.0,0.0,0.0,0.0,0.0,0.0,0.0,0.0,0.0,0.0,0.0,0.0,0.0,0.0,0.0,0.0,0.0,0.0,0.0,0.0,0.0,0.0,0.0,0.0,0.0,0.0,0.0,0.0,0.0,0.0,0.0,0.0,0.0,0.0,0.0,0.0,0.0,0.0,0.0,0.0,0.0,0.0,0.0,0.0,0.0,0.0,0.0,0.0,0.0,0.0,0.0,0.0,0.0,0.0,0.0,0.0,0.0,0.0,0.0,0.0,0.0,0.0,0.0,0.0,0.0,0.0,0.0,0.0,0.0,0.0,0.0,0.0,0.0,0.0,0.0,0.0,0.0,0.0,0.0,0.0,0.0,0.0,0.0,0.0,0.0,0.0,0.0,0.0,0.0,0.0,0.0,0.0,0.0,0.0,0.0,0.0,0.0,0.0,0.0,0.0,0.0,0.0,0.0,0.0,0.0,0.0,0.0,0.0,0.0,0.0,0.0,0.0,0.0,0.0,0.0,0.0,0.0,0.0,0.0,0.0,0.0,0.0,0.0,0.0,0.0,0.0,0.0,0.0,0.0,0.0,0.0,0.0,0.0,0.0,0.0,0.0,0.0,0.0,0.0,0.0,0.0,0.0,0.0,0.0,0.0,0.0,0.0,0.0,0.0,0.0,0.2052,0.1321,0.0,0.0,0.0,0.0,0.0,0.0,0.0,0.0,0.0,0.0,0.0,0.0,0.0,0.0,0.0,0.0,0.0,0.0,0.0,0.0,0.0,0.0,0.0,-0.3911,-0.3848,-0.3731,-0.3499,-0.3251,-0.3031,0.0,0.0,0.0,0.0,0.0,-0.2495,-0.2589,-0.266,-0.269,-0.2601,-0.2293,-0.1767,-0.1713,-0.163,-0.1477,0.0,0.0,0.0,0.0,0.0,0.0,0.0,0.0,0.0,0.0,0.0,0.0,0.0,0.0,0.0,0.0,0.0,0.0,0.0,0.0,0.0,0.0,0.0,0.0,0.0,0.0,0.0,0.0,0.0,0.0,0.0,0.0,0.0,0.0,0.0,0.0,0.0,0.0,0.0,0.0,0.0,0.0,0.0,0.0,0.0,0.0,0.0,0.0,0.0,0.0,0.0,0.0,0.0,0.0,0.0,0.0,0.0,0.0,0.0,0.0,0.0,0.0,0.0,0.0,0.0,0.0,0.0,0.0,0.0,0.0,0.2651,0.1989,0.0,0.0,0.0,0.0,0.0,0.0,0.0,0.0,0.0,0.0,0.0,0.0,0.0,0.0,0.0,0.0,0.0,0.0,0.0,0.0,0.0,-0.3982,-0.3964,-0.3908,-0.383,-0.3652,-0.3415,-0.3169,-0.2938,-0.27,0.0,0.0,0.0,-0.2547,-0.2547,-0.2778,-0.2908,-0.2939,-0.2588,-0.2112,-0.1587,-0.1817,-0.1873,-0.1818,-0.1602,0.0,0.0,0.0,0.0,0.0,0.0,0.0,0.0,0.0,0.0,0.0,0.0,0.0,0.0,0.0,0.0,0.0,0.0,0.0,0.0,0.0,0.0,0.0,0.0,0.0,0.0,0.0,0.0,0.0,0.0,0.0,0.0,0.0,0.0,0.0,0.0,0.0,0.0,0.0,0.0,0.0,0.0,0.0,0.0,0.0,0.0,0.0,0.0,0.0,0.0,0.0,0.0,0.0,0.0,0.0,0.0,0.0,0.0,0.0,0.0,0.0,0.0,0.0,0.3086,0.3375,0.3507,0.3511,0.3554,0.3552,0.325,0.2763,0.2138,0.1333,0.0,0.0,0.0,0.0,0.0,0.0,0.0,0.0,0.0,0.0,0.0,0.0,0.0,0.0,0.0,0.0,0.0,0.0,0.0,-0.3994,-0.4229,-0.3981,-0.3923,-0.4179,-0.3739,-0.3456,-0.3404,-0.3008,0.0,0.0,-0.2755,-0.2755,-0.2755,-0.3133,-0.3262,-0.3146,-0.2653,-0.2235,-0.1924,-0.1617,-0.1645,-0.1995,-0.1993,-0.1919,-0.1722,0.0,0.0,0.0,0.0,0.0,0.0,0.0,0.0,0.0,0.0,0.0,0.0,0.0,0.0,0.0,0.0,0.0,0.0,0.0,0.0,0.0,0.0,0.0,0.0,0.0,0.0,0.0,0.0,0.0,0.0,0.0,0.0,0.0,0.0,0.0,0.0,0.0,0.0,0.0,0.0,0.0,0.0526,0.0558,0.0,0.0,0.0,0.0,0.0,0.0,0.0,0.0,0.0,0.0,0.0,0.0,0.0,0.1657,0.2396,0.2712,0.3081,0.3409,0.3728,0.3775,0.3712,0.3724,0.3771,0.3844,0.3795,0.0,0.24,0.2145,0.0,0.0,0.0,0.0,0.0,0.0,0.0,0.0,0.0,0.0,0.0,0.0,0.0,0.0,0.0,0.0,0.0,0.0,0.0,0.0,0.0,-0.4159,-0.4192,-0.4036,-0.3895,-0.3709,-0.3466,-0.325,-0.309,-0.2981,-0.2972,-0.2972,-0.2972,-0.3319,-0.3487,-0.3502,-0.3396,-0.299,-0.2329,-0.252,-0.2349,-0.1891,-0.2266,-0.2309,-0.2145,-0.1909,0.0,0.0,0.0,0.0,0.0,0.0,0.0,0.0,0.0,0.0,0.0,0.0,0.0,0.0,0.0,0.0,0.0,0.0,0.0,0.0,0.0,0.0,0.0,0.0,0.0,0.0,0.0,0.0,0.0,0.0,0.0,0.0,0.0,0.0,0.0,0.0,0.0,0.0,0.0,0.017,0.034,-0.0101,-0.0103,-0.0309,0.0,0.0,0.0,0.0,0.0,0.0,0.0,0.0,0.0,0.1872,0.206,0.2508,0.3348,0.3452,0.3697,0.4006,0.4138,0.4179,0.4142,0.4193,0.424,0.4277,0.4277,0.3984,0.3527,0.2775,0.1989,0.1245,0.0,0.0,0.0,0.0,0.0801,0.1273,0.0,0.0,0.0,0.0,0.0,0.0,0.0,0.0,0.0,0.0,0.0,0.0,-0.416,-0.4332,-0.4363,-0.4093,-0.4136,-0.4033,-0.3667,-0.3558,-0.34,-0.3255,-0.3194,-0.319,-0.3246,-0.3652,-0.3848,-0.3876,-0.4052,-0.3679,-0.2855,-0.3332,-0.3054,-0.2298,-0.2571,-0.2534,-0.2322,-0.2091,-0.2152,-0.2403,0.0,0.0,0.0,0.0,0.0,0.0,0.0,0.0,0.0,0.0,0.0,0.0,0.0,0.0,0.0,0.0,0.0,0.0,0.0,0.0,0.0,0.0,0.0,0.0,0.0,0.0,0.0,0.0,0.0,0.0,0.0,0.0,0.0,0.0,0.0,0.0,0.0,0.0239,0.0423,-0.0377,0.0227,0.0288,0.0,0.0,0.0,0.0,0.0,0.0,0.1477,0.1627,0.2079,0.2874,0.3008,0.3442,0.4136,0.4161,0.4238,0.4369,0.4438,0.4469,0.4471,0.454,0.4573,0.4573,0.4573,0.4532,0.4348,0.3463,0.2882,0.2506,0.1908,0.151,0.1287,0.1543,0.2004,0.2539,0.0,0.0,0.0,0.0,0.0,0.0,0.0,0.0,0.0,0.0,0.0,-0.4224,-0.495,-0.4503,-0.4319,-0.4787,-0.455,-0.4366,-0.4356,-0.3945,-0.3686,-0.3677,-0.348,-0.3466,-0.3672,-0.4231,-0.4495,-0.4358,-0.4264,-0.3978,-0.3561,-0.3561,-0.3564,-0.3461,-0.2959,-0.2397,-0.1826,-0.17,-0.1719,-0.1808,-0.1691,0.0,0.0,0.0,0.0,0.0,0.0,0.0,0.0,0.0,0.0,0.0,0.0,0.0,0.0,0.0,0.0,0.0,0.0,0.0,0.0,0.0,0.0,0.0,0.0,0.0,0.0,0.0,0.0,0.0,0.0,0.0,0.0,0.0,0.0,0.0,0.0,0.0,0.0,0.0447,0.1304,0.0,0.0,0.0,0.0,0.1326,0.1297,0.1706,0.2546,0.2827,0.326,0.3928,0.4174,0.431,0.4416,0.4502,0.4551,0.4559,0.4563,0.4565,0.4567,0.4571,0.4573,0.4573,0.4573,0.4571,0.4551,0.4353,0.369,0.2752,0.2691,0.2083,0.1416,0.2336,0.2707,0.2928,0.0,0.0,0.0,0.0,0.0,-0.4207,-0.4207,-0.4187,-0.4164,-0.4168,-0.435,-0.4475,-0.4466,-0.4675,-0.4783,-0.4779,-0.4764,-0.4747,-0.4609,-0.4295,-0.4201,-0.4328,-0.4139,-0.4173,-0.4477,-0.4707,-0.482,-0.4871,-0.4549,-0.4125,-0.3689,-0.3689,-0.3263,-0.256,-0.2738,-0.2473,-0.1843,-0.1725,-0.1777,-0.1975,-0.2005,-0.2258,0.0,0.0,0.0,0.0,0.0,0.0,0.0,0.0,0.0,0.0,0.0,0.0,0.0,0.0,0.0,0.0,0.0,0.0,0.0,0.0,0.0,0.0,0.0,0.0,0.0,0.0,0.0,0.0,0.0,0.0,0.0,0.0,0.0,0.0,0.0,0.0,0.0,0.088,0.169,0.0,0.129,0.1696,0.2032,0.2249,0.2755,0.3205,0.3641,0.38,0.4016,0.4377,0.4473,0.4553,0.461,0.4643,0.4687,0.4741,0.4741,0.4741,0.4741,0.4741,0.4544,0.4152,0.3654,0.3258,0.2859,0.2332,0.2846,0.3963,0.3934,0.3737,0.3463,0.383,0.3941,0.3966,0.0,0.0,0.0,0.0,-0.4207,-0.4207,-0.4207,-0.4166,-0.4148,-0.4171,-0.4409,-0.4533,-0.4471,-0.4859,-0.5087,-0.5014,-0.5046,-0.5027,-0.4928,-0.4657,-0.4566,-0.47,-0.4602,-0.466,-0.4905,-0.5005,-0.5093,-0.5173,-0.4963,-0.4699,-0.4333,-0.4383,-0.4034,-0.3317,-0.3501,-0.322,-0.256,-0.2284,-0.2062,-0.1946,-0.1998,-0.2274,-0.2664,0.0,0.0,0.0,0.0,0.0,0.0,0.0,0.0,0.0,0.0,0.0,0.0,0.0,0.0,0.0,0.0,0.0,0.0,0.0,0.0,0.0,0.0,0.0,0.0,0.0,0.0,0.0,0.0,0.0,0.0,0.0,0.0,0.0,0.0,0.117,0.1802,0.1085,0.2192,0.2671,0.2041,0.2649,0.3119,0.3248,0.3815,0.421,0.4304,0.4447,0.4555,0.4616,0.4647,0.4689,0.4751,0.4553,0.4382,0.4128,0.3925,0.3723,0.342,0.342,0.3221,0.292,0.2315,0.1912,0.1509,0.1006,0.1784,0.3299,0.3299,0.3299,0.3299,0.3299,0.3299,0.3396,0.0,0.0,0.0,-0.4228,-0.4207,-0.4207,-0.4207,-0.4084,-0.4127,-0.4449,-0.4279,-0.4388,-0.5082,-0.507,-0.5155,-0.5557,-0.5405,-0.5283,-0.5278,-0.4938,-0.4709,-0.4723,-0.4809,-0.4883,-0.4915,-0.5161,-0.5292,-0.5309,-0.5474,-0.5558,-0.5574,-0.5751,-0.584,-0.5844,-0.5225,-0.4552,-0.3878,-0.3265,-0.2574,-0.1767,-0.1713,-0.1893,-0.214,0.0,0.0,0.0,0.0,0.0,0.0,0.0,0.0,0.0,0.0,0.0,0.0,0.0,0.0,0.0,0.0,0.0,0.0,0.0,0.0,0.0,0.0,0.0,0.0,0.0,0.0,0.0,0.0,0.0,0.0,0.0,0.0,0.0,0.0651,0.1372,0.1707,0.1201,0.2827,0.3675,0.2939,0.3652,0.4255,0.4334,0.435,0.4388,0.4476,0.4566,0.4614,0.4614,0.4692,0.4732,0.4632,0.4131,0.3527,0.2718,0.2214,0.161,0.0805,0.0805,0.0805,0.0805,0.0704,0.0704,0.0704,0.0704,0.0704,0.0704,0.0805,0.0805,0.0805,0.0805,0.0805,0.0905,0.0,0.0,-0.426,-0.4207,-0.4207,-0.4207,-0.4207,-0.4117,-0.4095,-0.4135,-0.4294,-0.4443,-0.4604,-0.4973,-0.5193,-0.516,-0.5235,-0.5226,-0.5079,-0.4857,-0.4843,-0.5103,-0.5457,-0.5623,-0.5575,-0.552,-0.5529,-0.5539,-0.5121,-0.5026,-0.5257,-0.4859,-0.4677,-0.4708,-0.4579,-0.4333,-0.4121,-0.3932,-0.3704,-0.3362,-0.2252,-0.2066,-0.2399,0.0,0.0,0.0,0.0,0.0,0.0,0.0,0.0,0.0,0.0,0.0,0.0,0.0,0.0,0.0,0.0,0.0,0.0,0.0,0.0,0.0,0.0,0.0,0.0,0.0,0.0,0.0,0.0,0.0,0.0,0.0,-0.1091,-0.0897,-0.0345,0.0436,0.1073,0.1356,0.229,0.3093,0.3393,0.3751,0.3638,0.3109,0.2774,0.2417,0.204,0.2077,0.2197,0.2197,0.2208,0.2112,0.1911,0.1912,0.1811,0.1308,0.1408,0.1207,0.0805,0.0805,0.0604,0.0201,-0.0403,-0.0907,-0.131,-0.1814,-0.2116,-0.1915,-0.0,0.0805,0.0805,0.0805,0.0805,0.0805,0.0,-0.4423,-0.4207,-0.4207,-0.4207,-0.4207,-0.4207,-0.4125,-0.4053,-0.4001,-0.4275,-0.4482,-0.4518,-0.4976,-0.5278,-0.525,-0.5353,-0.5335,-0.5127,-0.4994,-0.5112,-0.5436,-0.5747,-0.5905,-0.5909,-0.5849,-0.5831,-0.578,-0.5557,-0.5448,-0.5575,-0.5257,-0.5137,-0.515,-0.515,-0.4973,-0.4699,-0.4699,-0.4525,-0.413,-0.321,-0.2994,-0.318,-0.3189,-0.337,-0.3583,-0.3254,-0.3155,-0.3203,-0.32,0.0,0.0,0.0,0.0,0.0,0.0,0.0,0.0,0.0,0.0,0.0,0.0,0.0,0.0,0.0,0.0,0.0,0.0,0.0,0.0,0.0,0.0,0.0,0.0,-0.1551,-0.1654,-0.1488,-0.0398,0.0491,0.103,0.1423,0.1927,0.2361,0.2486,0.2316,0.1848,0.1575,0.1288,0.0991,0.1,0.1006,0.1006,0.1006,0.1006,0.0805,0.0704,0.0403,-0.0,-0.0101,-0.0403,-0.0906,-0.0906,-0.1007,-0.1411,-0.1815,-0.2219,-0.2522,-0.3027,-0.323,-0.3029,0.0,0.0,0.0,0.0,-0.0906,-0.0805,0.0,-0.4362,-0.4228,-0.4207,-0.4207,-0.4207,-0.4207,-0.4084,-0.4016,-0.4056,-0.4257,-0.4482,-0.4684,-0.5067,-0.5353,-0.5524,-0.558,-0.5528,-0.5335,-0.5344,-0.5475,-0.5695,-0.5736,-0.5869,-0.6125,-0.6129,-0.6119,-0.6151,-0.6324,-0.635,-0.624,-0.6343,-0.642,-0.642,-0.642,-0.6083,-0.5543,-0.5543,-0.515,-0.4544,-0.4493,-0.4304,-0.4166,-0.4387,-0.4507,-0.4463,-0.4033,-0.3857,-0.3694,-0.3099,0.0,0.0,0.0,0.0,0.0,0.0,0.0,0.0,0.0,0.0,0.0,0.0,0.0,0.0,0.0,0.0,0.0,0.0,0.0,0.0,0.0,0.0,0.0,0.0,-0.2137,-0.2218,-0.2502,-0.131,-0.0176,0.0179,0.0367,0.0471,0.0585,0.0588,0.0593,0.0603,0.0503,0.0503,0.0402,0.0402,0.0,0.0,0.0,0.0402,0.0302,-0.0101,-0.0706,-0.1412,-0.1916,-0.2522,-0.323,-0.323,-0.323,-0.323,-0.323,-0.323,-0.323,-0.323,-0.323,-0.323,-0.323,-0.323,-0.323,-0.323,-0.323,-0.313,0.0,-0.4475,-0.4394,-0.4228,-0.4207,-0.4207,-0.4207,-0.4084,-0.409,-0.436,-0.44,-0.452,-0.4818,-0.5105,-0.524,-0.5117,-0.5415,-0.559,-0.5552,-0.5698,-0.5826,-0.5855,-0.6023,-0.6179,-0.6248,-0.6134,-0.6243,-0.6595,-0.6379,-0.6349,-0.662,-0.6465,-0.642,-0.642,-0.642,-0.635,-0.6218,-0.6218,-0.6148,-0.6013,-0.5982,-0.5281,-0.4181,-0.4154,-0.4156,-0.4192,-0.3929,-0.3803,-0.3766,-0.3501,-0.3337,-0.3141,-0.3138,0.0,0.0,0.0,0.0,0.0,0.0,0.0,0.0,0.0,0.0,0.0,0.0,0.0,0.0,0.0,0.0,0.0,0.0,0.0,0.0,-0.2327,-0.2464,-0.2607,-0.2837,-0.2623,-0.2196,-0.147,-0.1043,-0.0486,0.0098,0.0099,-0.01,-0.0806,-0.1209,-0.1613,-0.2117,-0.2117,-0.2117,-0.2117,-0.2117,-0.2218,-0.2421,-0.232,-0.2422,-0.2826,-0.2724,0.0,-0.323,-0.323,-0.323,-0.323,-0.323,-0.323,-0.323,-0.323,-0.323,-0.323,-0.323,-0.323,-0.323,-0.323,-0.323,-0.313,-0.4715,-0.4483,-0.4321,-0.4228,-0.4207,-0.4207,-0.4207,-0.4125,-0.4163,-0.4463,-0.4518,-0.4672,-0.4978,-0.5195,-0.5313,-0.5197,-0.5399,-0.5614,-0.5736,-0.5854,-0.5954,-0.6067,-0.627,-0.6426,-0.6573,-0.6616,-0.6753,-0.6925,-0.6792,-0.6716,-0.6811,-0.6679,-0.6683,-0.6618,-0.6548,-0.6613,-0.6618,-0.6486,-0.6482,-0.6548,-0.642,-0.6032,-0.5413,-0.5258,-0.5137,-0.5054,-0.4606,-0.4333,-0.4204,-0.3852,-0.3583,-0.3377,-0.3106,-0.3253,-0.3497,0.0,0.0,0.0,0.0,0.0,0.0,0.0,0.0,0.0,0.0,0.0,0.0,0.0,0.0,-0.2127,0.0,0.0,-0.2471,-0.2623,-0.2723,-0.2826,-0.2944,-0.3012,-0.2954,-0.2574,-0.223,-0.1968,-0.159,-0.1605,-0.1815,-0.2219,-0.2422,-0.2725,-0.3027,-0.3027,-0.3027,-0.3027,-0.3027,-0.3029,-0.323,-0.3057,-0.3071,-0.3275,-0.3071,-0.3189,-0.332,-0.329,-0.3293,-0.3322,-0.3322,-0.3322,-0.3319,-0.3289,-0.3258,-0.323,-0.323,-0.323,-0.323,-0.323,-0.323,-0.323,-0.4892,-0.4532,-0.4309,-0.4268,-0.4228,-0.4207,-0.4207,-0.4138,-0.4229,-0.4566,-0.467,-0.4838,-0.5168,-0.5353,-0.547,-0.5538,-0.5564,-0.5692,-0.6022,-0.6001,-0.6048,-0.6168,-0.6365,-0.6576,-0.6787,-0.7054,-0.7194,-0.7265,-0.7204,-0.7073,-0.6881,-0.6881,-0.6815,-0.6815,-0.6679,-0.6679,-0.6815,-0.6486,-0.6482,-0.6609,-0.6482,-0.6548,-0.6658,-0.6446,-0.6324,-0.6168,-0.5463,-0.5065,-0.4827,-0.4137,-0.388,-0.368,-0.307,-0.3447,-0.4006,-0.3767,-0.4063,0.0,0.0,0.0,0.0,0.0,0.0,0.0,0.0,0.0,-0.3034,-0.2236,-0.2195,-0.2342,-0.2437,-0.2523,-0.2646,-0.2842,-0.2892,-0.2946,-0.3052,-0.3109,-0.3143,-0.3155,-0.3157,-0.3177,-0.3226,-0.323,-0.323,-0.323,-0.323,-0.323,-0.323,-0.323,-0.323,-0.323,-0.323,-0.3236,-0.3248,-0.3297,-0.3327,-0.3339,-0.3339,-0.3365,-0.3412,-0.3361,-0.3367,-0.3413,-0.3413,-0.3413,-0.3409,-0.336,-0.3311,-0.3266,-0.3266,-0.3266,-0.3263,-0.3238,-0.323,-0.323,0.0,-0.4773,-0.4684,-0.4495,-0.4321,-0.4207,-0.4207,-0.4138,-0.4316,-0.4955,-0.4899,-0.4996,-0.5584,-0.554,-0.5663,-0.6097,-0.5908,-0.5997,-0.6493,-0.6299,-0.6154,-0.6178,-0.6365,-0.6576,-0.6787,-0.6874,-0.7135,-0.7456,-0.7138,-0.6946,-0.6881,-0.6811,-0.6613,-0.6486,-0.642,-0.642,-0.6486,-0.642,-0.642,-0.6416,-0.6609,-0.6675,-0.6736,-0.6789,-0.678,-0.6599,-0.6006,-0.5812,-0.5628,-0.4745,-0.4418,-0.4294,-0.3683,-0.3561,-0.3747,-0.4168,0.0,-0.4551,-0.5276,-0.4658,-0.3718,-0.3449,-0.2787,-0.2231,0.0,0.0,-0.2445,-0.2357,-0.2471,-0.2565,-0.2578,-0.2719,-0.2842,-0.2869,-0.2962,-0.3053,-0.312,-0.3135,-0.3159,-0.3214,-0.3219,-0.3222,-0.323,-0.323,-0.323,-0.323,-0.323,-0.323,-0.323,-0.323,-0.323,-0.323,-0.323,-0.3256,-0.3311,-0.3318,-0.3349,-0.3402,-0.3402,-0.3406,-0.3413,-0.3405,-0.3406,-0.3413,-0.3413,-0.3413,-0.3412,-0.3405,-0.3398,-0.3392,-0.3392,-0.3392,-0.3379,-0.327,-0.323,-0.323,0.0,-0.5108,-0.4991,-0.4873,-0.4595,-0.4374,-0.4374,-0.426,-0.4319,-0.4758,-0.4721,-0.4921,-0.5528,-0.566,-0.5843,-0.6116,-0.6006,-0.6048,-0.6383,-0.6302,-0.6178,-0.6178,-0.6487,-0.6702,-0.6791,-0.7105,-0.7311,-0.7521,-0.733,-0.7265,-0.7265,-0.7199,-0.7134,-0.7003,-0.6942,-0.6937,-0.7003,-0.6811,-0.6745,-0.6876,-0.6811,-0.6876,-0.699,-0.6814,-0.6775,-0.6757,-0.6403,-0.6207,0.0,-0.5437,-0.521,-0.5014,-0.4349,-0.4401,-0.4721,-0.4599,-0.4973,0.0,-0.494,-0.432,-0.3605,0.0,-0.2668,-0.2562,-0.2342,-0.2561,-0.2786,-0.2584,-0.2623,-0.2707,-0.2707,-0.2826,-0.2935,0.0,-0.3046,-0.3123,-0.3184,-0.3192,-0.3188,-0.3179,-0.3209,-0.323,-0.323,-0.323,-0.323,-0.323,-0.323,-0.323,-0.323,-0.323,-0.323,-0.323,-0.3264,-0.3296,-0.3322,-0.339,-0.3436,-0.3462,-0.3462,-0.348,-0.3514,-0.3477,-0.3481,-0.3514,-0.3514,-0.3495,-0.3462,-0.3462,-0.3441,-0.3413,-0.3413,-0.3413,-0.3402,-0.3315,-0.3283,-0.3278,0.0,-0.5387,-0.5262,-0.5224,-0.4853,-0.4575,-0.4507,-0.4321,-0.4314,-0.4587,-0.4634,-0.4851,-0.5469,-0.574,-0.5974,-0.6157,-0.6119,-0.6191,-0.6329,-0.6314,-0.6274,-0.6228,-0.6515,-0.673,-0.6791,-0.7196,-0.7469,-0.7521,-0.7521,-0.7456,-0.7396,-0.7396,-0.7396,-0.733,-0.7204,-0.7204,-0.733,-0.7012,-0.7012,-0.7138,-0.7007,-0.7042,-0.7104,-0.6831,-0.6773,-0.6743,-0.6551,-0.6309,-0.6059,-0.5784,-0.5695,-0.5559,-0.4957,-0.5194,-0.5576,-0.523,-0.5653,-0.5973,-0.482,-0.4235,0.0,-0.2725,-0.2683,-0.2842,-0.247,-0.2772,-0.3099,-0.2716,-0.2734,-0.2808,-0.2808,-0.289,-0.2978,-0.3134,-0.31,-0.3161,-0.3222,-0.3215,-0.3189,-0.3144,-0.3179,-0.3206,-0.3206,-0.3221,-0.323,-0.323,-0.323,-0.323,-0.323,-0.323,-0.323,-0.323,-0.329,-0.333,-0.3346,-0.3446,-0.3504,-0.3522,-0.3522,-0.3545,-0.3586,-0.3542,-0.3545,-0.3587,-0.3587,-0.3563,-0.3522,-0.3522,-0.3497,-0.3461,-0.3461,-0.3461,-0.3452,-0.3392,-0.336,-0.3338,0.0,0.0,-0.5492,-0.5492,-0.5098,-0.4724,-0.4535,-0.4321,-0.4314,-0.4648,-0.4696,-0.4932,-0.5541,-0.5778,-0.6047,-0.6368,-0.6378,-0.64,-0.6486,-0.6569,-0.6482,-0.6223,-0.6374,-0.6581,-0.6787,-0.7059,-0.7326,-0.7521,-0.7521,-0.7396,-0.7204,-0.7204,-0.7073,-0.6946,-0.6881,-0.6881,-0.6946,-0.6881,-0.6881,-0.6946,-0.7138,-0.709,-0.6921,-0.71,-0.6903,-0.6492,-0.6205,-0.6081,-0.6015,-0.5641,-0.5637,-0.576,-0.5514,-0.5637,0.0,-0.6133,-0.6379,-0.6353,0.0,0.0,-0.4204,-0.3363,-0.2864,-0.2518,-0.2579,-0.2685,-0.2773,-0.2777,-0.2828,-0.2871,-0.2871,-0.2918,-0.2978,-0.3134,-0.31,-0.3161,-0.3222,-0.318,-0.3142,-0.3139,-0.314,-0.3142,0.0,-0.3195,-0.323,-0.323,-0.323,-0.323,-0.323,-0.323,-0.323,-0.323,-0.329,-0.335,-0.3409,-0.3467,-0.3526,-0.3585,-0.3585,-0.3585,-0.3587,-0.3585,-0.3585,-0.3587,-0.3587,-0.3586,-0.3585,-0.3585,-0.3583,-0.3582,-0.3582,-0.3582,-0.3575,-0.3514,-0.3456,-0.3401,0.0,0.0,0.0,-0.5511,-0.5098,-0.4773,-0.4704,-0.4403,-0.4234,-0.4353,-0.4758,0.0,0.0,0.0,0.0,0.0,-0.6247,-0.6343,-0.6785,-0.646,-0.6349,-0.6477,-0.6512,-0.6506,-0.6581,-0.6847,-0.6988,-0.7059,-0.7191,-0.7262,-0.7199,-0.733,-0.733,-0.7265,-0.7265,-0.7265,-0.7265,-0.7265,-0.7265,-0.7321,-0.725,-0.7157,-0.7068,-0.6847,-0.6573,-0.6257,0.0,-0.5958,-0.594,-0.5702,-0.5702,-0.5721,-0.5726,0.0,0.0,-0.6469,-0.6497,-0.6354,-0.6051,0.0,-0.5352,-0.4783,-0.4084,-0.3549,-0.3632,-0.3181,-0.2783,-0.2783,-0.3319,-0.3752,-0.3615,-0.3798,-0.3913,-0.3814,-0.3457,-0.3161,-0.3222,-0.3213,-0.3185,-0.3144,-0.3176,0.0,0.0,0.0,-0.323,-0.323,-0.323,-0.323,-0.323,-0.323,-0.323,-0.323,-0.333,-0.3391,-0.3413,-0.3508,-0.3567,-0.3587,-0.3587,-0.3587,-0.3587,-0.3587,-0.3587,-0.3587,-0.3587,-0.3587,-0.3587,-0.3587,-0.3587,-0.3587,-0.3587,-0.3587,-0.3585,-0.3564,-0.3545,-0.3515,0.0,0.0,0.0,0.0,0.0,0.0,0.0,0.0,0.0,0.0,0.0,0.0,0.0,0.0,0.0,0.0,0.0,0.0,-0.6633,-0.651,-0.646,-0.6608,-0.6639,-0.6712,-0.6798,-0.689,-0.7099,-0.7262,-0.7225,-0.7274,-0.7353,-0.7308,-0.7239,-0.7239,-0.7239,-0.7239,-0.7239,-0.7239,-0.7239,-0.7229,-0.7102,-0.7002,-0.6899,-0.6554,-0.6243,0.0,-0.5788,-0.5689,-0.5684,-0.5594,-0.5641,-0.577,-0.5724,-0.5991,-0.6326,-0.6588,-0.6585,-0.6536,-0.6428,-0.6306,-0.6036,-0.5785,-0.5277,-0.4775,-0.4882,-0.4272,-0.3723,-0.3694,-0.4168,-0.4532,-0.4433,-0.427,-0.4247,-0.4443,-0.3645,-0.3089,-0.3413,-0.3311,-0.3184,-0.3144,-0.3174,-0.3183,0.0,0.0,0.0,-0.323,-0.323,-0.323,-0.323,-0.323,-0.324,-0.3262,-0.336,-0.3422,-0.3443,-0.354,-0.3587,-0.3587,-0.3587,-0.3587,-0.3587,-0.3587,-0.3587,-0.3587,-0.3587,-0.3587,-0.3587,-0.3587,-0.3587,-0.3587,-0.3587,-0.3587,-0.3587,-0.3587,-0.3587,-0.3574,0.0,0.0,0.0,0.0,0.0,0.0,0.0,0.0,0.0,0.0,0.0,0.0,0.0,0.0,0.0,0.0,0.0,0.0,-0.6135,-0.666,-0.6858,-0.6621,-0.683,-0.7097,-0.7261,-0.7267,-0.7559,-0.8046,-0.7504,-0.7349,-0.7699,-0.7126,-0.6842,-0.6851,-0.6796,-0.6791,-0.6791,-0.6791,-0.6787,-0.6837,-0.6768,-0.6632,-0.6473,-0.6275,-0.6062,-0.5826,-0.5477,-0.5334,-0.5287,-0.5297,0.0,0.0,0.0,0.0,0.0,-0.6578,-0.6746,-0.6907,-0.6649,-0.6499,-0.6433,-0.6431,-0.6221,-0.6079,-0.6119,-0.5782,-0.5395,-0.5355,-0.5311,-0.5263,0.0,0.0,-0.4103,-0.4918,-0.3849,-0.3144,-0.3887,-0.3474,-0.3144,0.0,0.0,0.0,0.0,0.0,0.0,-0.323,-0.323,-0.323,-0.323,-0.3233,-0.3262,-0.3319,-0.3384,-0.3443,-0.3496,-0.3556,-0.3587,-0.3587,-0.3587,-0.3587,-0.3587,-0.3587,-0.3587,-0.3587,-0.3587,-0.3587,-0.3587,-0.3587,-0.3587,-0.3587,-0.3587,-0.3587,-0.3587,-0.3587,-0.3587,-0.3579,0.0,0.0,0.0,0.0,0.0,0.0,0.0,0.0,0.0,0.0,0.0,0.0,0.0,0.0,0.0,0.0,0.0,0.0,0.0,-0.638,-0.6521,-0.6901,-0.6789,-0.6824,-0.7085,-0.7091,-0.7156,-0.7286,-0.7287,-0.7458,-0.777,-0.7332,-0.7216,-0.7439,-0.7026,-0.6791,-0.6791,-0.6791,-0.6934,-0.7057,-0.6562,-0.6425,-0.6571,-0.6339,-0.5917,-0.5477,-0.5738,0.0,0.0,0.0,0.0,0.0,0.0,0.0,-0.6827,0.0,0.0,-0.7607,-0.788,-0.8121,-0.833,-0.8229,-0.7681,-0.7079,-0.6949,-0.6173,-0.5451,-0.5229,-0.5607,-0.5947,0.0,0.0,0.0,-0.4941,-0.3871,0.0,-0.3336,-0.3288,0.0,-0.3207,0.0,-0.3207,-0.3207,-0.3221,0.0,-0.323,-0.323,-0.323,-0.323,-0.3274,-0.3305,-0.332,-0.3421,-0.3481,-0.3496,-0.3556,-0.3587,-0.3587,-0.3587,-0.3587,-0.3587,-0.3587,-0.3587,-0.3587,-0.3587,-0.3587,-0.3587,-0.3587,-0.3587,-0.3587,-0.3587,-0.3587,-0.3587,-0.3587,-0.3587,-0.3585,0.0,0.0,0.0,0.0,0.0,0.0,0.0,0.0,0.0,0.0,0.0,0.0,0.0,0.0,0.0,0.0,0.0,0.0,0.0,-0.6343,-0.6427,-0.681,-0.676,-0.6787,-0.695,-0.7037,-0.716,-0.7289,-0.7292,-0.7468,-0.779,-0.7321,-0.7197,-0.7383,-0.7062,-0.6898,-0.6898,-0.6678,-0.6657,0.0,0.0,-0.6037,-0.6152,-0.5919,-0.5617,-0.5319,0.0,0.0,0.0,0.0,0.0,-0.6582,-0.6889,-0.7066,-0.7315,-0.766,0.0,-0.8188,-0.8676,-0.8967,-0.9181,-0.9383,-0.8845,-0.8231,-0.7911,-0.7122,-0.6388,-0.6076,-0.6291,0.0,-0.6165,-0.546,0.0,0.0,0.0,0.0,-0.3406,-0.329,-0.323,0.0,-0.323,0.0,-0.323,-0.323,-0.323,-0.323,-0.3255,-0.327,-0.327,-0.3328,-0.3372,-0.3398,-0.3462,-0.351,-0.3537,-0.3571,-0.3587,-0.3587,-0.3587,-0.3587,-0.3587,-0.3587,-0.3587,-0.3587,-0.3587,-0.3923,-0.4369,-0.3811,-0.3923,-0.4369,-0.3811,-0.3587,-0.3587,-0.3587,-0.3587,-0.3587,0.0,0.0,0.0,0.0,0.0,0.0,0.0,0.0,0.0,0.0,0.0,0.0,0.0,0.0,0.0,0.0,0.0,0.0,0.0,0.0,0.0,-0.6576,-0.6765,-0.6875,-0.6913,-0.7054,-0.7324,-0.7653,0.0,-0.7502,-0.7836,-0.7317,-0.705,-0.7086,-0.7038,-0.699,-0.699,-0.6503,-0.6342,-0.6315,-0.5751,-0.56,-0.5601,0.0,0.0,0.0,0.0,0.0,0.0,0.0,-0.6393,-0.6686,-0.7106,-0.7527,-0.7878,-0.8148,-0.833,-0.8604,-0.9165,-0.9333,-0.9473,-0.9789,-0.9568,-0.9128,-0.8727,-0.8143,-0.7526,-0.717,0.0,-0.6766,-0.6749,-0.5605,-0.4956,-0.5563,0.0,-0.312,-0.367,-0.3476,-0.3221,-0.323,-0.323,-0.323,-0.323,-0.323,-0.323,-0.323,-0.3288,-0.3322,-0.3322,-0.3387,-0.345,-0.3507,-0.3508,-0.3534,-0.3587,-0.3587,-0.3587,-0.3587,-0.3811,-0.3811,-0.3587,-0.3921,-0.4033,-0.381,-0.4033,-0.459,-0.5371,-0.4479,-0.459,-0.526,-0.4257,-0.3921,-0.4033,-0.3698,-0.3699,-0.3811,0.0,0.0,0.0,0.0,0.0,0.0,0.0,0.0,0.0,0.0,-0.5803,-0.5844,0.0,0.0,0.0,0.0,0.0,0.0,0.0,0.0,0.0,-0.6435,-0.6511,-0.6677,-0.6913,-0.6936,0.0,0.0,0.0,0.0,-0.8096,-0.7528,-0.7373,-0.7652,-0.7182,-0.699,-0.699,-0.6503,-0.644,-0.6545,-0.5712,-0.5464,-0.5689,-0.5646,0.0,0.0,0.0,0.0,0.0,0.0,-0.688,-0.7121,-0.7541,-0.7892,-0.8088,-0.849,-0.875,-0.8959,-0.9237,-0.96,-0.978,-0.9482,-0.9252,-0.8867,-0.8307,-0.784,0.0,0.0,-0.6671,-0.652,-0.6318,-0.5839,-0.5242,-0.4781,0.0,0.0,0.0,0.0,-0.3174,0.0,0.0,0.0,-0.323,-0.323,0.0,-0.323,-0.3288,-0.3322,-0.3322,-0.3424,-0.351,-0.357,-0.3571,-0.3576,-0.3587,-0.3587,-0.3587,-0.3587,-0.4592,-0.459,-0.3699,-0.5586,-0.6033,-0.5148,-0.6033,-0.6033,-0.5483,-0.6144,-0.6033,-0.5371,-0.5148,-0.5701,-0.6253,-0.4367,-0.4257,-0.4925,0.0,0.0,0.0,0.0,0.0,0.0,0.0,-0.5586,-0.5853,-0.634,-0.6504,-0.6572,-0.657,-0.6395,-0.6315,0.0,0.0,0.0,0.0,0.0,0.0,0.0,0.0,-0.6251,0.0,0.0,0.0,0.0,0.0,0.0,0.0,0.0,0.0,0.0,0.0,0.0,0.0,-0.6853,-0.66,0.0,0.0,0.0,0.0,0.0,0.0,0.0,0.0,0.0,0.0,0.0,-0.6648,-0.7092,-0.7617,-0.7995,-0.8319,-0.8616,-0.8922,-0.921,-0.9424,-0.9709,-0.9904,-0.9531,-0.925,-0.8782,-0.8082,0.0,0.0,0.0,-0.6393,-0.629,-0.6192,0.0,0.0,0.0,0.0,0.0,0.0,0.0,0.0,0.0,0.0,0.0,0.0,-0.3432,-0.3531,-0.323,-0.3288,-0.3335,-0.3367,-0.348,-0.3557,-0.3587,-0.3587,-0.3923,-0.448,-0.3923,-0.4255,-0.5477,-0.5369,-0.5369,-0.5477,-0.6584,-0.6808,-0.6366,-0.6919,-0.7143,-0.7257,-0.7141,-0.7143,-0.7146,-0.6478,-0.6586,-0.6916,-0.5808,-0.581,-0.6144,0.0,0.0,0.0,0.0,0.0,0.0,0.0,-0.6119,-0.6464,-0.6971,-0.7191,-0.7247,-0.708,-0.6666,-0.6363,0.0,0.0,0.0,0.0,0.0,0.0,0.0,0.0,0.0,0.0,0.0,0.0,0.0,0.0,0.0,0.0,0.0,0.0,0.0,0.0,0.0,0.0,0.0,0.0,0.0,0.0,0.0,0.0,0.0,0.0,0.0,0.0,0.0,0.0,0.0,-0.6275,-0.6702,-0.7385,-0.79,-0.8316,-0.8566,-0.8902,-0.9247,-0.9507,-0.9729,-0.9823,-0.9573,-0.9233,-0.8737,-0.7905,-0.7395,0.0,0.0,-0.6178,-0.6178,-0.6178,0.0,0.0,0.0,0.0,0.0,0.0,0.0,0.0,0.0,0.0,0.0,-0.3531,-0.3831,0.0,-0.343,-0.349,-0.3561,-0.3427,-0.3737,-0.4018,-0.4033,-0.4255,-0.4812,-0.5704,-0.4812,-0.5254,-0.7138,-0.6478,-0.648,-0.7138,-0.7584,-0.7695,-0.7473,-0.7805,-0.8251,-0.8809,-0.814,-0.8251,-0.8809,-0.7808,-0.7695,-0.7802,-0.7249,-0.7249,-0.7362,0.0,0.0,0.0,0.0,0.0,0.0,0.0,-0.6212,-0.6726,-0.7904,-0.7616,-0.744,-0.7861,-0.7205,-0.6633,0.0,0.0,0.0,0.0,0.0,0.0,0.0,0.0,0.0,0.0,0.0,0.0,0.0,0.0,0.0,0.0,0.0,0.0,0.0,0.0,0.0,0.0,0.0,0.0,0.0,0.0,0.0,0.0,0.0,0.0,0.0,0.0,0.0,0.0,0.0,0.0,-0.6105,-0.6679,-0.7352,-0.7914,-0.8311,0.0,0.0,-0.9242,-0.9511,-0.9578,-0.9181,-0.8907,-0.8519,-0.7697,0.0,0.0,-0.6267,-0.6178,-0.6178,-0.6178,-0.6295,-0.6215,0.0,0.0,-0.5764,0.0,0.0,0.0,0.0,0.0,0.0,-0.4634,-0.4234,-0.3932,-0.3932,-0.4404,-0.4411,-0.3482,-0.4586,-0.5176,-0.5256,-0.6255,-0.6805,-0.6919,-0.6805,-0.6916,-0.7138,-0.8143,-0.8029,-0.7138,-0.9357,-0.9805,-0.8809,-0.9915,-0.9805,-0.8923,-0.9915,-0.9805,-0.892,-0.8809,-0.9364,-1.0135,-0.7916,-0.7805,-0.8589,0.0,0.0,0.0,0.0,0.0,0.0,-0.6417,-0.6335,-0.6592,-0.7744,-0.7464,-0.7282,-0.7567,-0.7123,-0.6665,-0.6346,0.0,0.0,0.0,0.0,0.0,0.0,0.0,0.0,0.0,0.0,0.0,0.0,0.0,0.0,0.0,0.0,0.0,0.0,0.0,0.0,0.0,0.0,0.0,0.0,0.0,0.0,0.0,0.0,0.0,0.0,0.0,0.0,0.0,0.0,0.0,0.0,-0.5873,-0.6341,0.0,0.0,-0.816,-0.8585,-0.8869,-0.9195,-0.9384,-0.9096,-0.877,-0.834,-0.764,0.0,-0.6674,-0.6262,-0.6178,-0.6178,-0.6178,-0.6239,-0.6299,-0.6169,-0.5848,-0.5708,-0.6056,0.0,0.0,0.0,0.0,0.0,0.0,0.0,-0.4533,-0.473,-0.5665,-0.6157,-0.5789,-0.6177,-0.6266,-0.6272,-0.6926,-0.7509,-0.814,-0.7473,-0.7805,-0.9247,-0.903,-0.903,-0.9247,-1.0245,-1.0468,-1.0025,-1.0468,-1.0472,-1.0025,-1.0468,-1.0472,-1.0029,-1.0029,-1.0249,-1.0582,-0.9581,-0.9581,-0.9805,0.0,0.0,0.0,0.0,0.0,-0.5753,-0.6489,-0.6425,-0.6674,-0.7719,-0.7515,-0.7387,-0.7606,-0.7132,-0.6713,-0.6459,-0.6339,0.0,0.0,0.0,0.0,0.0,0.0,0.0,0.0,0.0,0.0,0.0,0.0,0.0,0.0,0.0,0.0,0.0,0.0,0.0,0.0,0.0,0.0,0.0,0.0,0.0,0.0,0.0,0.0,0.0,0.0,0.0,0.0,0.0,0.0,0.0,0.0,0.0,0.0,0.0,-0.7631,-0.8179,-0.8444,-0.8822,-0.9091,-0.8888,-0.8571,-0.8146,0.0,-0.7059,-0.6599,-0.6248,-0.6178,-0.6178,-0.6178,-0.6178,-0.6243,-0.644,-0.6102,-0.6038,-0.6838,-0.6215,0.0,0.0,0.0,-0.6194,0.0,-0.5399,-0.5532,-0.5729,-0.6921,-0.7659,-0.7753,-0.7958,-0.7916,-0.7498,-0.8047,-0.8659,-0.9471,-0.8582,-0.9023,-1.0692,-0.9805,-0.9919,-1.0692,-1.0692,-1.0692,-1.0692,-1.0692,-1.0692,-1.0692,-1.0692,-1.0692,-1.0692,-1.0692,-1.0692,-1.0692,-1.0692,-1.066,-1.0506,0.0,0.0,0.0,0.0,0.0,0.0,-0.6034,-0.651,-0.7131,-0.8073,-0.7973,-0.793,-0.8356,-0.745,-0.6808,-0.6808,-0.6482,0.0,0.0,0.0,0.0,0.0,0.0,0.0,0.0,0.0,-0.6848,-0.6702,-0.7357,0.0,0.0,0.0,0.0,0.0,0.0,0.0,0.0,0.0,0.0,0.0,0.0,0.0,0.0,0.0,0.0,0.0,0.0,0.0,0.0,0.0,0.0,0.0,0.0,0.0,0.0,0.0,-0.6984,-0.7621,-0.7971,-0.8392,-0.8661,-0.8458,-0.8245,-0.7919,0.0,-0.6837,-0.6417,-0.622,-0.6178,-0.6178,-0.6178,-0.6178,-0.6243,-0.644,-0.688,-0.7113,-0.7016,-0.7015,0.0,0.0,0.0,-0.7044,-0.7007,-0.6878,-0.6927,-0.7123,-0.8212,-0.8806,-0.881,-1.001,-1.0163,-0.8994,-1.0095,-1.0729,-1.0688,-1.0692,-1.0692,-1.0692,-1.0692,-1.0692,-1.0692,-1.0692,-1.0692,-1.0692,-1.0692,-1.0692,-1.0692,-1.0692,-1.0692,-1.0692,-1.0692,-1.0692,-1.0692,-1.0692,-1.0586,-1.0436,0.0,0.0,0.0,0.0,0.0,0.0,0.0,-0.5982,-0.6145,-0.682,-0.6582,-0.6491,-0.6789,-0.6525,-0.637,-0.6458,-0.6347,0.0,0.0,0.0,0.0,0.0,0.0,0.0,0.0,0.0,-0.6775,-0.6848,-0.743,-0.7545,-0.7238,0.0,0.0,0.0,0.0,0.0,0.0,0.0,0.0,0.0,0.0,0.0,0.0,0.0,0.0,0.0,0.0,0.0,0.0,0.0,0.0,0.0,0.0,0.0,0.0,-0.5642,0.0,0.0,-0.7376,-0.7645,-0.7839,-0.7787,-0.7612,-0.7362,-0.7026,-0.6733,-0.6417,-0.622,-0.6178,-0.6178,-0.6178,-0.6178,-0.629,-0.6637,-0.6801,-0.7042,0.0,0.0,0.0,0.0,-0.6888,-0.6666,0.0,-0.7674,-0.8319,-0.8506,-0.9698,-1.04,-1.04,-1.0797,-1.0753,-1.0149,-1.0681,-1.088,-1.0644,-1.0644,-1.0543,-1.0331,-1.0456,-1.0517,-1.0521,-1.0639,-1.0692,-1.0692,-1.0692,-1.0692,-1.0692,-1.0692,-1.0692,-1.0692,-1.0692,-1.0619,-1.0517,-1.0517,-1.0404,-1.0249,0.0,0.0,0.0,0.0,0.0,0.0,0.0,-0.5795,-0.5848,-0.6182,-0.6048,-0.6011,-0.6212,-0.6025,-0.5976,-0.6275,-0.6187,0.0,0.0,0.0,0.0,0.0,0.0,0.0,0.0,-0.6428,-0.6709,-0.6996,-0.7294,-0.7349,-0.7188,-0.6972,-0.6613,0.0,0.0,0.0,0.0,0.0,0.0,0.0,0.0,0.0,0.0,0.0,0.0,0.0,0.0,0.0,0.0,0.0,0.0,0.0,0.0,0.0,0.0,0.0,-0.5807,-0.6407,0.0,-0.7125,-0.7412,-0.7357,-0.7201,-0.6988,-0.6721,-0.651,-0.6328,-0.6201,-0.6178,-0.6178,-0.6178,-0.6178,-0.6262,-0.652,-0.6693,0.0,0.0,0.0,0.0,0.0,0.0,0.0,0.0,-0.8886,-0.9414,-0.9895,-1.0694,-1.1194,-1.1194,-1.1194,-1.1063,-1.0893,-1.1075,-1.1003,-1.0677,-1.0677,-1.0677,-1.0473,-1.0485,-1.0437,-1.0445,-1.0513,-1.0595,-1.0595,-1.0595,-1.0595,0.0,-1.0521,-1.0493,-1.0493,-1.0493,-1.0428,-1.0331,-1.0331,-1.0217,-1.0059,0.0,0.0,0.0,0.0,0.0,0.0,0.0,-0.5827,-0.6044,-0.6044,-0.6153,-0.6263,-0.6367,-0.5822,-0.5671,-0.6179,0.0,0.0,0.0,0.0,0.0,0.0,0.0,0.0,-0.592,-0.6248,-0.6684,-0.7192,-0.7031,-0.7121,-0.7424,-0.6902,-0.632,-0.5669,-0.5412,0.0,0.0,0.0,0.0,0.0,0.0,0.0,0.0,0.0,0.0,0.0,0.0,0.0,0.0,0.0,0.0,0.0,0.0,0.0,0.0,0.0,0.0,0.0,0.0,-0.6738,0.0,-0.7126,-0.6927,-0.6679,-0.6496,-0.6309,0.0,-0.6178,-0.6178,-0.6182,-0.6192,-0.6187,-0.6192,-0.6289,-0.6576,0.0,0.0,0.0,0.0,0.0,-0.8552,0.0,-1.0705,-1.0307,-1.0314,-1.11,-1.1194,-1.1194,-1.1194,-1.1194,-1.1194,-1.1194,-1.1093,-1.1074,-1.0841,-1.0841,-1.0841,-1.0841,-1.0651,-1.0556,-1.0564,-1.0437,-1.0416,-1.0416,-1.0416,-1.0416,-1.04,-1.0233,-1.016,-1.016,-1.016,-1.0152,-1.0144,-1.0144,-1.0026,-0.9864,0.0,0.0,0.0,0.0,0.0,0.0,0.0,0.0,0.0,0.0,-0.5492,-0.5323,-0.5214,-0.5145,-0.5208,0.0,0.0,0.0,0.0,0.0,0.0,0.0,0.0,0.0,-0.5967,-0.6404,-0.6731,-0.6959,-0.7113,-0.7077,-0.689,-0.6526,-0.6013,-0.5389,-0.534,-0.5168,0.0,0.0,0.0,0.0,0.0,0.0,0.0,0.0,0.0,0.0,0.0,-0.489,0.0,0.0,0.0,0.0,0.0,0.0,0.0,0.0,-0.5202,-0.5391,-0.5542,0.0,-0.601,-0.6161,-0.6166,-0.6161,0.0,-0.6211,-0.6178,0.0,0.0,0.0,0.0,0.0,0.0,0.0,0.0,0.0,0.0,0.0,0.0,-0.876,-0.8784,-0.9116,-1.0147,-1.0092,-1.0314,-1.11,-1.1194,-1.1194,-1.1194,-1.1194,-1.1194,-1.1194,-1.1147,-1.1095,-1.0843,-1.0843,-1.0744,-1.0549,-1.0602,-1.0574,-1.0378,-1.0456,-1.0435,-1.0229,-1.0229,-1.0229,-1.0221,-1.018,-1.016,-1.016,-1.016,-1.0075,-0.9949,-0.9949,-0.9839,-0.9689,0.0,0.0,0.0,0.0,0.0,0.0,0.0,0.0,0.0,0.0,0.0,0.0,0.0,0.0,0.0,0.0,0.0,0.0,0.0,0.0,0.0,0.0,0.0,-0.6067,-0.599,-0.6439,-0.6701,-0.6807,-0.6822,-0.6765,-0.6608,-0.6102,-0.5627,-0.5283,-0.5188,-0.5089,0.0,0.0,0.0,0.0,0.0,0.0,0.0,0.0,0.0,0.0,-0.4714,-0.4822,0.0,-0.4995,-0.5159,-0.529,0.0,0.0,0.0,0.0,-0.5154,-0.5281,-0.5195,-0.5439,-0.5774,-0.5883,-0.5982,-0.6086,-0.615,0.0,0.0,0.0,0.0,0.0,0.0,0.0,0.0,0.0,0.0,0.0,0.0,0.0,0.0,-0.9249,-0.9324,-0.962,-1.0511,-1.0507,-1.0708,-1.1194,-1.1194,-1.1194,-1.1194,-1.1194,-1.1194,-1.1194,-1.1194,-1.1096,-1.0998,-1.0998,-1.09,-1.0806,-1.0721,-1.0675,-1.048,-1.0472,-1.0351,-1.0248,-1.0141,-1.0034,-1.0026,-0.9949,-0.9916,-0.9916,-0.9916,-0.9855,-0.9766,-0.9766,-0.9705,-0.9628,0.0,0.0,0.0,0.0,0.0,0.0,0.0,0.0,0.0,0.0,0.0,0.0,0.0,0.0,0.0,0.0,0.0,0.0,0.0,0.0,0.0,0.0,0.0,-0.6129,-0.6003,-0.6441,-0.6629,-0.6639,-0.6458,-0.6423,-0.6466,-0.5768,-0.5443,-0.5372,-0.5133,-0.5029,0.0,0.0,0.0,0.0,0.0,0.0,0.0,0.0,0.0,0.0,0.0,0.0,0.0,-0.4962,-0.5303,-0.5636,-0.5159,0.0,0.0,0.0,0.0,0.0,-0.5154,-0.5486,-0.591,-0.5864,-0.6024,-0.6136,0.0,0.0,0.0,0.0,0.0,0.0,0.0,0.0,0.0,0.0,0.0,0.0,0.0,0.0,-0.8862,-1.0053,-1.0216,-1.0413,-1.1096,-1.1194,-1.1194,-1.1194,-1.1194,-1.1194,-1.1194,-1.1194,-1.1194,-1.1194,-1.1194,-1.1194,-1.1194,-1.1194,-1.1194,-1.1194,-1.0998,-1.0801,-1.0811,-1.0488,-1.0365,-1.0264,-1.0049,-0.9944,-0.9932,-0.9784,-0.9628,-0.9628,-0.9628,-0.9628,-0.9628,-0.9628,-0.9628,-0.9628,0.0,0.0,0.0,0.0,0.0,0.0,0.0,0.0,0.0,0.0,0.0,0.0,0.0,0.0,0.0,0.0,0.0,0.0,0.0,0.0,0.0,-0.6284,-0.6238,-0.6142,-0.6015,-0.6567,-0.6656,-0.6263,-0.6708,-0.6723,-0.632,-0.6137,-0.5948,-0.578,-0.5375,-0.5198,-0.5231,0.0,0.0,0.0,0.0,0.0,0.0,0.0,0.0,0.0,0.0,0.0,0.0,-0.4784,-0.5171,-0.5636,-0.5159,0.0,0.0,0.0,0.0,0.0,-0.5555,-0.5676,-0.5849,-0.5705,-0.5807,-0.6006,-0.6136,0.0,0.0,0.0,0.0,0.0,0.0,0.0,0.0,0.0,0.0,-0.8471,0.0,0.0,-0.9844,-1.0849,-1.1002,-1.1096,-1.1194,-1.1194,-1.1194,-1.1194,-1.1194,-1.1194,-1.1194,-1.1194,-1.1194,-1.1194,-1.1194,-1.1194,-1.1194,-1.1194,-1.1194,-1.1194,-1.1194,-1.1002,-1.0806,-1.0739,-1.0555,-1.0358,-1.0358,-1.0353,-1.0255,-1.0031,-0.9924,-0.992,-0.9727,-0.9628,-0.9628,-0.9628,-0.9628,-0.9628,0.0,0.0,0.0,0.0,0.0,0.0,0.0,0.0,0.0,0.0,0.0,0.0,0.0,0.0,0.0,0.0,0.0,0.0,0.0,0.0,-0.6363,-0.6562,-0.6376,-0.6216,-0.6161,-0.6891,-0.6909,-0.6115,-0.6951,-0.6921,-0.6062,-0.6054,-0.58,-0.5346,-0.5189,-0.5075,-0.5085,-0.4979,0.0,0.0,0.0,0.0,0.0,0.0,0.0,0.0,0.0,0.0,0.0,0.0,-0.5281,-0.5766,-0.5308,0.0,0.0,0.0,0.0,0.0,-0.5671,-0.5779,-0.5898,-0.58,-0.5982,-0.627,-0.6314,0.0,0.0,0.0,0.0,0.0,0.0,0.0,0.0,0.0,0.0,-0.9446,-1.0206,-1.0362,-1.0573,-1.1156,-1.1194,-1.1194,-1.1194,-1.1194,-1.1194,-1.1194,-1.1194,-1.1194,-1.1194,-1.1194,-1.1194,-1.1194,-1.1194,-1.1194,-1.1194,-1.1194,-1.1194,-1.1194,-1.1194,-1.11,-1.0998,-1.09,-1.0708,-1.0609,-1.0507,-1.0413,-1.0413,-1.0314,-1.0216,-1.0216,-0.992,-0.9826,-0.9826,-0.9628,-0.9628,-0.9628,0.0,0.0,0.0,0.0,0.0,0.0,0.0,0.0,0.0,0.0,0.0,0.0,0.0,0.0,0.0,0.0,0.0,0.0,0.0,0.0,-0.6316,-0.6567,-0.6461,-0.6363,-0.6342,-0.7152,-0.7065,-0.6044,-0.7158,-0.7241,-0.6211,-0.6297,-0.598,-0.5343,-0.5324,-0.5252,-0.5147,-0.5049,-0.5047,0.0,0.0,0.0,0.0,0.0,0.0,0.0,0.0,0.0,0.0,0.0,0.0,0.0,0.0,0.0,0.0,-0.5895,-0.5938,-0.6079,-0.5875,-0.5923,-0.6005,-0.6061,0.0,-0.6431,-0.6524,0.0,0.0,0.0,0.0,0.0,0.0,0.0,0.0,-0.8737,-0.9549,-1.0154,-1.0319,-1.0702,-1.1023,-1.1179,-1.1194,-1.1194,-1.1194,-1.1194,-1.1194,-1.1194,-1.1194,-1.1194,-1.1194,-1.1194,-1.1194,-1.1194,-1.1194,-1.1194,-1.1194,-1.1194,-1.1194,-1.1194,-1.1194,-1.1194,-1.1194,-1.0998,-1.0904,-1.09,-1.0703,-1.0605,-1.0605,-1.0511,-1.0511,-1.0511,-1.0216,-1.0117,-1.0019,-0.9821,-0.9727,-0.9727,0.0,0.0,0.0,0.0,0.0,0.0,0.0,0.0,0.0,0.0,0.0,0.0,0.0,0.0,0.0,0.0,0.0,0.0,0.0,0.0,-0.5884,-0.5967,-0.6342,-0.6554,-0.65,-0.7153,-0.7042,-0.6094,-0.7303,-0.7621,-0.7127,-0.7464,-0.7317,-0.6651,-0.6412,-0.6175,-0.5861,-0.5186,-0.5308,-0.5847,0.0,0.0,0.0,0.0,0.0,0.0,0.0,0.0,0.0,0.0,0.0,0.0,0.0,0.0,-0.6325,-0.6067,-0.6153,-0.6335,-0.6299,-0.628,-0.6341,-0.6603,0.0,0.0,-0.6684,-0.6782,0.0,-0.7338,0.0,0.0,0.0,-0.8368,-0.8992,-0.9237,-0.9979,-1.0532,-1.0546,-1.091,-1.1179,-1.1194,-1.1194,-1.1194,-1.1194,-1.1194,-1.1194,-1.1194,-1.1194,-1.1194,-1.1194,-1.1194,-1.1194,-1.1194,-1.1194,-1.1194,-1.1194,-1.1194,-1.1194,-1.1194,-1.1194,-1.1194,-1.1194,-1.1194,-1.1194,-1.1194,-1.1194,-1.1096,-1.1096,-1.09,-1.0806,-1.0703,-1.0511,-1.0413,-1.0314,-1.0117,-0.992,-0.992,0.0,0.0,0.0,0.0,0.0,0.0,0.0,0.0,0.0,0.0,0.0,0.0,0.0,0.0,0.0,0.0,0.0,0.0,0.0,-0.5417,-0.571,-0.6076,-0.6149,-0.6068,-0.5882,-0.7369,-0.7792,-0.7091,-0.7585,-0.7654,-0.7285,-0.7396,-0.7192,-0.6673,-0.662,-0.6406,-0.6022,-0.562,-0.5473,-0.545,-0.4981,0.0,0.0,0.0,0.0,0.0,0.0,0.0,0.0,0.0,-0.5383,-0.5728,-0.5673,-0.5973,-0.6367,-0.6282,-0.6325,-0.6349,-0.6177,-0.6285,-0.6484,-0.6525,0.0,0.0,0.0,-0.737,-0.7546,-0.7962,-0.8151,0.0,0.0,0.0,-0.9091,-0.9289,-1.0027,-1.0575,-1.0575,-1.0934,-1.1194,-1.1194,-1.1194,-1.1194,-1.1194,-1.1194,-1.1194,-1.1194,-1.1194,-1.1194,-1.1194,-1.1194,-1.1194,-1.1194,-1.1194,-1.1194,-1.1194,-1.1194,-1.1194,-1.1194,-1.1194,-1.1194,-1.1194,-1.1194,-1.1194,-1.1194,-1.1194,-1.1194,-1.1194,-1.1096,-1.1096,-1.0998,-1.0703,-1.0413,-1.0117,-1.0019,-0.9924,-0.9727,0.0,0.0,0.0,0.0,0.0,0.0,0.0,0.0,0.0,0.0,0.0,0.0,0.0,0.0,0.0,0.0,0.0,0.0,-0.5029,-0.5227,-0.553,-0.5934,-0.6072,-0.6013,-0.5763,-0.7498,-0.806,-0.7296,-0.7866,-0.7953,-0.7616,-0.7729,-0.744,-0.6823,-0.6855,-0.6681,-0.6286,-0.5937,-0.5731,-0.5664,-0.5213,-0.5196,0.0,0.0,0.0,0.0,0.0,0.0,0.0,0.0,-0.5336,-0.5615,-0.5826,-0.6184,-0.6546,-0.6556,-0.6551,-0.6445,-0.6177,-0.6292,-0.6503,0.0,0.0,0.0,0.0,-0.7821,-0.8014,-0.85,-0.8708,0.0,0.0,0.0,0.0,0.0,-1.0069,-1.0575,-1.0575,-1.0934,-1.1194,-1.1194,-1.1194,-1.1194,-1.1194,-1.1194,-1.1194,-1.1194,-1.1194,-1.1194,-1.1194,-1.1194,-1.1194,-1.1194,-1.1194,-1.1194,-1.1194,-1.1194,-1.1194,-1.1194,-1.1194,-1.1194,-1.1194,-1.1194,-1.1194,-1.1194,-1.1194,-1.1194,-1.1194,-1.1194,-1.1194,-1.1194,-1.0998,-1.0703,-1.0314,-1.0216,-1.0019,-0.9821,0.0,0.0,0.0,0.0,0.0,0.0,0.0,0.0,0.0,0.0,0.0,0.0,0.0,0.0,0.0,0.0,0.0,0.0,-0.4672,-0.5021,-0.5265,-0.5375,-0.6159,-0.6483,-0.6309,-0.7519,-0.7655,-0.6532,-0.8025,-0.8632,-0.8312,-0.8715,-0.8341,-0.7331,-0.7331,-0.7107,-0.6738,-0.6013,-0.6124,-0.6701,-0.5716,-0.5549,0.0,0.0,0.0,0.0,0.0,0.0,0.0,0.0,-0.534,-0.5615,-0.6304,-0.6639,-0.6806,-0.6871,-0.6843,-0.6736,-0.6378,-0.632,0.0,0.0,0.0,0.0,0.0,-0.8146,-0.8264,-0.8902,0.0,-0.9091,-0.9289,-0.9327,0.0,-0.9527,-1.0168,-1.057,-1.057,-1.0924,-1.1189,-1.1194,-1.1194,-1.1194,-1.1194,-1.1194,-1.1194,-1.1194,-1.1194,-1.1194,-1.1194,-1.1194,-1.1194,-1.1194,-1.1194,-1.1194,-1.1194,-1.1194,-1.1194,-1.1194,-1.1194,-1.1194,-1.1194,-1.1194,-1.1194,-1.1194,-1.1194,-1.1194,-1.1194,-1.1194,-1.1194,-1.1194,-1.1194,-1.1194,-1.1096,-1.0609,-1.0413,-1.0314,0.0,0.0,0.0,0.0,0.0,0.0,0.0,0.0,0.0,0.0,0.0,0.0,0.0,0.0,0.0,0.0,0.0,0.0,-0.4672,-0.4609,-0.4755,-0.5168,-0.5561,-0.5705,-0.5591,-0.6468,-0.7314,-0.8105,-0.8384,-0.8453,-0.8305,-0.8167,-0.8094,-0.8085,-0.8085,-0.7732,-0.7122,-0.6724,-0.6536,-0.6477,-0.5978,-0.5967,0.0,0.0,0.0,0.0,0.0,0.0,0.0,0.0,0.0,0.0,-0.6276,-0.6802,-0.721,-0.7266,-0.7248,-0.716,-0.6793,0.0,0.0,0.0,0.0,0.0,0.0,-0.8263,0.0,0.0,-0.9563,-0.9478,-0.954,-0.9549,-0.9573,-0.955,-1.005,-1.0362,-1.0362,-1.0589,-1.0816,-1.0967,-1.0986,-1.1042,-1.1184,-1.1194,-1.1194,-1.1194,-1.1194,-1.1194,-1.1194,-1.1194,-1.1194,-1.1194,-1.1194,-1.1194,-1.1194,-1.1194,-1.1194,-1.1194,-1.1194,-1.1194,-1.1194,-1.1194,-1.1194,-1.1194,-1.1194,-1.1194,-1.1194,-1.1194,-1.1194,-1.1194,-1.1194,-1.1096,-1.09,-1.0511,-1.0314,-1.0117,0.0,0.0,0.0,0.0,0.0,0.0,0.0,0.0,0.0,0.0,0.0,0.0,0.0,0.0,0.0,0.0,0.0,0.0,0.0,-0.461,-0.4801,-0.5118,-0.555,-0.5801,-0.5906,-0.6447,-0.7212,-0.8192,-0.8031,-0.8007,-0.8078,-0.7913,-0.7945,-0.8209,-0.8209,-0.7845,-0.727,-0.7115,-0.6959,-0.6745,-0.6589,-0.6537,-0.6558,0.0,0.0,0.0,0.0,0.0,0.0,0.0,0.0,0.0,-0.6299,-0.6738,-0.7175,-0.7183,-0.7154,-0.7069,-0.6766,0.0,0.0,0.0,0.0,0.0,0.0,0.0,0.0,0.0,0.0,-0.9672,-0.9752,-0.97,-0.9672,-0.9752,-1.005,-1.0272,-1.0272,-1.0447,-1.0622,-1.0754,-1.0768,-1.0849,-1.1057,-1.1075,-1.1109,-1.1189,-1.1194,-1.1194,-1.1194,-1.1194,-1.1194,-1.1194,-1.1194,-1.1194,-1.1194,-1.1194,-1.1194,-1.1194,-1.1194,-1.1194,-1.1194,-1.1194,-1.1194,-1.1194,-1.1194,-1.1194,-1.1194,-1.1194,-1.1194,-1.1194,-1.1194,-1.1096,-1.09,-1.0511,-1.0314,-1.0117,0.0,0.0,0.0,0.0,0.0,0.0,0.0,0.0,0.0,0.0,0.0,0.0,0.0,0.0,0.0,0.0,0.0,0.0,0.0,0.0,-0.518,-0.5211,-0.5926,-0.649,-0.6848,-0.7118,-0.7253,-0.7253,-0.7253,-0.7452,-0.7794,-0.7755,-0.7835,-0.7961,-0.7961,-0.7709,-0.7317,-0.7317,-0.7273,-0.7253,-0.7253,-0.7078,-0.6808,-0.6808,0.0,0.0,0.0,0.0,0.0,0.0,0.0,0.0,-0.6344,-0.6615,-0.6839,-0.6868,-0.6861,-0.6798,-0.6518,0.0,0.0,0.0,0.0,0.0,0.0,0.0,-0.9445,-0.9861,0.0,-0.9729,-0.9918,-0.98,-0.9734,-0.9923,-1.0116,-1.0244,-1.0244,-1.04,-1.0523,-1.0542,-1.0546,-1.0631,-1.0844,-1.0868,-1.0943,-1.1127,-1.1137,-1.1137,-1.1137,-1.1137,-1.1146,-1.1165,-1.1165,-1.1179,-1.1194,-1.1194,-1.1194,-1.1194,-1.1194,-1.1194,-1.1194,-1.1194,-1.1194,-1.1194,-1.1194,-1.1194,-1.1194,-1.1194,-1.1194,-1.1194,-1.1194,-1.1194,-1.11,-1.0605,-1.0413,-1.0314,0.0,0.0,0.0,0.0,0.0,0.0,0.0,0.0,0.0,0.0,0.0,0.0,0.0,0.0,0.0,0.0,0.0,0.0,0.0,0.0,-0.4933,-0.5195,-0.6165,-0.6848,-0.7189,-0.7015,-0.6919,-0.6919,-0.6919,-0.7229,-0.7787,-0.7547,-0.7723,-0.8291,-0.8291,-0.7937,-0.7303,-0.7303,-0.715,-0.6919,-0.6919,-0.6872,-0.6808,-0.6808,-0.6594,0.0,0.0,0.0,0.0,0.0,0.0,0.0,-0.6598,-0.6949,-0.7257,-0.7525,-0.7419,-0.7205,0.0,-0.7006,0.0,0.0,0.0,0.0,0.0,0.0,-0.9445,-0.9861,-0.9918,-0.9899,-1.0028,-0.9918,-0.9899,-1.0028,-1.0081,-1.0022,-1.0022,-1.006,-1.0149,-1.0319,-1.0338,-1.0419,-1.0622,-1.0641,-1.066,-1.0702,-1.0707,-1.0707,-1.0707,-1.0707,-1.0783,-1.0957,-1.0962,-1.1038,-1.1194,-1.1194,-1.1194,-1.1194,-1.1194,-1.1194,-1.1194,-1.1194,-1.1194,-1.1194,-1.1194,-1.1194,-1.1194,-1.1194,-1.1194,-1.1194,-1.1194,-1.1194,-1.1194,-1.0801,-1.0703,-1.0703,0.0,0.0,0.0,0.0,0.0,0.0,0.0,0.0,0.0,0.0,0.0,0.0,0.0,0.0,0.0,0.0,0.0,0.0,0.0,-0.4663,-0.518,-0.5696,-0.6419,-0.6808,-0.6816,-0.6808,-0.6729,-0.6562,-0.6562,-0.6903,-0.7579,-0.7738,-0.8103,-0.8619,-0.8494,-0.8071,-0.7547,-0.7372,-0.711,-0.6824,-0.6983,-0.6951,-0.6808,-0.6808,-0.6594,-0.6315,-0.6315,0.0,0.0,0.0,0.0,0.0,0.0,0.0,-0.6844,-0.7018,-0.7185,-0.7297,0.0,0.0,0.0,0.0,0.0,0.0,0.0,0.0,-0.9271,-0.9587,-0.9809,-1.0038,-1.0038,-1.0038,-1.0038,-1.0038,-1.0038,-1.0038,-1.0038,-1.0038,-1.0081,-1.0107,-1.0121,-1.0201,-1.0409,-1.0433,-1.0471,-1.0565,-1.0575,-1.0575,-1.0575,-1.0575,-1.0627,-1.0735,-1.074,-1.0839,-1.1052,-1.1052,-1.1099,-1.1194,-1.1194,-1.1194,-1.1194,-1.1194,-1.1194,-1.1194,-1.1194,-1.1194,-1.1194,-1.1194,-1.1194,-1.1194,-1.1194,-1.1194,-1.1194,-1.0904,-1.0801,-1.0801,0.0,0.0,0.0,0.0,0.0,0.0,0.0,0.0,0.0,0.0,0.0,0.0,0.0,0.0,0.0,0.0,0.0,0.0,0.0,-0.483,-0.5529,-0.6283,-0.6617,-0.6697,-0.6466,-0.6689,-0.6665,-0.6371,-0.6371,-0.6721,0.0,-0.8,-0.8508,-0.8889,-0.8595,-0.8198,-0.7684,-0.7428,-0.7078,-0.6745,-0.7015,-0.6967,-0.6721,-0.6721,-0.6538,-0.6315,-0.6315,-0.6315,-0.6315,-0.6315,0.0,0.0,0.0,0.0,-0.6309,-0.637,-0.6796,-0.7139,0.0,0.0,0.0,0.0,0.0,0.0,0.0,0.0,-0.9072,-0.9237,-0.9606,-0.9899,-0.9899,-0.9927,-1.0038,-1.0038,-1.0038,-1.0038,-1.0038,-1.0038,-1.0038,-1.0038,-1.0038,-1.0109,-1.0201,-1.022,-1.0286,-1.0452,-1.0466,-1.0466,-1.0466,-1.0466,-1.0485,-1.0523,-1.0523,-1.0627,-1.0839,-1.0839,-1.0924,-1.109,-1.1127,-1.1142,-1.1146,-1.1179,-1.1194,-1.1194,-1.1194,-1.1194,-1.1194,-1.1194,-1.1194,-1.1194,-1.1194,-1.1194,-1.1194,-1.0998,-1.09,-1.0801,0.0,0.0,0.0,0.0,0.0,0.0,0.0,0.0,0.0,0.0,0.0,-0.4207,-0.4207,-0.4207,0.0,0.0,0.0,0.0,-0.4207,0.0,0.0,-0.6283,-0.6617,-0.6919,-0.7158,-0.6927,-0.6784,-0.6737,-0.6737,0.0,0.0,0.0,0.0,-0.8905,-0.8858,-0.8286,-0.7364,-0.7324,-0.6935,-0.6355,-0.6403,-0.6395,-0.6355,-0.6355,-0.6354,-0.6315,-0.6315,-0.6315,-0.6315,-0.6315,-0.6315,0.0,0.0,0.0,-0.6355,-0.6653,-0.6812,-0.6859,0.0,0.0,0.0,0.0,0.0,0.0,0.0,0.0,-0.903,0.0,-0.9393,-0.9686,-0.9686,-0.9833,-1.0038,-1.0038,-1.0038,-1.0038,-1.0038,-1.0038,-1.0038,-1.0038,-1.0038,-1.0052,-1.0081,-1.0081,-1.0095,-1.0119,-1.0119,-1.0119,-1.0119,-1.0119,-1.0121,-1.031,-1.0315,-1.0409,-1.0617,-1.0617,-1.0631,-1.066,-1.0849,-1.0934,-1.0943,-1.1113,-1.1194,-1.1194,-1.1194,-1.1194,-1.1194,-1.1194,-1.1194,-1.1194,-1.1194,-1.1194,-1.1194,-1.1194,-1.1194,-1.1096,0.0,0.0,0.0,0.0,0.0,0.0,0.0,0.0,0.0,0.0,0.0,-0.4362,-0.4362,-0.426,0.0,0.0,0.0,0.0,-0.4473,-0.4766,0.0,-0.5987,-0.6163,-0.6315,-0.6458,-0.6323,-0.6251,-0.6251,0.0,0.0,0.0,-0.8135,-0.8611,0.0,0.0,0.0,-0.7865,0.0,0.0,-0.6315,-0.6315,-0.6514,-0.6808,-0.6427,-0.6522,-0.6808,-0.645,-0.6315,-0.6315,-0.6315,-0.6411,-0.6538,-0.637,0.0,0.0,0.0,0.0,0.0,0.0,0.0,0.0,0.0,0.0,0.0,0.0,0.0,-0.8845,-0.8845,-0.9086,-0.9332,-0.9445,-0.9639,-0.9781,-0.9781,-0.9875,-1.0038,-1.0038,-1.0038,-1.0038,-1.0038,-1.0038,-1.0038,-1.0038,-1.0038,-1.0038,-1.0038,-1.0038,-1.0038,-1.0038,-1.0038,-1.0086,-1.0088,-1.0093,-1.0197,-1.0405,-1.0405,-1.0461,-1.0575,-1.0669,-1.0716,-1.0721,-1.0929,-1.109,-1.1194,-1.1194,-1.1194,-1.1194,-1.1194,-1.1194,-1.1194,-1.1194,-1.1194,-1.1194,-1.1194,-1.1194,-1.1194,0.0,0.0,0.0,0.0,0.0,0.0,0.0,0.0,0.0,0.0,0.0,0.0,-0.4435,0.0,0.0,0.0,0.0,0.0,-0.4568,0.0,0.0,0.0,0.0,-0.576,-0.5644,-0.5732,-0.5808,-0.5808,0.0,0.0,-0.8414,-0.8414,-0.8977,0.0,-0.943,-0.8874,0.0,0.0,0.0,0.0,-0.6538,-0.6848,-0.7269,-0.6943,-0.7134,-0.7483,-0.6784,-0.6538,-0.6514,0.0,-0.6459,-0.6633,-0.6363,-0.6459,0.0,0.0,0.0,0.0,0.0,0.0,0.0,0.0,0.0,0.0,0.0,0.0,-0.8939,0.0,-0.9063,-0.9149,-0.9303,-0.9384,-0.9582,-0.955,-0.9771,-0.9894,-1.0028,-1.0038,-1.0038,-1.0038,-1.0038,-1.0038,-1.0038,-1.0038,-1.0038,-1.0038,-1.0038,-1.0038,-1.0038,-1.0038,-1.0038,-1.0038,-1.0038,-1.0027,-1.0187,-1.0192,-1.0267,-1.0419,-1.0471,-1.0499,-1.0504,-1.0716,-1.0896,-1.1042,-1.1151,-1.1194,-1.1194,-1.1194,-1.1194,-1.1194,-1.1194,-1.1194,-1.1194,-1.1194,-1.1194,-1.1194,0.0,0.0,0.0,0.0,0.0,0.0,0.0,0.0,0.0,0.0,0.0,0.0,-0.4248,-0.4207,-0.4207,-0.4207,0.0,0.0,0.0,0.0,0.0,0.0,0.0,0.0,-0.5243,-0.5604,-0.5808,0.0,0.0,0.0,-0.8414,-0.8414,-0.9156,-1.0474,-1.0041,-0.931,-0.839,0.0,0.0,0.0,0.0,-0.7269,-0.7372,-0.8023,-0.8334,-0.8262,-0.7507,-0.7245,0.0,0.0,0.0,-0.6338,-0.6315,-0.6323,-0.6338,0.0,0.0,0.0,0.0,0.0,0.0,0.0,0.0,0.0,0.0,0.0,-0.9506,-0.9798,-0.9554,-0.9271,-0.9281,-0.931,-0.9408,-0.9531,-0.9573,-0.9729,-0.9923,-1.0038,-1.0038,-1.0038,-1.0038,-1.0038,-1.0038,-1.0038,-1.0038,-1.0038,-1.0038,-1.0038,-1.0038,-1.0038,-1.0038,-1.0038,-1.0038,-1.0043,-1.0057,-1.0057,-1.0062,-1.0071,-1.0192,-1.0291,-1.0296,-1.0499,-1.0594,-1.0627,-1.1023,-1.1194,-1.1194,-1.1194,-1.1194,-1.1194,-1.1194,-1.1194,-1.1194,-1.1194,-1.1194,-1.1194,0.0,0.0,0.0,0.0,0.0,0.0,0.0,0.0,0.0,0.0,0.0,0.0,0.0,-0.4675,-0.4524,-0.4394,-0.4281,0.0,0.0,0.0,0.0,0.0,0.0,0.0,0.0,-0.5227,0.0,0.0,0.0,-0.6077,-0.738,-0.7825,-0.854,-0.9469,-0.9549,-0.9374,-0.8977,-0.8174,0.0,0.0,0.0,-0.792,-0.8333,-0.8365,-0.8643,-0.8937,-0.8238,0.0,0.0,0.0,0.0,-0.7197,-0.676,-0.6768,-0.6848,-0.6442,0.0,0.0,0.0,0.0,0.0,0.0,0.0,-0.9315,-0.9533,-0.9855,-1.0314,-1.0634,-1.0615,-1.0381,-0.9948,-0.9476,-0.9157,-0.9233,-0.9356,-0.9511,-0.9724,-0.9757,-0.9804,-1.0024,-1.0038,-1.0038,-1.0038,-1.0554,-1.0809,-1.0809,-1.0809,-1.1063,-1.174,-1.0636,-1.0294,-1.0809,-1.0294,-1.0038,-1.0038,-1.0554,-1.0554,-1.0038,-1.0031,-1.0069,-1.0074,-1.0286,-1.0381,-1.0395,-1.0674,-1.0872,-1.1005,-1.1005,-1.1075,-1.1194,-1.1194,-1.1194,-1.1194,-1.1194,-1.1194,-1.1194,0.0,0.0,0.0,0.0,0.0,0.0,0.0,0.0,0.0,-0.5501,0.0,0.0,0.0,0.0,-0.5172,-0.4868,-0.4581,-0.4411,-0.4411,-0.4411,0.0,0.0,0.0,0.0,0.0,-0.5037,0.0,0.0,0.0,0.0,0.0,-0.7241,-0.7928,-0.8731,-0.8826,-0.9064,0.0,0.0,0.0,-0.8158,0.0,0.0,-0.908,-0.9207,-0.9461,-0.9684,0.0,0.0,0.0,0.0,0.0,0.0,-0.7197,-0.6967,-0.6872,-0.6442,-0.6689,0.0,-0.6962,0.0,0.0,0.0,0.0,-0.9569,-0.9784,-1.029,-1.0786,-1.1132,-1.1191,-1.1133,-1.076,-1.0137,-0.9473,-0.908,-0.9138,-0.9294,-0.9507,-0.9517,-0.9696,-0.9833,-1.0168,-1.0467,-1.0467,-1.1235,-1.1746,-1.1746,-1.1746,-1.1997,-1.2674,-1.1569,-1.1149,-1.1746,-1.123,-1.0722,-1.0467,-1.0982,-1.0895,-1.0038,-1.0038,-1.0038,-1.0043,-1.0102,-1.0164,-1.0173,-1.0305,-1.0565,-1.0896,-1.0896,-1.1014,-1.1194,-1.1194,-1.1194,-1.1194,-1.1194,-1.1194,-1.1194,0.0,0.0,0.0,0.0,0.0,0.0,0.0,0.0,-0.5539,-0.5369,0.0,0.0,0.0,0.0,0.0,-0.5601,-0.5119,-0.484,-0.4831,-0.4812,0.0,0.0,0.0,0.0,0.0,-0.5069,-0.5237,-0.5221,-0.4878,-0.5426,-0.6752,0.0,-0.734,-0.835,-0.7984,-0.8397,-0.935,0.0,-0.9175,-0.8945,0.0,-0.939,-0.9525,0.0,-1.0772,0.0,-1.0081,-0.9731,0.0,-0.8667,0.0,0.0,-0.7563,-0.6864,-0.6346,-0.6346,-0.657,0.0,0.0,0.0,0.0,0.0,0.0,0.0,-0.9953,0.0,-1.0961,-1.1279,-1.131,-1.1332,-1.1713,-1.1352,-1.051,-0.9247,-0.9089,-0.9161,-0.9366,-0.9493,-0.963,-0.9634,-1.066,-1.1305,-1.1305,-1.2145,-1.2735,-1.2735,-1.2735,-1.2735,-1.2735,-1.2735,-1.2741,-1.2662,-1.2747,-1.2248,-1.1327,-1.1322,-1.0895,-1.0038,-1.0038,-1.0038,-1.0038,-1.0038,-1.0038,-1.0038,-1.0038,-1.0305,-1.0877,-1.0877,-1.1,-1.1184,-1.1184,-1.1189,-1.1194,-1.1194,-1.1194,-1.1194,0.0,0.0,0.0,0.0,0.0,-0.5774,-0.5774,-0.5718,-0.5791,0.0,0.0,0.0,-0.6687,-0.6894,-0.6975,-0.682,-0.6247,-0.5734,-0.5411,-0.506,-0.4814,-0.4724,-0.5446,-0.5688,-0.529,-0.5947,-0.601,-0.5409,-0.5418,-0.5449,-0.5497,-0.6158,-0.6721,-0.7261,-0.7613,-0.7953,-0.8246,-0.7992,0.0,-0.9247,-0.9104,-0.9334,0.0,0.0,0.0,0.0,0.0,-1.0637,-1.0486,0.0,-0.9716,-0.9334,0.0,0.0,-0.7015,-0.7015,-0.7459,0.0,-0.742,0.0,0.0,0.0,0.0,0.0,0.0,0.0,-1.1203,-1.2081,-1.2201,-1.2178,-1.2058,-1.2047,-1.1806,-1.0736,-1.0559,-1.0625,-1.0785,-1.0881,-1.0999,-1.1103,-1.1426,-1.163,-1.163,-1.2438,-1.2998,-1.2998,-1.2998,-1.3253,-1.3996,-1.3333,-1.277,-1.232,-1.2984,-1.2661,-1.1322,-1.1997,-1.1569,-1.0038,-1.0038,-1.0038,-1.0038,-1.0038,-1.0038,-1.0038,-1.0038,-1.014,-1.0447,-1.0447,-1.0655,-1.0976,-1.0976,-1.1066,-1.1194,-1.1194,-1.1194,-1.1194,0.0,0.0,0.0,0.0,-0.6245,-0.6388,-0.6388,-0.6347,-0.6424,0.0,0.0,0.0,-0.7902,-0.8241,-0.8244,-0.7804,-0.7246,-0.6629,-0.5942,-0.5641,-0.5342,-0.5029,-0.5789,-0.6065,-0.5801,-0.6419,-0.6377,-0.5629,-0.5646,-0.5439,-0.5009,-0.5828,-0.624,-0.6293,-0.7031,-0.7384,-0.7367,-0.7027,0.0,0.0,-0.9231,0.0,0.0,-1.0709,-1.1026,0.0,0.0,0.0,-1.1169,-1.0963,-1.0462,0.0,0.0,0.0,0.0,-0.7571,-0.8031,0.0,0.0,0.0,0.0,0.0,0.0,0.0,-1.0354,-1.0629,-1.0995,-1.1749,-1.2019,-1.2101,-1.2063,-1.2291,-1.2342,-1.1929,-1.1972,-1.1918,-1.1438,-1.1496,-1.1552,-1.1551,-1.1988,-1.2295,-1.2295,-1.3094,-1.3653,-1.3653,-1.3653,-1.3895,-1.4465,-1.3981,-1.3498,-1.3192,-1.3682,-1.3352,-1.2022,-1.238,-1.1759,-1.0333,-1.0082,-1.0038,-1.0038,-1.0038,-1.0038,-1.0038,-1.0038,-1.0109,-1.014,-1.014,-1.0386,-1.0768,-1.0863,-1.0967,-1.108,-1.1165,-1.1194,-1.1194,0.0,0.0,-0.6616,-0.6616,-0.6991,-0.7285,-0.7285,-0.7328,-0.7359,0.0,-0.7896,-0.8557,-0.9422,-0.9907,-0.9756,-0.8805,-0.8273,-0.7532,-0.6543,-0.6383,-0.6044,-0.544,-0.6146,-0.6489,-0.6376,-0.678,-0.663,-0.5932,-0.5796,-0.551,-0.5137,-0.5784,-0.5925,-0.5609,-0.649,-0.6811,-0.6725,-0.6597,0.0,-0.8397,-0.9406,-1.0097,0.0,0.0,-1.1511,-1.159,-1.19,-1.1845,-1.1598,-1.1559,-1.0875,0.0,0.0,0.0,0.0,-0.8111,-0.8484,0.0,0.0,0.0,0.0,0.0,0.0,0.0,-1.0266,-1.0466,-1.0558,-1.0875,-1.1201,-1.1543,-1.1892,-1.213,-1.2344,-1.2656,-1.3153,-1.3016,-1.1812,-1.1803,-1.191,-1.1756,-1.2596,-1.3223,-1.3151,-1.3952,-1.444,-1.4362,-1.4362,-1.4362,-1.4362,-1.4362,-1.4377,-1.4414,-1.4414,-1.4024,-1.3087,-1.2457,-1.1675,-1.0762,-1.0243,-0.9918,-0.9918,-1.0028,-1.0038,-1.0038,-1.0038,-1.0038,-1.0038,-1.0038,-1.0182,-1.0556,-1.0749,-1.0839,-1.0882,-1.109,-1.1161,-1.1165,0.0,-0.7466,-0.7382,-0.7382,-0.7605,-0.7754,-0.7754,-0.8093,-0.8459,-0.8851,-0.9656,-1.056,-1.1443,-1.1302,-1.1028,-1.0834,-0.9649,-0.8531,-0.7564,-0.6802,-0.6286,-0.6107,-0.6611,-0.7059,-0.741,-0.7848,-0.7644,-0.6763,-0.6586,-0.6238,-0.5813,-0.607,-0.6114,-0.6011,-0.6943,-0.6955,-0.631,-0.7492,0.0,-0.7968,-0.8786,-0.9819,-1.0939,-1.1336,-1.1662,-1.1924,-1.1996,-1.2162,-1.2366,-1.2011,-1.1416,-1.0717,0.0,0.0,0.0,-0.9191,-0.939,-0.966,-0.9374,-0.9557,0.0,0.0,-0.966,0.0,-0.9636,-1.0049,-1.0538,-1.0558,-1.0852,-1.1193,-1.1535,-1.1826,-1.2087,-1.215,-1.2704,-1.3173,-1.3079,-1.3432,-1.3631,-1.3558,-1.3763,-1.3815,-1.3682,-1.3837,-1.3837,-1.3682,-1.3689,-1.3689,-1.3689,-1.3689,-1.3806,-1.407,-1.4077,-1.3803,-1.3087,-1.2344,-1.1485,-1.0513,-0.9932,-0.9705,-0.971,-0.9875,-1.0038,-1.0038,-1.0038,-1.0038,-1.0038,-1.0038,-1.0102,-1.0338,-1.0376,-1.0494,-1.0664,-1.0877,-1.0953,-1.0976,0.0,-0.8002,-0.8038,-0.8304,-0.8487,-0.8705,-0.8963,-0.9185,-0.9513,-0.9972,-1.1118,-1.1823,-1.1795,-1.2012,-1.1871,-1.1155,-1.0211,-0.9245,-0.8279,-0.7531,-0.7021,-0.6759,-0.7201,-0.7557,-0.7805,-0.8214,-0.8053,-0.7266,-0.701,-0.6606,-0.6008,-0.6209,-0.6187,-0.6027,-0.6928,-0.7215,-0.7149,0.0,-0.8527,-0.9044,-0.9509,0.0,-1.105,-1.1559,-1.198,-1.2289,-1.2289,-1.2409,-1.248,-1.194,-1.1527,-1.1153,-1.0681,-1.0462,-1.0391,0.0,-1.0184,-1.0383,-1.0025,-1.0057,0.0,-1.02,-1.0057,0.0,0.0,-1.02,-1.0248,-1.0482,-1.0613,-1.078,-1.0947,-1.1273,-1.1511,-1.1511,-1.2099,-1.2617,-1.2701,-1.3276,-1.3638,-1.3561,-1.3561,-1.356,-1.3671,-1.3686,-1.3682,-1.363,-1.3572,-1.3492,-1.3492,-1.3492,-1.3572,-1.3733,-1.374,-1.3582,-1.3272,-1.2563,-1.1848,-1.0903,-1.035,-0.9868,-0.9564,-0.9752,-0.9856,-1.0038,-1.0038,-1.0038,-1.0038,-1.0038,-1.0105,-1.0121,-1.023,-1.0338,-1.0447,-1.066,-1.0735,-1.0749,0.0,-0.8406,-0.8653,-0.9039,-0.9285,-0.9591,-1.0037,-1.0256,-1.0584,-1.1129,-1.2171,-1.2672,-1.2134,-1.2639,-1.2615,-1.1457,-1.0736,-0.9939,-0.8967,-0.8355,-0.7875,-0.7479,-0.7743,-0.7984,-0.8169,-0.8393,-0.8224,-0.7592,-0.7271,-0.6808,-0.625,-0.6457,-0.6442,-0.6288,-0.7104,-0.7812,0.0,0.0,0.0,-1.0419,0.0,-1.0942,-1.1074,-1.1757,-1.2202,-1.2464,-1.2597,-1.2621,-1.2525,-1.1813,-1.159,-1.1471,-1.0788,-1.0918,0.0,0.0,-1.0926,-1.1188,-1.0793,-1.0661,-1.0717,-1.0939,-1.0605,-1.0327,0.0,0.0,0.0,-1.0335,-1.0474,-1.0522,0.0,-1.0701,-1.0899,-1.0899,-1.1416,-1.1821,-1.1821,-1.2491,-1.2925,-1.2925,-1.2994,-1.314,-1.3347,-1.3309,-1.3376,-1.3645,-1.3524,-1.341,-1.3469,-1.3535,-1.3572,-1.3492,-1.3492,-1.3492,-1.3492,-1.2832,-1.2107,-1.1342,-1.0739,-1.008,-0.9447,-0.9527,-0.9734,-0.9894,-1.0019,-1.0038,-1.0038,-1.0038,-1.0038,-1.0057,-1.0145,-1.0211,-1.0239,-1.0442,-1.0518,-1.0523,-0.8975,-0.9157,-0.9298,-0.9124,-0.9604,-1.0037,-1.0091,-1.0802,-1.1638,-1.253,-1.2791,-1.3215,-1.3969,-1.3783,-1.3543,0.0,-1.2134,-1.0944,-1.0004,-0.9043,-0.8491,-0.8437,-0.8104,-0.8301,-0.9134,-0.8785,-0.835,-0.786,-0.7414,-0.714,-0.7063,-0.7109,-0.7276,-0.7618,-0.848,0.0,0.0,0.0,-1.0447,0.0,-1.2076,-1.1878,-1.1074,-1.1757,-1.2043,-1.2123,-1.2448,-1.2621,-1.2557,-1.2099,-1.1956,-1.1837,-1.1153,-1.1597,-1.2134,-1.1196,0.0,0.0,-1.1551,-1.1376,-1.1312,-1.1058,-1.1153,-1.109,-1.024,0.0,-1.0709,-1.0105,0.0,-1.0522,-1.0522,0.0,0.0,-1.0585,-1.086,-1.1114,-1.1114,-1.1471,-1.1964,-1.2538,-1.2893,-1.3034,-1.2871,-1.2741,-1.2747,-1.3081,-1.3044,-1.3104,-1.3334,-1.3633,-1.3645,-1.3499,-1.3492,-1.3492,-1.3492,-1.2707,-1.19,-1.116,-1.0495,-0.9848,-0.9105,-0.9478,-0.9658,-0.9691,-0.9871,-1.0038,-1.0038,-1.0038,-1.0038,-1.0043,-1.0067,-0.9989,-1.01,-1.023,-1.031,-1.0334,-0.9403,-0.9566,0.0,-0.9924,-0.9938,-1.0114,-1.0665,-1.1904,-1.2913,-1.332,-1.3842,-1.4328,0.0,0.0,0.0,0.0,0.0,-1.1632,0.0,0.0,-0.9753,-0.9469,-0.9292,-0.9218,-0.9288,-0.9093,-0.8774,-0.8322,-0.7555,-0.7185,-0.7208,-0.6924,-0.7162,-0.7842,-0.8746,0.0,-1.0527,0.0,-1.1404,0.0,0.0,-1.2488,-1.1783,-1.2587,-1.2622,-1.2353,-1.2573,-1.2621,-1.2573,-1.2139,-1.1884,-1.1751,-1.2059,-1.2041,-1.1944,-1.2122,-1.219,-1.2094,-1.1656,-1.1971,-1.2264,-1.1471,-1.1718,-1.1881,-1.0797,-1.0621,-1.0605,-1.0303,0.0,0.0,0.0,0.0,0.0,0.0,-1.09,-1.0968,-1.0458,-1.0699,-1.1243,-1.1887,-1.2075,-1.2182,-1.2318,-1.2399,-1.2451,-1.2598,-1.2661,-1.278,-1.2914,-1.3327,-1.3524,-1.3492,-1.3492,-1.3492,-1.3492,-1.3193,-1.2378,-1.1111,-1.0843,-1.0132,-0.903,-0.9204,-0.9417,-0.9569,-0.9738,-0.9842,-1.0038,-1.0038,-1.0038,-1.0038,-1.0038,-1.0038,-1.0047,-1.0055,-1.0088,-1.0097,-0.9621,0.0,0.0,0.0,-1.0087,-1.0286,-1.1422,-1.277,-1.3748,-1.4041,-1.4701,-1.5229,-1.5509,-1.4767,0.0,0.0,-1.3658,-1.2876,0.0,0.0,-1.1158,-1.1058,-1.0432,-1.0091,-1.0099,-0.9576,-0.9115,-0.8796,-0.7838,-0.7394,-0.7394,-0.7034,-0.7287,-0.8052,-0.9109,-1.0301,-1.1602,0.0,-1.2529,-1.2705,-1.3519,-1.3581,-1.3247,-1.3491,-1.3417,-1.3103,-1.3103,-1.2981,-1.2801,-1.2604,-1.2241,-1.2052,-1.2845,-1.2776,-1.2521,-1.3081,-1.3122,-1.2798,-1.2192,-1.2646,-1.2905,-1.1769,-1.1991,-1.2206,-1.1108,-1.0882,-1.084,-1.0742,-1.0799,0.0,0.0,0.0,-1.1368,-1.0964,0.0,-1.1223,-1.0401,-1.0569,-1.0904,-1.1231,-1.1453,-1.1656,-1.1837,-1.1909,-1.1983,-1.2069,-1.2189,-1.2325,-1.2497,-1.2991,-1.3242,-1.3353,-1.3448,-1.3492,-1.3492,-1.3492,-1.282,-1.1409,-1.1409,-1.0686,-0.9252,-0.9306,-0.9346,-0.9483,-0.9513,-0.9729,-0.9871,-0.9927,-1.0038,-1.0038,-1.0038,-1.0038,-1.0038,-1.0038,-1.0038,-1.0038,-0.9689,-0.9871,0.0,0.0,-0.9948,-1.0707,-1.2304,-1.3083,-1.3893,-1.4916,-1.5085,0.0,0.0,0.0,0.0,0.0,0.0,-1.5031,-1.5071,0.0,-1.253,-1.3459,-1.1308,-1.0721,0.0,-1.0242,-0.9288,-0.9267,-0.8328,-0.7875,-0.7875,-0.7853,-0.8126,-0.862,-0.9903,-1.1123,-1.2218,-1.3024,-1.3903,-1.4817,-1.5311,-1.5624,-1.5628,-1.4393,-1.4112,-1.441,-1.441,-1.4052,-1.3511,-1.3753,-1.3438,-1.2975,-1.3323,-1.4022,-1.469,-1.4072,-1.4534,-1.5031,-1.3768,-1.3485,-1.3195,-1.1833,-1.1936,-1.1965,-1.0793,-1.1151,-1.1669,-1.1345,-1.1515,-1.1809,-1.1931,-1.1959,-1.1959,-1.195,-1.1959,0.0,0.0,-1.1323,-1.1187,-1.0785,-1.1353,-1.1735,-1.1527,-1.1225,-1.1177,-1.1503,-1.1535,-1.167,-1.1981,-1.2649,-1.3029,-1.3016,-1.3331,-1.3492,-1.3492,-1.3492,-1.3046,-1.2224,-1.2224,-1.1416,-0.9862,-1.0081,-0.9729,-0.9067,-0.9474,-0.9564,-0.9672,-0.9871,-1.0038,-1.0038,-1.0038,-1.0038,-1.0038,-1.0038,-1.0038,-1.0038,0.0,0.0,0.0,0.0,0.0,-1.1122,-1.2513,-1.4038,-1.5138,0.0,-1.62,0.0,0.0,-1.7219,-1.7207,0.0,0.0,-1.6572,-1.6268,-1.4967,0.0,-1.4193,-1.2772,-1.2037,0.0,0.0,-1.0592,-1.031,-0.901,-0.8513,-0.8818,-0.8202,-0.8497,-0.9633,-1.0673,-1.1715,0.0,0.0,0.0,0.0,-1.5297,-1.5967,-1.6322,-1.5052,-1.4615,-1.4619,-1.4619,-1.4451,-1.4213,-1.4245,-1.3959,-1.3759,-1.4469,-1.4525,-1.4298,-1.4754,-1.5018,-1.5098,-1.4671,-1.532,-1.5657,-1.3493,-1.3468,-1.348,-1.1769,-1.1882,-1.2137,-1.1455,-1.2122,-1.2467,-1.1226,-1.185,-1.2286,-1.166,-1.2098,-1.2137,0.0,-1.1055,-1.116,-1.1211,-1.1402,0.0,-1.099,-1.1132,-1.1003,-1.0462,-1.0891,-1.1351,-1.1788,-1.2274,-1.276,-1.3197,-1.3331,-1.3423,-1.3492,-1.3492,-1.3119,-1.2305,-1.2305,-1.1706,-1.0669,-1.075,-1.0423,-0.9812,-1.011,-1.0,-0.9663,-0.9866,-1.0038,-1.0038,-1.0038,-1.0038,-1.0038,-1.0038,-1.0038,-1.0038,-1.1885,0.0,0.0,0.0,0.0,-1.2363,-1.3355,-1.5159,-1.6434,0.0,-1.7365,0.0,-1.8623,0.0,-1.8302,0.0,-1.8437,-1.7846,-1.7572,-1.6605,0.0,-1.5813,-1.4456,-1.3723,0.0,0.0,0.0,-1.1279,-0.9992,-0.9438,-0.9558,-0.8956,-0.9204,-1.0146,-1.126,-1.2062,-1.2728,-1.4555,-1.5132,0.0,-1.5842,-1.6493,-1.6874,-1.6093,-1.5623,-1.5439,-1.5439,-1.5274,-1.5059,-1.5235,-1.4984,-1.4706,-1.5732,-1.5556,-1.5177,-1.5989,-1.6125,-1.5971,-1.5785,-1.6446,-1.6757,-1.4787,-1.4791,-1.4711,-1.256,-1.2595,-1.2848,-1.2201,-1.2615,-1.3002,-1.2663,-1.2881,-1.2978,-1.2697,-1.2879,-1.2661,0.0,-1.1412,-1.1512,-1.177,0.0,0.0,0.0,-1.0846,-1.0623,-1.0178,-1.0423,-1.0808,-1.1321,-1.1802,-1.235,-1.2984,-1.3239,-1.3454,-1.3645,-1.3645,-1.3346,-1.2753,-1.2753,-1.2305,-1.1558,-1.1558,-1.0976,-1.0076,-1.03,-1.0055,-0.9549,-0.9757,-0.9885,-1.0038,-1.0038,-1.0038,-1.0038,-1.0038,-1.0038,-1.0038,-1.2427,-1.2143,0.0,0.0,-1.3413,-1.4286,0.0,0.0,-1.7587,0.0,-1.861,-1.9172,-1.9725,-1.9302,-1.9457,-2.0597,-1.9658,-1.9012,-1.8982,-1.808,0.0,0.0,-1.6316,-1.5714,-1.6577,0.0,0.0,0.0,0.0,-1.0628,-1.0168,-1.0113,-1.0113,-1.0201,-1.1577,0.0,-1.2396,-1.4762,-1.5807,-1.5938,-1.6907,-1.7278,-1.7278,-1.7278,-1.7099,-1.6818,-1.6807,-1.6457,-1.6046,-1.6581,-1.6285,-1.5896,-1.695,-1.7176,-1.716,-1.7544,-1.775,-1.7636,-1.7001,-1.6884,-1.667,-1.5656,-1.5798,-1.5523,-1.328,-1.3429,-1.3922,-1.3597,-1.3136,-1.3559,-1.5848,-1.4821,-1.3962,-1.4738,-1.4169,-1.3279,-1.2463,-1.2282,-1.2238,-1.2337,0.0,0.0,0.0,-1.0508,-1.0106,-1.0442,-1.0129,-1.0155,-1.0678,-1.1329,-1.1943,-1.2444,-1.3127,-1.3573,-1.3768,-1.3783,-1.3717,-1.3499,-1.3499,-1.3119,-1.2378,-1.2378,-1.1484,-1.0008,-1.0159,-0.992,-0.9341,-0.9559,-0.9767,-1.0038,-1.0038,-1.0038,-1.0038,-1.0038,-1.0038,-1.0038,-1.3131,-1.3771,-1.4449,0.0,-1.456,-1.4566,-1.6011,-1.6864,0.0,0.0,-1.8999,-1.9642,-1.9787,-2.0052,-2.038,-2.0686,-2.0406,0.0,0.0,0.0,0.0,-1.8856,-1.7585,-1.6827,-1.6687,-1.5639,-1.4713,-1.3847,0.0,-1.1611,-1.1129,-1.0442,-1.0289,-1.066,0.0,-1.2407,-1.2846,-1.4903,-1.6252,-1.6929,-1.718,-1.7278,-1.7278,-1.7278,-1.7278,-1.7155,-1.7022,-1.6797,-1.6581,-1.6761,-1.6905,-1.7026,-1.7231,-1.7515,-1.7758,-1.7698,-1.7957,-1.8216,-1.8015,-1.826,-1.8283,-1.7194,-1.6841,-1.6419,-1.5415,-1.5708,-1.5916,-1.5177,-1.5742,-1.5948,-1.4443,-1.441,-1.4338,-1.3472,-1.3182,-1.302,-1.2793,0.0,0.0,-1.273,0.0,0.0,0.0,-1.1194,-1.0759,-1.0148,-1.027,-1.0526,-1.0917,-1.1336,-1.1772,-1.2352,-1.2976,-1.3431,-1.3558,-1.3871,-1.3928,-1.3717,-1.3717,-1.3572,-1.3193,-1.3193,-1.2305,-1.083,-1.1,-1.039,-0.9341,-0.9559,-0.9767,-1.0038,-1.0038,-1.0038,-1.0038,-1.0038,-1.0038,-1.0038,-1.4137,-1.4938,0.0,-1.639,-1.5856,-1.577,-1.6956,-1.7556,-1.8064,-1.863,-1.9467,-1.9965,-1.9959,-2.0492,-2.0799,-2.0775,-2.0775,0.0,-2.0345,0.0,0.0,-1.9448,-1.8826,-1.8367,-1.8078,-1.7082,0.0,-1.5355,0.0,-1.2831,-1.235,-1.156,-1.124,-1.1427,0.0,-1.2803,-1.302,-1.4958,-1.6262,-1.6961,-1.7191,-1.7278,0.0,-1.7278,-1.7278,-1.7278,-1.7145,-1.7088,-1.7076,-1.7234,-1.747,-1.7691,-1.7999,-1.8256,-1.8364,-1.8395,-1.856,-1.8747,-1.8747,-1.8868,-1.8946,-1.836,-1.8041,-1.7614,-1.6671,-1.671,-1.674,-1.6256,-1.6497,-1.6567,-1.5704,-1.5255,-1.4584,-1.3359,-1.3195,-1.3109,0.0,0.0,0.0,0.0,-1.2381,-1.2031,-1.1917,-1.1049,-1.0444,-1.0318,-1.0153,-1.0252,-1.0818,-1.1247,-1.1684,-1.2177,-1.2962,-1.3497,-1.3623,-1.4032,-1.4137,-1.3928,-1.3863,-1.3717,-1.3645,-1.3572,-1.2599,-1.1123,-1.1187,-1.0528,-0.9332,-0.9455,-0.9682,-1.0038,-1.0038,-1.0038,-1.0038,-1.0038,-1.0038,-1.0038,-1.5304,0.0,0.0,0.0,0.0,-1.7395,-1.7909,-1.8392,-1.8886,-1.9386,-1.9927,-2.0287,-2.0287,-2.0806,-2.1067,-2.1007,-2.1007,-2.0733,-2.0109,-2.0476,-2.0476,-1.9991,-1.9917,-1.9878,-1.9812,-1.8349,-1.727,-1.6595,-1.5057,-1.3942,-1.3203,-1.2747,-1.2283,0.0,0.0,0.0,0.0,-1.5067,-1.6131,-1.6656,-1.7092,-1.7278,-1.7278,-1.7278,-1.7278,-1.7289,-1.7355,-1.7366,-1.7431,-1.7857,-1.8017,-1.8148,-1.893,-1.9094,-1.9073,-1.9291,-1.9351,-1.9274,-1.9142,-1.9131,-1.9075,-1.9075,-1.9075,-1.8792,-1.749,-1.7183,-1.7183,-1.7183,-1.6576,-1.6548,-1.8029,-1.6539,-1.478,-1.3859,-1.3703,-1.3569,0.0,0.0,0.0,0.0,0.0,0.0,-1.2266,-1.0659,-0.9967,-1.065,-1.0004,-0.9875,-1.0542,-1.1153,-1.1591,-1.1932,-1.2973,-1.3621,-1.3754,-1.423,-1.4353,-1.4129,-1.3928,-1.379,-1.3725,-1.3572,-1.2673,-1.126,-1.1186,-1.0467,-0.9447,-0.9313,-0.9573,-1.0038,-1.0038,-1.0038,-1.0038,-1.0038,-1.0038,-1.0038,-1.6566,0.0,0.0,0.0,-1.8167,-1.8669,-1.9249,-1.9368,-1.9548,-2.0107,-2.0588,-2.0837,-2.0837,-2.1406,-2.1714,-2.1561,-2.1561,-2.1521,-2.1365,-2.0959,-2.0723,-2.0693,-2.0617,-2.0381,-1.9956,-1.9107,-1.8022,-1.668,-1.5419,-1.3754,-1.1792,-1.2071,-1.1559,0.0,0.0,0.0,-1.5295,-1.5644,-1.6339,-1.7158,-1.7245,-1.7278,-1.7278,-1.7278,-1.7278,-1.7333,-1.7737,-1.7879,-1.789,-1.7977,-1.8523,-1.9138,-1.9198,-1.9447,-1.9695,-1.9584,-1.9407,-1.9274,-1.9274,-1.9208,-1.9075,-1.9075,-1.9075,-1.9023,-1.8802,-1.8695,-1.8695,-1.8695,-1.8572,-1.8369,-1.7874,-1.6601,-1.5266,-1.4335,-1.419,-1.4159,-1.4076,0.0,0.0,0.0,0.0,-1.2543,-1.1809,-1.1348,-1.1026,-1.0813,-1.0576,-1.053,-1.059,-1.0939,-1.1305,-1.1559,-1.2623,-1.3338,-1.3605,-1.4245,-1.4425,-1.4129,-1.4057,-1.3848,-1.3564,-1.3492,-1.2973,-1.2077,-1.1409,-1.0678,-1.0021,-0.9494,-0.9573,-1.0038,-1.0038,-1.0038,-1.0038,-1.0038,-1.0038,-1.0038,-1.8275,0.0,0.0,0.0,-1.9497,-1.9999,-2.0908,-2.1266,-2.1299,-2.0961,-2.1372,-2.1686,-2.1686,-2.2224,-2.2521,-2.2417,-2.2351,-2.2312,-2.2155,-2.1838,-2.1562,-2.1235,-2.1157,-2.0933,-2.0466,-1.9716,-1.8904,-1.793,-1.6421,-1.493,-1.3493,-1.296,-1.2471,-1.2223,0.0,-1.4327,0.0,-1.5676,-1.6241,-1.6907,-1.7169,-1.7278,-1.7311,-1.7562,-1.7649,-1.7715,-1.8196,-1.8523,-1.8742,-1.8742,-1.9047,-1.9399,-1.9597,-1.9836,-1.9944,-1.9802,-1.9671,-1.9539,-1.9351,-1.9274,-1.9208,-1.9142,-1.9075,-1.9075,-1.9075,-1.9075,-1.9075,-1.9075,-1.9075,-1.8723,-1.7523,-1.6446,-1.5463,-1.478,-1.4469,-1.4304,-1.4304,-1.4117,-1.3807,0.0,0.0,0.0,0.0,-1.1918,-1.1512,-1.0604,-1.0264,-1.0134,-1.0284,-1.0615,-1.0991,-1.1463,-1.2353,-1.306,-1.3576,-1.4101,-1.4316,-1.4281,-1.4129,-1.392,-1.3645,-1.3564,-1.3046,-1.2224,-1.1484,-1.0726,-1.0131,-0.9683,-0.9672,-1.0038,-1.0038,-1.0038,-1.0038,-1.0038,-1.0038,-1.0038,-1.9754,-1.9483,0.0,-2.0495,-2.0779,-2.122,-2.2156,-2.2943,-2.2986,-2.1903,-2.221,-2.2495,-2.2495,-2.3051,-2.3365,-2.3178,-2.3178,-2.3125,-2.287,-2.2697,-2.2366,-2.1865,-2.1629,-2.1405,-2.1173,-2.0312,-1.9588,-1.8954,-1.7402,-1.6127,-1.5216,-1.4078,-1.3848,-1.4325,-1.4601,-1.4971,-1.5427,-1.6065,-1.6516,-1.6874,-1.7423,-1.7599,-1.7617,-1.801,-1.8152,-1.8206,-1.8676,-1.9091,-1.943,-1.9539,-1.9572,-1.9637,-1.9966,-2.0085,-2.0074,-1.9933,-1.9933,-1.9802,-1.9473,-1.9417,-1.9341,-1.9208,-1.9208,-1.9208,-1.9142,-1.9208,-1.9198,-1.9142,-1.9058,-1.8612,-1.7274,-1.6456,-1.5763,-1.5101,-1.4769,-1.4531,-1.4335,-1.4304,0.0,0.0,0.0,0.0,-1.238,-1.2214,-1.1685,-1.0548,-0.9976,-0.9804,-1.014,-1.0318,-1.0693,-1.136,-1.2075,-1.2774,-1.3473,-1.3902,-1.4221,-1.4425,-1.4209,-1.4072,-1.379,-1.3645,-1.3193,-1.2526,-1.1706,-1.0907,-1.0206,-0.9766,-0.9724,-1.0038,-1.0038,-1.0038,-1.0038,-1.0038,-1.0038,-1.0038,-2.0305,0.0,-2.0522,-2.122,-2.1789,-2.2169,-2.2278,-2.3295,-2.3757,-2.3107,-2.3067,-2.3107,-2.3107,-2.3622,-2.3987,-2.3823,-2.3823,-2.3823,-2.3769,-2.303,-2.2698,-2.2843,-2.2087,-2.1783,-2.1985,-2.0788,-1.9621,-1.8558,-1.7712,-1.6284,-1.4319,-1.4613,-1.4821,-1.5035,-1.555,-1.5973,-1.6455,-1.7505,-1.7947,-1.7926,-1.8453,-1.8619,-1.8556,-1.8611,-1.8622,-1.8687,-1.9179,-1.9375,-1.9484,-1.9868,-2.0009,-2.002,-2.0074,-2.0085,-2.0085,-2.0074,-2.0009,-1.9868,-1.9868,-1.9736,-1.9539,-1.955,-1.9539,-1.9473,-1.9341,-1.9417,-1.9473,-1.9341,-1.9026,-1.8375,-1.7222,-1.6915,-1.6498,-1.5204,-1.5308,-1.5266,-1.4428,-1.4304,-1.3983,-1.3047,0.0,0.0,-1.2349,-1.1923,-1.1481,-1.1064,-1.0537,-1.0328,-1.0633,-1.028,-1.0359,-1.101,-1.171,-1.2409,-1.3132,-1.3783,-1.4221,-1.4425,-1.4361,-1.4145,-1.3797,-1.3797,-1.3645,-1.3346,-1.2526,-1.1542,-1.0412,-0.9658,-0.9587,-1.0038,-1.0038,-1.0038,-1.0038,-1.0038,-1.0038,-1.0038,-2.2665,-2.238,-2.229,-2.2926,-2.2943,-2.3105,-2.3811,-2.434,-2.4557,-2.4327,-2.4299,-2.4299,-2.4299,-2.4517,-2.4596,-2.4541,-2.4541,-2.4541,-2.4428,-2.4088,-2.3752,-2.3446,-2.3111,-2.2804,-2.264,-2.1733,-2.0868,-2.016,-1.8671,-1.7323,-1.6101,-1.5274,-1.5144,-1.5653,-1.6774,-1.7581,-1.8092,-1.8566,-1.9048,-1.9622,-1.9839,-1.99,-1.9889,-1.9772,-1.9704,-1.9722,-1.9797,-1.9791,-1.9824,-2.002,-2.0085,-2.0085,-2.0085,-2.0085,-2.0085,-2.0085,-2.0074,-2.0009,-1.9933,-1.9868,-1.9736,-1.9605,-1.9605,-1.9605,-1.9483,-1.9539,-1.9539,-1.9341,-1.8908,-1.8239,-1.7332,-1.6877,-1.6467,-1.5918,-1.5753,-1.5463,-1.4811,-1.4718,0.0,-1.3455,0.0,-1.3165,-1.2699,-1.2254,-1.1943,-1.1817,-1.0875,-1.0331,-1.0401,-1.0165,-1.0316,-1.0963,-1.1455,-1.2146,-1.3084,-1.3561,-1.4008,-1.4425,-1.4425,-1.4281,-1.3992,-1.3992,-1.3695,-1.3105,-1.2666,-1.2094,-1.1404,-1.0444,-1.031,-1.0727,-1.0212,-1.0038,-1.0038,-1.0038,-1.0038,-1.0038,-2.464,-2.4276,-2.4155,-2.4757,-2.4391,-2.4312,-2.5149,-2.5118,-2.5005,-2.5005,-2.5005,-2.5005,-2.5005,-2.5005,-2.5005,-2.5005,-2.5005,-2.4948,-2.4892,-2.4835,-2.4603,-2.4131,-2.3888,-2.3593,-2.3312,-2.2628,-2.2052,-2.1574,-1.996,-1.8857,-1.819,-1.6788,-1.6477,-1.7082,-1.8358,-1.9171,-1.9601,-1.9908,-2.0404,-2.0894,-2.108,-2.1107,-2.1114,-2.0934,-2.0769,-2.0579,-2.0448,-2.027,-2.0085,-2.0085,-2.0085,-2.0085,-2.0085,-2.0085,-2.0085,-2.0085,-2.0085,-2.0074,-2.0009,-1.9944,-1.9933,-1.9813,-1.9747,-1.9747,-1.9681,-1.9747,-1.9639,-1.9238,-1.8763,-1.8134,-1.7361,-1.679,-1.6436,-1.63,-1.6113,-1.5683,-1.4956,-1.4966,-1.4656,-1.3724,-1.3496,-1.3341,-1.3099,-1.2606,-1.2359,-1.2538,-1.1476,-1.0714,-1.0577,-1.0329,-1.0432,-1.0963,-1.1519,-1.2218,-1.3084,-1.3521,-1.3976,-1.4425,-1.4425,-1.4353,-1.4201,-1.4129,-1.376,-1.3171,-1.2739,-1.2556,-1.2368,-1.1324,-1.1216,-1.166,-1.0722,-1.0381,-1.0381,-1.0125,-1.0038,-1.0038,-2.5654,-2.577,-2.5959,-2.6547,-2.6215,-2.5879,-2.5893,-2.5397,-2.5005,-2.5005,-2.5005,-2.5005,-2.5005,-2.5005,-2.5005,-2.5005,-2.5005,-2.5005,-2.5005,-2.4892,-2.4835,-2.4991,-2.4269,-2.3959,-2.4109,-2.3473,-2.2839,-2.2194,-2.1587,-2.0885,-2.0174,-1.9409,-1.9324,-1.9799,-2.0374,-2.0643,-2.0743,-2.1885,-2.1982,-2.1414,-2.1968,-2.2159,-2.2089,-2.2089,-2.1667,-2.1123,-2.106,-2.0635,-2.0085,-2.0085,-2.0085,-2.0085,-2.0085,-2.0085,-2.0085,-2.0085,-2.0085,-2.0085,-2.0085,-2.0085,-2.0085,-2.0074,-2.0074,-2.0074,-1.9944,-2.0009,-1.9879,-1.9062,-1.853,-1.7941,-1.7129,-1.678,-1.6423,-1.5951,-1.6266,-1.6087,-1.4713,-1.4769,-1.4656,-1.3724,-1.3171,-1.3068,-1.3569,-1.2793,-1.2527,-1.3031,-1.2397,-1.1798,-1.1405,-1.0885,-1.0706,-1.0971,-1.2011,-1.2726,-1.3084,-1.3767,-1.4283,-1.4569,-1.4569,-1.4497,-1.4353,-1.4201,-1.3992,-1.3717,-1.2973,-1.2783,-1.3008,-1.2209,-1.2198,-1.2589,-1.166,-1.1322,-1.1154,-1.0294,-1.0038,-1.0038,-2.7006,-2.695,-2.6908,-2.6753,-2.6244,-2.5893,-2.5893,-2.5397,-2.5005,-2.5005,-2.5005,-2.5005,-2.5005,-2.5005,-2.5005,-2.5005,-2.5005,-2.5005,-2.5005,-2.4948,-2.4948,-2.5005,-2.4772,-2.4664,-2.472,-2.4137,-2.3689,-2.3513,-2.2409,-2.1565,-2.0815,-2.0993,-2.1093,-2.1141,-2.172,-2.2139,-2.2411,-2.2815,-2.3049,-2.3288,-2.3405,-2.3508,-2.3424,-2.2967,-2.2652,-2.2408,-2.1928,-2.1376,-2.0752,-2.0752,-2.0453,-2.0205,-2.0635,-2.0453,-2.0085,-2.0085,-2.0085,-2.0085,-2.0085,-2.0085,-2.0085,-2.0085,-2.0085,-2.0085,-2.0074,-2.0009,-1.9706,-1.8895,-1.848,-1.7945,-1.7158,-1.6846,-1.6698,-1.6549,-1.6269,-1.5836,-1.507,-1.4726,-1.4304,-1.3693,-1.3486,-1.3455,-1.36,-1.3072,-1.2906,-1.3408,-1.2689,-1.1974,-1.1481,-1.1323,-1.1212,-1.0995,-1.2019,-1.2734,-1.3084,-1.3767,-1.4291,-1.4569,-1.4569,-1.4569,-1.4497,-1.4353,-1.4289,-1.4145,-1.3637,-1.3708,-1.413,-1.3094,-1.3108,-1.3535,-1.1923,-1.1327,-1.1149,-1.0294,-1.0038,-1.0038,-2.791,-2.7845,-2.7745,-2.7378,-2.6864,-2.651,-2.651,-2.5811,-2.5384,-2.5632,-2.5439,-2.5342,-2.5342,-2.5342,-2.523,-2.5005,-2.5005,-2.5005,-2.5005,-2.5005,-2.5005,-2.5005,-2.5005,-2.5005,-2.5005,-2.4639,-2.4462,-2.4462,-2.3432,-2.2544,-2.18,-2.2188,-2.2378,-2.2498,-2.2802,-2.3168,-2.3594,-2.355,-2.3772,-2.4112,-2.4112,-2.4112,-2.4054,-2.3603,-2.3339,-2.3027,-2.2665,-2.2039,-2.1502,-2.1502,-2.1187,-2.0944,-2.1313,-2.1187,-2.0816,-2.0571,-2.0335,-2.0085,-2.0085,-2.0085,-2.0085,-2.0085,-2.0085,-2.0085,-2.0085,-2.0009,-1.9781,-1.9062,-1.8574,-1.8087,-1.7305,-1.7027,-1.6864,-1.6807,-1.6358,-1.5763,-1.529,-1.4685,-1.4138,-1.3672,-1.3765,-1.3807,-1.3631,-1.3662,-1.3755,-1.3869,-1.3471,-1.2899,-1.2221,-1.199,-1.1797,-1.1631,-1.2472,-1.3116,-1.3473,-1.4029,-1.4418,-1.4569,-1.4569,-1.4569,-1.4569,-1.4425,-1.4353,-1.4281,-1.3935,-1.4022,-1.4366,-1.3846,-1.3702,-1.3728,-1.2389,-1.158,-1.1149,-1.0294,-1.0038,-1.0038,-2.8411,-2.8411,-2.8411,-2.8411,-2.791,-2.7515,-2.7515,-2.6602,-2.6136,-2.6625,-2.6297,-2.5948,-2.5948,-2.5948,-2.5729,-2.5174,-2.5061,-2.5005,-2.5005,-2.5005,-2.5005,-2.5005,-2.5005,-2.5005,-2.5005,-2.5005,-2.5005,-2.5005,-2.4462,-2.3838,-2.3164,-2.3164,-2.3366,-2.375,-2.3652,-2.3874,-2.4292,-2.4157,-2.4112,-2.4112,-2.4112,-2.4112,-2.4112,-2.4112,-2.3721,-2.3148,-2.3148,-2.2713,-2.2175,-2.2211,-2.2199,-2.2113,-2.2211,-2.2199,-2.199,-2.1376,-2.07,-2.014,-2.014,-2.0151,-2.0085,-2.0085,-2.0085,-2.0085,-2.0085,-2.0085,-1.9944,-1.9316,-1.8884,-1.8358,-1.7643,-1.7299,-1.6998,-1.6807,-1.6382,-1.5839,-1.529,-1.4685,-1.4148,-1.3714,-1.4076,-1.419,-1.3755,-1.449,-1.4821,-1.4386,-1.459,-1.433,-1.3368,-1.2797,-1.2526,-1.2589,-1.3227,-1.3751,-1.4109,-1.4466,-1.4569,-1.4569,-1.4569,-1.4569,-1.4569,-1.4425,-1.4281,-1.4057,-1.3863,-1.3844,-1.404,-1.4418,-1.4179,-1.3585,-1.2921,-1.2169,-1.1149,-1.0294,-1.0038,-1.0038,-2.8396,-2.8411,-2.8411,-2.8411,-2.791,-2.7515,-2.7515,-2.6953,-2.6534,-2.6678,-2.6587,-2.6481,-2.6481,-2.6481,-2.6481,-2.6322,-2.5481,-2.5005,-2.5005,-2.5005,-2.5005,-2.5005,-2.5005,-2.5005,-2.5005,-2.5005,-2.5005,-2.5005,-2.4869,-2.472,-2.4529,-2.4529,-2.4541,-2.452,-2.452,-2.4416,-2.4292,-2.4247,-2.4203,-2.4112,-2.4112,-2.4112,-2.4112,-2.4112,-2.3995,-2.3865,-2.3865,-2.3412,-2.2909,-2.3405,-2.2886,-2.2247,-2.3232,-2.2874,-2.2039,-2.1928,-2.1376,-2.088,-2.088,-2.0518,-2.0085,-2.0085,-2.0085,-2.0085,-2.0085,-2.0085,-1.9944,-1.9454,-1.9269,-1.8931,-1.8023,-1.7843,-1.7579,-1.7019,-1.6149,-1.5468,-1.5247,-1.4685,-1.4273,-1.4159,-1.4552,-1.479,-1.4687,-1.4873,-1.4956,-1.4842,-1.487,-1.4538,-1.3708,-1.3805,-1.3473,-1.2613,-1.3227,-1.3751,-1.4109,-1.4466,-1.4569,-1.4569,-1.4569,-1.4569,-1.4569,-1.4274,-1.4129,-1.4057,-1.371,-1.3895,-1.4432,-1.4654,-1.4452,-1.3871,-1.3159,-1.2254,-1.1149,-1.0294,-1.0038,-1.0038,-2.8541,-2.8493,-2.8493,-2.8396,-2.8122,-2.791,-2.791,-2.7414,-2.7159,-2.7429,-2.721,-2.7041,-2.7041,-2.7041,-2.6886,-2.639,-2.5756,-2.5397,-2.5397,-2.5174,-2.5005,-2.5005,-2.5005,-2.5005,-2.5005,-2.5005,-2.5005,-2.5005,-2.5005,-2.5005,-2.5005,-2.5005,-2.4948,-2.4892,-2.4835,-2.4721,-2.4536,-2.435,-2.4405,-2.4623,-2.4564,-2.4661,-2.4896,-2.4896,-2.4896,-2.4896,-2.4896,-2.4628,-2.441,-2.473,-2.4367,-2.3916,-2.4606,-2.4367,-2.3741,-2.3491,-2.2306,-2.1123,-2.1123,-2.0635,-2.0085,-2.0085,-2.0085,-2.0085,-2.0085,-2.0085,-2.0009,-1.9748,-1.9572,-1.9189,-1.8458,-1.8152,-1.7712,-1.6817,-1.6213,-1.5742,-1.5362,-1.5016,-1.4818,-1.4818,-1.5175,-1.5321,-1.5102,-1.5423,-1.5546,-1.5328,-1.5515,-1.5426,-1.4866,-1.4685,-1.4153,-1.3084,-1.3545,-1.3989,-1.4347,-1.4546,-1.4569,-1.4569,-1.4569,-1.4569,-1.4569,-1.4353,-1.4209,-1.4209,-1.392,-1.3984,-1.4343,-1.4789,-1.4482,-1.3756,-1.369,-1.2687,-1.1241,-1.0809,-1.0381,-1.0038,-2.8621,-2.8636,-2.8589,-2.8493,-2.8444,-2.8444,-2.8444,-2.7959,-2.7845,-2.8348,-2.7959,-2.763,-2.763,-2.772,-2.738,-2.6379,-2.6181,-2.6046,-2.5784,-2.5286,-2.5005,-2.5005,-2.5005,-2.5005,-2.5005,-2.5005,-2.5005,-2.5005,-2.5005,-2.5005,-2.5005,-2.5005,-2.5005,-2.5005,-2.4892,-2.4889,-2.4912,-2.4611,-2.4826,-2.5335,-2.5214,-2.5454,-2.5824,-2.5887,-2.5824,-2.5824,-2.5824,-2.5824,-2.5837,-2.5929,-2.5903,-2.5837,-2.5929,-2.589,-2.5733,-2.5236,-2.3468,-2.1626,-2.1474,-2.0816,-2.027,-2.027,-2.027,-2.027,-2.027,-2.0335,-2.0388,-2.027,-1.9929,-1.9489,-1.8884,-1.8425,-1.7734,-1.659,-1.6418,-1.6148,-1.5508,-1.5456,-1.5499,-1.5499,-1.5807,-1.5825,-1.5479,-1.6019,-1.6249,-1.5918,-1.626,-1.6372,-1.6082,-1.547,-1.4705,-1.3723,-1.395,-1.4283,-1.4561,-1.4569,-1.4569,-1.4569,-1.4569,-1.4569,-1.4569,-1.4425,-1.4425,-1.4353,-1.4201,-1.416,-1.426,-1.4896,-1.4465,-1.3446,-1.4007,-1.3027,-1.1149,-1.1154,-1.0636,-1.0038,-2.8779,-2.8747,-2.8747,-2.8747,-2.8636,-2.8589,-2.8589,-2.8381,-2.8299,-2.8411,-2.8299,-2.8235,-2.8235,-2.8756,-2.8813,-2.8084,-2.7676,-2.6785,-2.5257,-2.5061,-2.5005,-2.5005,-2.5005,-2.5005,-2.5005,-2.5005,-2.5005,-2.5005,-2.5005,-2.5005,-2.5005,-2.5005,-2.5005,-2.5005,-2.5005,-2.5175,-2.5576,-2.5517,-2.5734,-2.61,-2.61,-2.6105,-2.606,-2.6184,-2.606,-2.5824,-2.5998,-2.5936,-2.5903,-2.6386,-2.6216,-2.5903,-2.6386,-2.6216,-2.5798,-2.572,-2.5013,-2.4014,-2.3021,-2.1865,-2.0944,-2.0944,-2.0944,-2.0944,-2.0944,-2.1365,-2.1616,-2.106,-2.0876,-2.0493,-1.9449,-1.8916,-1.8202,-1.7054,-1.6623,-1.6148,-1.5508,-1.5743,-1.5999,-1.5999,-1.6293,-1.6434,-1.636,-1.6394,-1.6508,-1.675,-1.6901,-1.6588,-1.5824,-1.59,-1.537,-1.4029,-1.4077,-1.4283,-1.4561,-1.4569,-1.4569,-1.4569,-1.4569,-1.4569,-1.4569,-1.4425,-1.4425,-1.4353,-1.4201,-1.4298,-1.459,-1.5149,-1.451,-1.3241,-1.34,-1.2339,-1.0636,-1.0294,-1.0125,-1.0038,-2.8842,-2.8858,-2.8826,-2.8794,-2.8779,-2.8779,-2.8732,-2.8652,-2.8604,-2.8541,-2.8801,-2.9033,-2.895,-2.955,-2.9725,-2.9082,-2.8838,-2.8261,-2.7074,-2.5728,-2.5154,-2.5466,-2.548,-2.5643,-2.5982,-2.5982,-2.5982,-2.5982,-2.5982,-2.5982,-2.5982,-2.5982,-2.5982,-2.5982,-2.5982,-2.6072,-2.6283,-2.6223,-2.6485,-2.6885,-2.6823,-2.696,-2.7203,-2.7267,-2.7203,-2.701,-2.6997,-2.6984,-2.6908,-2.704,-2.6961,-2.6791,-2.7053,-2.6961,-2.6687,-2.6373,-2.537,-2.4192,-2.3306,-2.2342,-2.1616,-2.1616,-2.1616,-2.1616,-2.1616,-2.1865,-2.1928,-2.125,-2.1123,-2.0722,-1.9632,-1.9026,-1.8458,-1.7655,-1.719,-1.6798,-1.6472,-1.6634,-1.6775,-1.6775,-1.6736,-1.6789,-1.7053,-1.6853,-1.6922,-1.7317,-1.7358,-1.7297,-1.714,-1.6553,-1.6022,-1.5618,-1.4808,-1.4474,-1.4569,-1.4569,-1.4569,-1.4569,-1.4569,-1.4569,-1.4569,-1.4569,-1.4497,-1.4497,-1.4425,-1.4439,-1.4618,-1.5127,-1.4919,-1.4367,-1.4179,-1.322,-1.1826,-1.1322,-1.0641,-1.0038,-2.8967,-2.8936,-2.8905,-2.8889,-2.8905,-2.8905,-2.8826,-2.8779,-2.8746,-2.8854,-2.927,-2.9558,-2.9643,-3.0243,-3.0424,-2.9818,-2.9831,-2.9575,-2.8943,-2.7017,-2.6061,-2.6516,-2.6442,-2.6499,-2.6809,-2.6823,-2.6823,-2.6823,-2.6823,-2.6823,-2.6823,-2.6823,-2.6823,-2.6823,-2.6823,-2.6904,-2.7026,-2.6904,-2.7166,-2.7692,-2.7565,-2.7782,-2.8131,-2.821,-2.8145,-2.8079,-2.7934,-2.7855,-2.7776,-2.759,-2.7523,-2.7523,-2.7523,-2.7523,-2.7445,-2.7,-2.582,-2.4469,-2.3703,-2.2995,-2.2517,-2.2384,-2.2347,-2.2347,-2.2347,-2.2482,-2.2359,-2.1491,-2.1428,-2.1186,-2.0017,-1.9538,-1.9074,-1.8378,-1.7999,-1.7744,-1.7367,-1.7464,-1.7606,-1.7606,-1.7377,-1.7344,-1.7648,-1.7381,-1.7388,-1.7854,-1.7885,-1.8008,-1.8312,-1.7196,-1.6609,-1.6655,-1.5338,-1.4569,-1.4569,-1.4569,-1.4569,-1.4569,-1.4569,-1.4569,-1.4569,-1.4569,-1.4569,-1.4569,-1.4569,-1.4569,-1.4593,-1.5038,-1.5189,-1.5081,-1.4757,-1.3899,-1.2765,-1.2072,-1.1154,-1.0294,-2.9075,-2.9091,-2.9075,-2.9091,-2.8967,-2.8904,-2.8904,-2.8748,-2.8854,-2.9441,-2.9481,-2.9658,-3.0289,-3.092,-3.1074,-3.0422,-3.0431,-3.0233,-2.9564,-2.884,-2.8463,-2.8507,-2.7982,-2.7398,-2.6823,-2.6823,-2.6823,-2.6823,-2.6823,-2.6823,-2.6823,-2.6823,-2.6823,-2.6823,-2.6823,-2.7135,-2.7637,-2.7637,-2.799,-2.8519,-2.8519,-2.8403,-2.83,-2.8509,-2.8406,-2.8079,-2.8079,-2.7934,-2.7776,-2.759,-2.7523,-2.7523,-2.7523,-2.7523,-2.7523,-2.7471,-2.6961,-2.6244,-2.5127,-2.4361,-2.3766,-2.3153,-2.3027,-2.3027,-2.3027,-2.3543,-2.3616,-2.2298,-2.2531,-2.2531,-2.1204,-2.1073,-2.0688,-1.9148,-1.9275,-1.8999,-1.7511,-1.8032,-1.8589,-1.8589,-1.8479,-1.8319,-1.8137,-1.8036,-1.8051,-1.8299,-1.833,-1.8267,-1.8035,-1.792,-1.7248,-1.5903,-1.5062,-1.4569,-1.4569,-1.4569,-1.4569,-1.4569,-1.4569,-1.4569,-1.4569,-1.4569,-1.4569,-1.4569,-1.4569,-1.4569,-1.4593,-1.5038,-1.4824,-1.4221,-1.3787,-1.3212,-1.2444,-1.1668,-1.1322,-1.1154,-2.9075,-2.9075,-2.9075,-2.9075,-2.9075,-2.9013,-2.9013,-2.8982,-2.8951,-2.909,-2.9397,-2.9825,-3.0351,-3.0997,-3.1443,-3.1628,-3.1711,-3.1631,-3.1372,-3.1107,-3.0283,-2.8754,-2.8813,-2.8552,-2.7922,-2.7922,-2.7922,-2.7922,-2.7922,-2.7922,-2.7922,-2.7922,-2.7922,-2.7922,-2.7922,-2.8044,-2.8261,-2.8261,-2.8383,-2.8587,-2.8587,-2.8522,-2.8509,-2.8587,-2.8522,-2.8406,-2.8145,-2.8118,-2.8105,-2.7776,-2.7723,-2.7723,-2.7723,-2.759,-2.7523,-2.7523,-2.7379,-2.7027,-2.6242,-2.5374,-2.4503,-2.3875,-2.3734,-2.3734,-2.3734,-2.3923,-2.3865,-2.2907,-2.2895,-2.2847,-2.1865,-2.1193,-2.0708,-2.0335,-1.9607,-1.8955,-1.8671,-1.8654,-1.8687,-1.8687,-1.8588,-1.8585,-1.8814,-1.8647,-1.8649,-1.8916,-1.8947,-1.8889,-1.871,-1.824,-1.755,-1.6524,-1.6175,-1.5542,-1.4641,-1.4569,-1.4569,-1.4569,-1.4569,-1.4569,-1.4569,-1.4569,-1.4569,-1.4569,-1.4569,-1.4569,-1.4577,-1.4792,-1.4828,-1.4749,-1.3761,-1.3287,-1.2965,-1.1908,-1.1373,-1.1241,-2.9075,-2.9075,-2.9075,-2.9075,-2.9075,-2.9075,-2.9075,-2.9075,-2.9155,-2.9468,-2.984,-3.0363,-3.1004,-3.1497,-3.1944,-3.2351,-3.2398,-3.2398,-3.2398,-3.2398,-3.1554,-2.9649,-2.9903,-2.9842,-2.9198,-2.9198,-2.9198,-2.9198,-2.9198,-2.9071,-2.8881,-2.8881,-2.8766,-2.8587,-2.8587,-2.8587,-2.8587,-2.8587,-2.8587,-2.8587,-2.8587,-2.8587,-2.8587,-2.8587,-2.8587,-2.8522,-2.8262,-2.8249,-2.8287,-2.7987,-2.7855,-2.7855,-2.7855,-2.7789,-2.759,-2.7523,-2.7523,-2.7406,-2.6831,-2.5968,-2.5092,-2.453,-2.4243,-2.4112,-2.4112,-2.4112,-2.3923,-2.322,-2.328,-2.322,-2.2531,-2.1752,-2.1268,-2.1222,-2.02,-1.9437,-1.9397,-1.9255,-1.9146,-1.9146,-1.9033,-1.9111,-1.9372,-1.9265,-1.9254,-1.9386,-1.9351,-1.9208,-1.9142,-1.8654,-1.8037,-1.7276,-1.7276,-1.6515,-1.4991,-1.4991,-1.4856,-1.4569,-1.4569,-1.4569,-1.4569,-1.4569,-1.4569,-1.4569,-1.4569,-1.4569,-1.4569,-1.4569,-1.4792,-1.4949,-1.3923,-1.3663,-1.3796,-1.2757,-1.238,-1.226,-2.9075,-2.9075,-2.9075,-2.9075,-2.9075,-2.9075,-2.9075,-2.8967,-2.9407,-3.0835,-3.0908,-3.1254,-3.2478,-3.2578,-3.2523,-3.2398,-3.2398,-3.2398,-3.2398,-3.2398,-3.2104,-3.1537,-3.148,-3.119,-3.051,-3.0524,-3.0524,-3.0524,-3.0524,-3.0147,-2.9504,-2.9504,-2.9156,-2.8587,-2.8587,-2.8587,-2.8587,-2.8587,-2.8587,-2.8587,-2.8587,-2.8587,-2.8587,-2.8587,-2.8587,-2.8587,-2.8365,-2.8287,-2.83,-2.8131,-2.8079,-2.8079,-2.8079,-2.7934,-2.7789,-2.759,-2.7523,-2.7406,-2.6831,-2.6269,-2.5694,-2.5118,-2.4543,-2.4112,-2.4112,-2.4112,-2.3923,-2.322,-2.3662,-2.3923,-2.322,-2.3088,-2.272,-2.1583,-2.1225,-2.071,-1.9547,-1.9781,-2.0085,-2.0085,-2.0085,-2.0074,-1.9933,-1.9868,-1.9813,-1.9605,-1.9407,-1.9208,-1.9142,-1.9075,-1.8787,-1.8037,-1.8037,-1.7276,-1.5833,-1.5833,-1.5409,-1.4569,-1.4569,-1.4569,-1.4569,-1.4569,-1.4569,-1.4569,-1.4569,-1.4569,-1.4569,-1.4569,-1.4569,-1.4601,-1.429,-1.4386,-1.4621,-1.4313,-1.4378,-1.4566,-2.9075,-2.9075,-2.9075,-2.9075,-2.9075,-2.9075,-2.9075,-2.9075,-2.936,-3.0192,-3.0253,-3.072,-3.1924,-3.2027,-3.216,-3.2532,-3.2523,-3.2523,-3.2398,-3.2398,-3.2342,-3.216,-3.1709,-3.119,-3.051,-3.0524,-3.0524,-3.0524,-3.0524,-3.0147,-2.9504,-2.9504,-2.9156,-2.8587,-2.8587,-2.8587,-2.8587,-2.8587,-2.8587,-2.8587,-2.8587,-2.8587,-2.8587,-2.8587,-2.8587,-2.8587,-2.8365,-2.8365,-2.8509,-2.8314,-2.8235,-2.817,-2.7987,-2.7855,-2.7789,-2.759,-2.7523,-2.7497,-2.7314,-2.6857,-2.619,-2.5271,-2.4543,-2.4112,-2.4112,-2.4112,-2.4054,-2.3852,-2.3982,-2.4054,-2.3852,-2.304,-2.2299,-2.1958,-2.102,-2.0279,-1.9943,-1.9987,-2.0085,-2.0085,-2.0085,-2.0074,-2.0009,-2.0009,-1.9944,-1.9605,-1.9341,-1.9142,-1.9075,-1.9075,-1.8998,-1.8798,-1.8787,-1.8307,-1.7345,-1.6315,-1.5409,-1.4569,-1.4569,-1.4569,-1.4569,-1.4569,-1.4569,-1.4569,-1.4569,-1.4569,-1.4569,-1.4569,-1.4569,-1.4577,-1.4099,-1.4253,-1.4676,-1.4073,-1.4286,-1.4566,-2.9075,-2.9075,-2.9075,-2.9075,-2.9075,-2.9216,-2.9501,-2.9548,-2.9848,-3.0793,-3.0919,-3.1278,-3.2222,-3.2295,-3.2413,-3.2672,-3.2648,-3.2523,-3.2398,-3.2398,-3.2398,-3.2398,-3.2048,-3.1637,-3.1276,-3.1276,-3.1276,-3.1276,-3.1276,-3.0911,-3.0315,-3.0011,-2.9594,-2.8944,-2.8716,-2.8587,-2.8587,-2.8587,-2.8587,-2.8587,-2.8587,-2.8587,-2.8587,-2.8587,-2.8587,-2.8587,-2.8444,-2.8509,-2.8587,-2.8444,-2.843,-2.8379,-2.8105,-2.7987,-2.7868,-2.7656,-2.759,-2.7523,-2.7523,-2.7171,-2.6568,-2.5874,-2.504,-2.4387,-2.4164,-2.4112,-2.4112,-2.4112,-2.4112,-2.4112,-2.4112,-2.3233,-2.2408,-2.2163,-2.1187,-2.0388,-2.0151,-2.0085,-2.0085,-2.0085,-2.0085,-2.0085,-2.0085,-2.0085,-2.0009,-1.9736,-1.9539,-1.9341,-1.9208,-1.9208,-1.9142,-1.9075,-1.9075,-1.8721,-1.8037,-1.6793,-1.5824,-1.5062,-1.4776,-1.4569,-1.4569,-1.4569,-1.4569,-1.4569,-1.4569,-1.4569,-1.4569,-1.4569,-1.4569,-1.4569,-1.4274,-1.4459,-1.4881,-1.4624,-1.4844,-1.5226,-2.9216,-2.9216,-2.9201,-2.9264,-2.9264,-2.9532,-3.018,-3.0275,-3.0749,-3.2143,-3.2317,-3.2534,-3.3071,-3.3096,-3.3058,-3.2897,-3.2718,-3.2523,-3.2398,-3.2398,-3.2398,-3.2398,-3.2398,-3.2398,-3.2398,-3.2398,-3.2398,-3.2398,-3.2398,-3.2104,-3.148,-3.0881,-3.0254,-2.958,-2.9008,-2.8766,-2.8766,-2.8766,-2.8716,-2.8716,-2.8716,-2.8651,-2.8587,-2.8587,-2.8587,-2.8587,-2.8587,-2.8587,-2.8587,-2.8587,-2.8587,-2.8587,-2.8365,-2.8249,-2.8079,-2.7855,-2.7723,-2.7536,-2.7536,-2.7275,-2.6984,-2.6816,-2.5952,-2.5022,-2.4334,-2.4151,-2.4112,-2.4112,-2.4112,-2.4054,-2.4054,-2.3471,-2.2834,-2.2224,-2.1553,-2.088,-2.0335,-2.0205,-2.0205,-2.0205,-2.0151,-2.0085,-2.0085,-2.0085,-2.0009,-1.9933,-1.9868,-1.9736,-1.9351,-1.9351,-1.9274,-1.9142,-1.9131,-1.8798,-1.8104,-1.7276,-1.6524,-1.5762,-1.4991,-1.4569,-1.4569,-1.4569,-1.4569,-1.4569,-1.4569,-1.4569,-1.4569,-1.4569,-1.4569,-1.4569,-1.4569,-1.4863,-1.5221,-1.5523,-1.5856,-1.6206,-2.9848,-2.9959,-3.0133,-3.067,-3.0765,-3.0812,-3.097,-3.0986,-3.1302,-3.2206,-3.2317,-3.2534,-3.3177,-3.3256,-3.315,-3.2897,-3.2648,-3.2453,-3.2398,-3.2398,-3.2398,-3.2398,-3.2398,-3.2398,-3.2398,-3.2398,-3.2398,-3.2398,-3.2398,-3.2104,-3.148,-3.1364,-3.094,-3.0269,-3.0162,-3.0101,-3.0101,-3.0101,-2.978,-2.9268,-2.9268,-2.9044,-2.8587,-2.8587,-2.8587,-2.8587,-2.8587,-2.8587,-2.8587,-2.8587,-2.8587,-2.8587,-2.8365,-2.83,-2.8235,-2.8066,-2.8,-2.7947,-2.7947,-2.792,-2.7708,-2.7229,-2.6924,-2.6396,-2.5074,-2.4439,-2.4112,-2.4112,-2.4112,-2.3923,-2.3412,-2.2786,-2.2286,-2.2101,-2.1553,-2.125,-2.1616,-2.1187,-2.088,-2.088,-2.0453,-2.0085,-2.0085,-2.0009,-1.9933,-1.9868,-1.9736,-1.9605,-1.9539,-1.9539,-1.9539,-1.9473,-1.9341,-1.9208,-1.9008,-1.7628,-1.6524,-1.5762,-1.4991,-1.4569,-1.4569,-1.4569,-1.4569,-1.4569,-1.4569,-1.4569,-1.4569,-1.4569,-1.4569,-1.4569,-1.4569,-1.4863,-1.5197,-1.5268,-1.5499,-1.5801,-3.0353,-3.0577,-3.0796,-3.116,-3.1223,-3.1334,-3.1665,-3.1713,-3.1966,-3.2677,-3.2756,-3.2898,-3.3261,-3.3309,-3.3203,-3.3005,-3.2773,-3.2594,-3.2523,-3.2453,-3.2398,-3.2398,-3.2398,-3.2398,-3.2398,-3.2398,-3.2398,-3.2398,-3.2398,-3.2231,-3.1936,-3.1652,-3.1306,-3.094,-3.0629,-3.0524,-3.0524,-3.0524,-3.0329,-2.995,-2.9628,-2.9331,-2.8994,-2.8716,-2.8587,-2.8587,-2.8587,-2.8587,-2.8587,-2.8587,-2.8587,-2.8587,-2.8509,-2.8365,-2.83,-2.8249,-2.8131,-2.8079,-2.8079,-2.8131,-2.8117,-2.7744,-2.7464,-2.6943,-2.5467,-2.4846,-2.4498,-2.4178,-2.4112,-2.3982,-2.3662,-2.3292,-2.2919,-2.2665,-2.2286,-2.2039,-2.2101,-2.1491,-2.1123,-2.1123,-2.0518,-2.0085,-2.0085,-2.0009,-2.0009,-2.0009,-1.9878,-1.9813,-1.9736,-1.9736,-1.9671,-1.9605,-1.9483,-1.9407,-1.9407,-1.8172,-1.7345,-1.6941,-1.5338,-1.4569,-1.4569,-1.4569,-1.4569,-1.4569,-1.4569,-1.4569,-1.4569,-1.4569,-1.4569,-1.4569,-1.4569,-1.476,-1.4943,-1.5125,-1.5396,-1.5674,-3.1008,-3.1294,-3.1561,-3.1688,-3.1621,-3.1776,-3.2361,-3.244,-3.2645,-3.323,-3.3309,-3.3309,-3.3309,-3.3309,-3.3203,-3.3112,-3.3005,-3.2843,-3.2648,-3.2523,-3.2453,-3.2453,-3.2398,-3.2398,-3.2398,-3.2398,-3.2398,-3.2398,-3.2398,-3.2398,-3.2398,-3.1879,-3.1652,-3.1652,-3.1043,-3.0807,-3.0807,-3.0807,-3.0763,-3.0629,-3.0072,-2.9752,-2.9642,-2.9135,-2.883,-2.8766,-2.8894,-2.883,-2.8766,-2.8651,-2.8587,-2.8587,-2.8587,-2.8509,-2.8365,-2.8365,-2.8249,-2.821,-2.821,-2.8249,-2.83,-2.8197,-2.79,-2.7319,-2.5927,-2.5408,-2.4985,-2.423,-2.4112,-2.4054,-2.3923,-2.3923,-2.3734,-2.3207,-2.3088,-2.2967,-2.2482,-2.1741,-2.125,-2.125,-2.0571,-2.0085,-2.0085,-2.0085,-2.0085,-2.0085,-2.0085,-2.0074,-1.9933,-1.9933,-1.9868,-1.9681,-1.9671,-1.9605,-1.9605,-1.8721,-1.824,-1.8172,-1.6026,-1.5054,-1.4991,-1.4848,-1.4784,-1.4776,-1.4641,-1.4569,-1.4569,-1.4569,-1.4569,-1.4569,-1.4569,-1.4569,-1.4601,-1.4982,-1.5261,-1.5499,-3.2215,-3.2555,-3.2951,-3.3596,-3.3304,-3.3056,-3.3151,-3.3166,-3.3198,-3.3293,-3.3309,-3.3309,-3.3309,-3.3203,-3.3096,-3.3096,-3.3005,-3.2897,-3.2843,-3.2648,-3.2578,-3.2578,-3.2453,-3.2398,-3.2398,-3.2398,-3.2398,-3.2398,-3.2398,-3.2398,-3.2398,-3.2342,-3.2287,-3.2272,-3.216,-3.216,-3.216,-3.216,-3.1823,-3.1364,-3.1248,-3.0881,-3.0329,-3.0283,-2.9889,-2.9456,-3.0025,-2.9903,-2.9282,-2.8766,-2.8587,-2.8587,-2.8587,-2.8587,-2.8587,-2.8587,-2.8522,-2.8522,-2.8522,-2.8522,-2.8587,-2.8522,-2.8468,-2.8238,-2.7373,-2.6174,-2.4985,-2.423,-2.4112,-2.3923,-2.3339,-2.322,-2.322,-2.3088,-2.3088,-2.328,-2.3734,-2.2738,-2.1978,-2.1978,-2.088,-2.0085,-2.0085,-2.0085,-2.0085,-2.0085,-2.0085,-2.0074,-2.0074,-2.0074,-2.0074,-2.0009,-1.9944,-1.9802,-1.9605,-1.8854,-1.8375,-1.8182,-1.7189,-1.6706,-1.6585,-1.5895,-1.5621,-1.5621,-1.4919,-1.4569,-1.4569,-1.4569,-1.4569,-1.4569,-1.4569,-1.4569,-1.4649,-1.4697,-1.4744,-1.4784,-3.3349,-3.3261,-3.3177,-3.3971,-3.3658,-3.3309,-3.3309,-3.3309,-3.3309,-3.3309,-3.3309,-3.3309,-3.3309,-3.3256,-3.3203,-3.3203,-3.3112,-3.3005,-3.3005,-3.2827,-3.2773,-3.2773,-3.2718,-3.2648,-3.2648,-3.2648,-3.2648,-3.2523,-3.2453,-3.2398,-3.2398,-3.2398,-3.2398,-3.2398,-3.2398,-3.2398,-3.2398,-3.2398,-3.2231,-3.1992,-3.1652,-3.1306,-3.0999,-3.0629,-3.0329,-3.0072,-2.995,-2.9766,-2.9393,-2.8817,-2.8587,-2.8587,-2.8587,-2.8587,-2.8587,-2.8587,-2.8587,-2.8587,-2.8587,-2.8587,-2.8587,-2.8587,-2.8587,-2.8438,-2.7665,-2.6988,-2.6161,-2.4945,-2.4702,-2.4478,-2.3785,-2.3662,-2.3662,-2.3662,-2.3662,-2.3734,-2.4054,-2.3292,-2.2531,-2.2163,-2.1553,-2.106,-2.07,-2.0635,-2.0518,-2.0151,-2.0085,-2.0085,-2.0085,-2.0085,-2.0085,-2.0085,-2.0009,-1.9944,-1.9878,-1.9462,-1.9253,-1.9121,-1.87,-1.8017,-1.6982,-1.6167,-1.5833,-1.5762,-1.4919,-1.4569,-1.4569,-1.4569,-1.4569,-1.4569,-1.4569,-1.4569,-1.4569,-1.4569,-1.4569,-1.4569]},{"header":{"parameterUnit":"m.s-1","parameterCategory":1,"la1":30.6,"la2":28.766,"lo1":-90.7593,"lo2":-88.6598,"dy":0.0162,"dx":0.0183,"nx":116,"ny":114,"refTime":"2024-05-31T18:00:00:Z","depth":0,"parameterNumber":3,"parameterNumberName":"V-component_of_WINDS"},"data":[0.0,0.0,0.0,0.0,0.0,0.0,0.0,0.0,0.0,0.0,0.0,0.0,0.0,0.0,0.0,0.0,0.0,0.0,0.0,0.0,0.0,0.0,0.0,0.0,0.0,0.0,0.0,0.0,0.0,0.0,0.0,0.0,0.0,0.0,0.0,0.0,0.0,0.0,0.0,0.0,0.0,0.0,0.0,0.0,0.0,0.0,0.0,0.0,0.0,0.0,0.0,0.0,0.0,0.0,0.0,0.0,0.0,0.0,0.0,0.0,0.0,0.0,0.0,0.0,0.0,0.0,0.0,0.0,0.0,0.0,0.0,0.0,0.0,0.0,0.0,0.0,0.0,0.0,0.0,0.0,0.0,0.0,0.0,0.0,0.0,0.0,0.0,0.0,0.0,0.0,0.0,0.0,0.0,0.0,0.0,0.0,0.0,0.0,0.0,0.0,0.0,0.0,0.0,0.0,0.0,0.0,0.0,0.0,0.0,0.0,0.0,0.0,0.0,0.0,0.0,0.0,0.0,0.0,0.0,0.0,0.0,0.0,0.0,0.0,0.0,0.0,0.0,0.0,0.0,0.0,0.0,0.0,0.0,0.0,0.0,0.0,0.0,0.0,0.0,0.0,0.0,0.0,0.0,0.0,0.0,0.0,0.0,0.0,0.0,0.0,0.0,0.0,0.0,0.0,0.0,0.0,0.0,0.0,0.0,0.0,0.0,0.0,0.0,0.0,0.0,0.0,0.0,0.0,0.0,0.0,0.0,0.0,0.0,0.0,0.0,0.0,0.0,0.0,0.0,0.0,0.0,0.0,0.0,0.0,0.0,0.0,0.0,0.0,0.0,0.0,0.0,0.0,0.0,0.0,0.0,0.0,0.0,0.0,0.0,0.0,0.0,0.0,0.0,0.0,0.0,0.0,0.0,0.0,0.0,0.0,0.0,0.0,0.0,0.0,0.0,0.0,0.0,0.0,0.0,0.0,0.0,0.0,0.0,0.0,0.0,0.0,0.0,0.0,0.0,0.0,0.0,0.0,0.0,0.0,0.0,0.0,0.0,0.0,0.0,0.0,0.0,0.0,0.0,0.0,0.0,0.0,0.0,0.0,0.0,0.0,0.0,0.0,0.0,0.0,0.0,0.0,0.0,0.0,0.0,0.0,0.0,0.0,0.0,0.0,0.0,0.0,0.0,0.0,0.0,0.0,0.0,0.0,0.0,0.0,0.0,0.0,0.0,0.0,0.0,0.0,0.0,0.0,0.0,0.0,0.0,0.0,0.0,0.0,0.0,0.0,0.0,0.0,0.0,0.0,0.0,0.0,0.0,0.0,0.0,0.0,0.0,0.0,0.0,0.0,0.0,0.0,0.0,0.0,0.0,0.0,0.0,0.0,0.0,0.0,0.0,0.0,0.0,0.0,0.0,0.0,0.0,0.0,0.0,0.0,0.0,0.0,0.0,0.0,0.0,0.0,0.0,0.0,0.0,0.0,0.0,0.0,0.0,0.0,0.0,0.0,0.0,0.0,0.0,0.0,0.0,0.0,0.0,0.0,0.0,0.0,0.0,0.0,0.0,0.0,0.0,0.0,0.0,0.0,0.0,0.0,0.0,0.0,0.0,0.0,0.0,0.0,0.0,0.0,0.0,0.0,0.0,0.0,0.0,0.0,0.0,0.0,0.0,0.0,0.0,0.0,0.0,0.0,0.0,0.0,0.0,0.0,0.0,0.0,0.0,0.0,0.0,0.0,0.0,0.0,0.0,0.0,0.0,0.0,0.0,0.0,0.0,0.0,0.0,0.0,0.0,0.0,0.0,0.0,0.0,0.0,0.0,0.0,0.0,0.0,0.0,0.0,0.0,0.0,0.0,0.0,0.0,0.0,0.0,0.0,0.0,0.0,0.0,0.0,0.0,0.0,0.0,0.0,0.0,0.0,0.0,0.0,0.0,0.0,0.0,0.0,0.0,0.0,0.0,0.0,0.0,0.0,0.0,0.0,0.0,0.0,0.0,0.0,0.0,0.0,0.0,0.0,0.0,0.0,0.0,0.0,0.0,0.0,0.0,0.0,0.0,0.0,0.0,0.0,0.0,0.0,0.0,0.0,0.0,0.0,0.0,0.0,0.0,0.0,0.0,0.0,0.0,0.0,0.0,0.0,0.0,0.0,0.0,0.0,0.0,0.0,0.0,0.0,0.0,0.0,0.0,0.0,0.0,0.0,0.0,0.0,0.0,0.0,0.0,0.0,0.0,0.0,0.0,0.0,0.0,0.0,0.0,0.0,0.0,0.0,0.0,0.0,0.0,0.0,0.0,0.0,0.0,0.0,0.0,0.0,0.0,0.0,0.0,0.0,0.0,0.0,0.0,0.0,0.0,0.0,0.0,0.0,0.0,0.0,0.0,0.0,0.0,0.0,0.0,0.0,0.0,0.0,0.0,0.0,0.0,0.0,0.0,0.0,0.0,0.0,0.0,0.0,0.0,0.0,0.0,0.0,0.0,0.0,0.0,0.0,0.0,0.0,0.0,0.0,0.0,0.0,0.0,0.0,0.0,0.0,0.0,0.0,0.0,0.0,0.0,0.0,0.0,0.0,0.0,0.0,0.0,0.0,0.0,0.0,0.0,0.0,0.0,0.0,0.0,0.0,0.0,0.0,0.0,0.0,0.0,0.0,0.0,0.0,0.0,0.0,0.0,0.0,0.0,0.0,0.0,0.0,0.0,0.0,0.0,0.0,0.0,0.0,0.0,0.0,0.0,0.0,0.0,0.0,0.0,0.0,0.0,0.0,0.0,0.0,0.0,0.0,0.0,0.0,0.0,0.0,0.0,0.0,0.0,0.0,0.0,0.0,0.0,0.0,0.0,0.0,0.0,0.0,0.0,0.0,0.0,0.0,0.0,0.0,0.0,0.0,0.0,0.0,0.0,0.0,0.0,0.0,0.0,0.0,0.0,0.0,0.0,0.0,0.0,0.0,0.0,0.0,0.0,0.0,0.0,0.0,0.0,0.0,0.0,0.0,0.0,0.0,0.0,0.0,0.0,0.0,0.0,0.0,0.0,0.0,0.0,0.0,0.0,0.0,0.0,0.0,0.0,0.0,0.0,0.0,0.0,0.0,0.0,0.0,0.0,0.0,0.0,0.0,0.0,0.0,0.0,0.0,0.0,0.0,0.0,0.0,0.0,0.0,0.0,0.0,0.0,0.0,0.0,0.0,0.0,0.0,0.0,0.0,0.0,0.0,0.0,0.0,0.0,0.0,0.0,0.0,0.0,0.0,0.0,0.0,0.0,0.0,0.0,0.0,0.0,0.0,0.0,0.0,0.0,0.0,0.0,0.0,0.0,0.0,0.0,0.0,0.0,0.0,0.0,0.0,0.0,0.0,0.0,0.0,0.0,0.0,0.0,0.0,0.0,0.0,0.0,0.0,0.0,0.0,0.0,0.0,0.0,0.0,0.0,0.0,0.0,0.0,0.0,0.0,0.0,0.0,0.0,0.0,0.0,0.0,0.0,0.0,0.0,0.0,0.0,0.0,0.0,0.0,0.0,0.0,0.0,0.0,0.0,0.0,0.0,0.0,0.0,0.0,0.0,0.0,0.0,0.0,0.0,0.0,0.0,0.0,0.0,0.0,0.0,0.0,0.0,0.0,0.0,0.0,0.0,0.0,0.0,0.0,0.0,0.0,0.0,0.0,0.0,0.0,0.0,0.0,0.0,0.0,0.0,0.0,0.0,0.0,0.0,0.0,0.0,0.0,0.0,0.0,0.0,0.0,0.0,0.0,0.0,0.0,0.0,0.0,0.0,0.0,0.0,0.0,0.0,0.0,0.0,0.0,0.0,0.0,0.0,0.0,0.0,0.0,0.0,0.0,0.0,0.0,0.0,0.0,0.0,0.0,0.0,0.0,0.0,0.0,0.0,0.0,0.0,0.0,0.0,0.0,0.0,0.0,0.0,0.0,0.0,0.0,0.0,0.0,0.0,0.0,0.0,0.0,0.0,0.0,0.0,0.0,0.0,0.0,0.0,0.0,0.0,0.0,0.0,0.0,0.0,0.0,0.0,0.0,0.0,0.0,0.0,0.0,0.0,0.0,0.0,0.0,0.0,0.0,0.0,0.0,0.0,0.0,0.0,0.0,0.0,0.0,0.0,0.0,0.0,0.0,0.0,0.0,0.0,0.0,0.0,0.0,0.0,0.0,0.0,0.0,0.0,0.0,0.0,0.0,0.0,0.0,0.0,0.0,0.0,0.0,0.0,0.0,0.0,0.0,0.0,0.0,0.0,0.0,0.0,0.0,0.0,0.0,0.0,0.0,0.0,0.0,0.0,0.0,0.0,0.0,0.0,0.0,0.0,0.0,0.0,0.0,0.0,0.0,0.0,0.0,0.0,0.0,0.0,0.0,0.0,0.0,0.0,0.0,0.0,0.0,0.0,0.0,0.0,0.0,0.0,0.0,0.0,0.0,0.0,0.0,0.0,0.0,0.0,0.0,0.0,0.0,0.0,0.0,0.0,0.0,0.0,0.0,0.0,0.0,0.0,0.0,0.0,0.0,0.0,0.0,0.0,0.0,0.0,0.0,0.0,0.0,0.0,0.0,0.0,0.0,0.0,0.0,0.0,0.0,0.0,0.0,0.0,0.0,0.0,0.0,0.0,0.0,0.0,0.0,0.0,0.0,0.0,0.0,0.0,0.0,0.0,0.0,0.0,0.0,0.0,0.0,0.0,0.0,0.0,0.0,0.0,0.0,0.0,0.0,0.0,0.0,0.0,0.0,0.0,0.0,0.0,0.0,0.0,0.0,0.0,0.0,0.0,0.0,0.0,0.0,0.0,0.0,0.0,0.0,0.0,0.0,0.0,0.0,0.0,0.0,0.0,0.0,0.0,0.0,0.0,0.0,0.0,0.0,0.0,0.0,0.0,0.0,0.0,0.0,0.0,0.0,0.0,0.0,0.0,0.0,0.0,0.0,0.0,0.0,0.0,0.0,0.0,0.0,0.0,0.0,0.0,0.0,0.0,0.0,0.0,0.0,0.0,0.0,0.0,0.0,0.0,0.0,0.0,0.0,0.0,0.0,0.0,0.0,0.0,0.0,0.0,0.0,0.0,0.0,0.0,0.0,0.0,0.0,0.0,0.0,0.0,0.0,0.0,0.0,0.0,0.0,0.0,0.0,0.0,0.0,0.0,0.0,0.0,0.0,0.0,0.0,0.0,0.0,0.0,0.0,0.0,0.0,0.0,0.0,0.0,0.0,0.0,0.0,0.0,0.0,0.0,0.0,0.0,0.0,0.0,0.0,0.0,0.0,0.0,0.0,0.0,0.0,0.0,0.0,0.0,0.0,0.0,0.0,0.0,0.0,0.0,0.0,0.0,0.0,0.0,0.0,0.0,0.0,0.0,0.0,0.0,0.0,0.0,0.0,0.0,0.0,0.0,0.0,0.0,0.0,0.0,0.0,0.0,0.0,0.0,0.0,0.0,0.0,0.0,0.0,0.0,0.0,0.0,0.0,0.0,0.0,0.0,0.0,0.0,0.0,0.0,0.0,0.0,0.0,0.0,0.0,0.0,0.0,0.0,0.0,0.0,0.0,0.0,0.0,0.0,0.0,0.0,0.0,0.0,0.0,0.0,0.0,0.0,0.0,0.0,0.0,0.0,0.0,0.0,0.0,0.0,0.0,0.0,0.0,0.0,0.0,0.0,0.0,0.0,0.0,0.0,0.0,0.0,0.0,0.0,0.0,0.0,0.0,0.0,0.0,0.0,0.0,0.0,0.0,0.0,0.0,0.0,0.0,0.0,0.0,0.0,0.0,0.0,0.0,0.0,0.0,0.0,0.0,0.0,0.0,0.0,0.0,0.0,0.0,0.0,0.0,0.0,0.0,0.0,0.0,0.0,0.0,0.0,0.0,0.0,0.0,0.0,0.0,0.0,0.0,0.0,0.0,0.0,0.0,0.0,0.0,0.0,0.0,0.0,0.0,0.0,0.0,0.0,0.0,0.0,0.0,0.0,0.0,0.0,0.0,0.0,0.0,0.0,0.0,0.0,0.0,0.0,0.0,0.0,0.0,0.0,0.0,0.0,0.0,0.0,0.0,0.0,0.0,0.0,0.0,0.0,0.0,0.0,0.0,-2.2328,-2.0857,0.0,0.0,0.0,0.0,0.0,0.0,0.0,0.0,0.0,0.0,0.0,0.0,0.0,0.0,0.0,0.0,0.0,0.0,0.0,0.0,0.0,0.0,0.0,-0.95,-0.9525,-0.9593,-0.968,-0.9787,-0.9837,0.0,0.0,0.0,0.0,0.0,-1.0006,-1.0385,-1.077,-1.1205,-1.2107,-1.3003,-1.3892,-1.3466,-1.259,-1.1409,0.0,0.0,0.0,0.0,0.0,0.0,0.0,0.0,0.0,0.0,0.0,0.0,0.0,0.0,0.0,0.0,0.0,0.0,0.0,0.0,0.0,0.0,0.0,0.0,0.0,0.0,0.0,0.0,0.0,0.0,0.0,0.0,0.0,0.0,0.0,0.0,0.0,0.0,0.0,0.0,0.0,0.0,0.0,0.0,0.0,0.0,0.0,0.0,0.0,0.0,0.0,0.0,0.0,0.0,0.0,0.0,0.0,0.0,0.0,0.0,0.0,0.0,0.0,0.0,0.0,0.0,0.0,0.0,0.0,0.0,-2.6332,-2.4588,0.0,0.0,0.0,0.0,0.0,0.0,0.0,0.0,0.0,0.0,0.0,0.0,0.0,0.0,0.0,0.0,0.0,0.0,0.0,0.0,0.0,-0.9555,-0.9689,-0.9733,-0.9848,-1.0102,-1.0206,-1.0285,-1.0332,-1.0256,0.0,0.0,0.0,-1.0215,-1.0215,-1.1143,-1.1996,-1.2731,-1.3961,-1.5521,-1.7271,-1.7288,-1.6122,-1.4043,-1.3794,0.0,0.0,0.0,0.0,0.0,0.0,0.0,0.0,0.0,0.0,0.0,0.0,0.0,0.0,0.0,0.0,0.0,0.0,0.0,0.0,0.0,0.0,0.0,0.0,0.0,0.0,0.0,0.0,0.0,0.0,0.0,0.0,0.0,0.0,0.0,0.0,0.0,0.0,0.0,0.0,0.0,0.0,0.0,0.0,0.0,0.0,0.0,0.0,0.0,0.0,0.0,0.0,0.0,0.0,0.0,0.0,0.0,0.0,0.0,0.0,0.0,0.0,0.0,-3.1333,-3.2108,-3.2683,-3.341,-3.3818,-3.3798,-3.0923,-2.9362,-2.8768,-2.7761,0.0,0.0,0.0,0.0,0.0,0.0,0.0,0.0,0.0,0.0,0.0,0.0,0.0,0.0,0.0,0.0,0.0,0.0,0.0,-0.9762,-1.0467,-1.0647,-1.1001,-1.1719,-1.1948,-1.2053,-1.2068,-1.1427,0.0,0.0,-1.1048,-1.1048,-1.1048,-1.2565,-1.3458,-1.3626,-1.6071,-1.8203,-1.9986,-1.9993,-1.9795,-1.939,-1.7838,-1.7178,-1.7101,0.0,0.0,0.0,0.0,0.0,0.0,0.0,0.0,0.0,0.0,0.0,0.0,0.0,0.0,0.0,0.0,0.0,0.0,0.0,0.0,0.0,0.0,0.0,0.0,0.0,0.0,0.0,0.0,0.0,0.0,0.0,0.0,0.0,0.0,0.0,0.0,0.0,0.0,0.0,0.0,0.0,-2.0091,-2.1301,0.0,0.0,0.0,0.0,0.0,0.0,0.0,0.0,0.0,0.0,0.0,0.0,0.0,-3.0345,-3.1315,-3.3523,-3.4354,-3.3852,-3.5469,-3.5915,-3.5313,-3.543,-3.5877,-3.6576,-3.611,0.0,-3.1373,-2.9747,0.0,0.0,0.0,0.0,0.0,0.0,0.0,0.0,0.0,0.0,0.0,0.0,0.0,0.0,0.0,0.0,0.0,0.0,0.0,0.0,0.0,-1.1663,-1.2438,-1.2899,-1.3472,-1.3605,-1.3165,-1.2797,-1.2394,-1.1958,-1.192,-1.192,-1.192,-1.3565,-1.5411,-1.7405,-1.9511,-2.1275,-2.2634,-2.2555,-2.2829,-2.3381,-2.2503,-2.1085,-1.9197,-1.7435,0.0,0.0,0.0,0.0,0.0,0.0,0.0,0.0,0.0,0.0,0.0,0.0,0.0,0.0,0.0,0.0,0.0,0.0,0.0,0.0,0.0,0.0,0.0,0.0,0.0,0.0,0.0,0.0,0.0,0.0,0.0,0.0,0.0,0.0,0.0,0.0,0.0,0.0,0.0,-1.953,-2.2283,-2.3164,-2.3652,-2.3611,0.0,0.0,0.0,0.0,0.0,0.0,0.0,0.0,0.0,-3.1742,-3.2513,-3.3755,-3.5585,-3.6693,-3.7533,-3.811,-3.9373,-3.9761,-3.9412,-3.9897,-4.0344,-4.0694,-4.0694,-3.9565,-3.7491,-3.4302,-3.2517,-3.1675,0.0,0.0,0.0,0.0,-3.0595,-3.0696,0.0,0.0,0.0,0.0,0.0,0.0,0.0,0.0,0.0,0.0,0.0,0.0,-1.1746,-1.2947,-1.3943,-1.4512,-1.5169,-1.5318,-1.4706,-1.427,-1.3766,-1.3178,-1.2932,-1.2913,-1.314,-1.5212,-1.7912,-2.1171,-2.241,-2.3562,-2.4581,-2.4481,-2.4872,-2.562,-2.5535,-2.4105,-2.1634,-1.989,-1.8528,-1.7374,0.0,0.0,0.0,0.0,0.0,0.0,0.0,0.0,0.0,0.0,0.0,0.0,0.0,0.0,0.0,0.0,0.0,0.0,0.0,0.0,0.0,0.0,0.0,0.0,0.0,0.0,0.0,0.0,0.0,0.0,0.0,0.0,0.0,0.0,0.0,0.0,0.0,-2.1874,-2.4235,-2.4665,-2.6015,-2.6405,0.0,0.0,0.0,0.0,0.0,0.0,-3.0746,-3.24,-3.3999,-3.5528,-3.6203,-3.7459,-3.9353,-3.9587,-4.0325,-4.1568,-4.2228,-4.252,-4.2539,-4.3199,-4.351,-4.351,-4.351,-4.3122,-4.2257,-3.8614,-3.6625,-3.583,-3.4948,-3.4596,-3.4683,-3.5337,-3.5295,-3.5201,0.0,0.0,0.0,0.0,0.0,0.0,0.0,0.0,0.0,0.0,0.0,-1.1765,-1.4077,-1.4615,-1.5443,-1.6975,-1.7282,-1.735,-1.7312,-1.5824,-1.4923,-1.4885,-1.4088,-1.4031,-1.4866,-1.8146,-2.1149,-2.3804,-2.388,-2.4424,-2.5337,-2.5337,-2.5356,-2.543,-2.5473,-2.5473,-2.5325,-2.3572,-2.1846,-2.0153,-1.8399,0.0,0.0,0.0,0.0,0.0,0.0,0.0,0.0,0.0,0.0,0.0,0.0,0.0,0.0,0.0,0.0,0.0,0.0,0.0,0.0,0.0,0.0,0.0,0.0,0.0,0.0,0.0,0.0,0.0,0.0,0.0,0.0,0.0,0.0,0.0,0.0,0.0,0.0,-2.5621,-2.8447,0.0,0.0,0.0,0.0,-3.0381,-3.1262,-3.2553,-3.4261,-3.5924,-3.726,-3.8177,-4.0567,-4.1888,-4.2015,-4.283,-4.3297,-4.3374,-4.3413,-4.3433,-4.3452,-4.3491,-4.351,-4.351,-4.351,-4.3491,-4.3297,-4.1412,-4.0163,-3.9357,-3.848,-3.8146,-3.8157,-3.819,-3.8714,-3.9403,0.0,0.0,0.0,0.0,0.0,-0.9394,-0.9394,-0.9403,-0.952,-0.9879,-1.1406,-1.2815,-1.3746,-1.5909,-1.7543,-1.8151,-1.876,-1.8865,-1.8316,-1.7226,-1.6847,-1.7359,-1.6601,-1.7055,-1.9011,-2.0802,-2.2437,-2.3943,-2.4543,-2.533,-2.6246,-2.6246,-2.6578,-2.7204,-2.7187,-2.6918,-2.6361,-2.4666,-2.3233,-2.2021,-2.0822,-1.8731,0.0,0.0,0.0,0.0,0.0,0.0,0.0,0.0,0.0,0.0,0.0,0.0,0.0,0.0,0.0,0.0,0.0,0.0,0.0,0.0,0.0,0.0,0.0,0.0,0.0,0.0,0.0,0.0,0.0,0.0,0.0,0.0,0.0,0.0,0.0,0.0,0.0,-2.8795,-3.095,0.0,-3.1106,-3.2358,-3.3219,-3.3205,-3.5009,-3.6637,-3.7813,-3.9466,-4.0779,-4.1646,-4.2558,-4.3316,-4.386,-4.4171,-4.4598,-4.5103,-4.5103,-4.5103,-4.5103,-4.5103,-4.5123,-4.5181,-4.5165,-4.5176,-4.5124,-4.449,-4.3422,-4.2119,-4.1807,-4.1669,-4.1673,-4.168,-4.1885,-4.2157,0.0,0.0,0.0,0.0,-0.9394,-0.9394,-0.9394,-0.9412,-0.9654,-1.0259,-1.2113,-1.3847,-1.5094,-1.7522,-1.9322,-1.9926,-2.024,-2.0164,-1.9585,-1.8505,-1.8145,-1.8676,-1.8458,-1.9409,-2.1678,-2.2577,-2.3457,-2.4339,-2.5239,-2.5985,-2.6603,-2.6911,-2.74,-2.8027,-2.8005,-2.7724,-2.7204,-2.6111,-2.4817,-2.3415,-2.2842,-2.1187,-1.8954,0.0,0.0,0.0,0.0,0.0,0.0,0.0,0.0,0.0,0.0,0.0,0.0,0.0,0.0,0.0,0.0,0.0,0.0,0.0,0.0,0.0,0.0,0.0,0.0,0.0,0.0,0.0,0.0,0.0,0.0,0.0,0.0,0.0,0.0,-2.8198,-3.0552,-3.1075,-3.3444,-3.4917,-3.4608,-3.5644,-3.6566,-3.7124,-3.8738,-4.0053,-4.0946,-4.2306,-4.3335,-4.3918,-4.421,-4.4617,-4.52,-4.522,-4.5512,-4.6026,-4.6024,-4.6021,-4.6025,-4.6025,-4.6059,-4.6099,-4.6094,-4.6093,-4.6108,-4.6102,-4.5414,-4.4389,-4.4389,-4.4389,-4.4389,-4.4389,-4.4389,-4.4382,0.0,0.0,0.0,-0.9385,-0.9394,-0.9394,-0.9394,-0.9448,-1.0087,-1.1744,-1.2882,-1.4813,-1.817,-1.9428,-2.0676,-2.2286,-2.168,-2.1187,-2.1168,-1.9623,-1.8713,-1.877,-1.9654,-2.0942,-2.2637,-2.3522,-2.4373,-2.5249,-2.6032,-2.6434,-2.651,-2.7351,-2.7772,-2.7791,-2.7854,-2.7952,-2.8034,-2.8112,-2.6732,-2.4507,-2.4491,-2.34,-2.1731,0.0,0.0,0.0,0.0,0.0,0.0,0.0,0.0,0.0,0.0,0.0,0.0,0.0,0.0,0.0,0.0,0.0,0.0,0.0,0.0,0.0,0.0,0.0,0.0,0.0,0.0,0.0,0.0,0.0,0.0,0.0,0.0,0.0,-2.7102,-3.1435,-3.4,-3.238,-3.5924,-3.8163,-3.7345,-3.8813,-4.048,-4.2121,-4.2277,-4.2646,-4.3501,-4.4375,-4.4841,-4.4841,-4.5599,-4.5988,-4.5998,-4.6065,-4.6096,-4.6092,-4.6099,-4.6105,-4.6106,-4.6106,-4.6106,-4.6106,-4.6108,-4.6108,-4.6108,-4.6108,-4.6108,-4.6108,-4.6106,-4.6106,-4.6106,-4.6106,-4.6106,-4.6104,0.0,0.0,-0.9348,-0.9394,-0.9394,-0.9394,-0.9394,-0.9412,-0.9825,-1.0986,-1.3021,-1.5,-1.66,-1.9231,-2.0827,-2.0695,-2.0998,-2.096,-2.0372,-1.9301,-1.9244,-2.0467,-2.2512,-2.3878,-2.439,-2.4643,-2.5201,-2.6058,-2.6343,-2.7116,-2.8365,-2.8653,-2.9119,-2.9727,-2.9747,-2.9429,-2.8867,-2.8894,-2.8136,-2.69,-2.6408,-2.5541,-2.4355,0.0,0.0,0.0,0.0,0.0,0.0,0.0,0.0,0.0,0.0,0.0,0.0,0.0,0.0,0.0,0.0,0.0,0.0,0.0,0.0,0.0,0.0,0.0,0.0,0.0,0.0,0.0,0.0,0.0,0.0,0.0,-2.9413,-3.1608,-3.1619,-3.3337,-3.512,-3.6537,-3.8839,-4.0429,-4.0836,-4.1824,-4.2658,-4.3111,-4.3779,-4.427,-4.4504,-4.5304,-4.5748,-4.5748,-4.5963,-4.6065,-4.6074,-4.6093,-4.6097,-4.6095,-4.6092,-4.6097,-4.6106,-4.6106,-4.6129,-4.6171,-4.617,-4.6163,-4.6173,-4.6175,-4.6162,-4.6171,-4.6113,-4.6106,-4.6106,-4.6106,-4.6106,-4.6106,0.0,-0.9273,-0.9394,-0.9394,-0.9394,-0.9394,-0.9394,-0.943,-0.9906,-1.1222,-1.3356,-1.5376,-1.7008,-1.9593,-2.1168,-2.1055,-2.1472,-2.1396,-2.0562,-2.0031,-2.0505,-2.2216,-2.3708,-2.4835,-2.5596,-2.559,-2.6035,-2.6906,-2.7312,-2.803,-2.902,-2.9437,-2.9894,-3.0367,-3.0367,-3.012,-2.9669,-2.9669,-2.94,-2.8925,-2.8177,-2.7336,-2.6371,-2.4638,-2.3608,-2.2945,-2.177,-2.1113,-2.081,-2.079,0.0,0.0,0.0,0.0,0.0,0.0,0.0,0.0,0.0,0.0,0.0,0.0,0.0,0.0,0.0,0.0,0.0,0.0,0.0,0.0,0.0,0.0,0.0,0.0,-3.2287,-3.4433,-3.5887,-3.6482,-3.7477,-3.9322,-4.0737,-4.2026,-4.3236,-4.3777,-4.4197,-4.4551,-4.509,-4.5392,-4.5399,-4.5848,-4.6102,-4.6102,-4.6102,-4.6102,-4.6106,-4.6127,-4.6131,-4.6133,-4.6133,-4.6131,-4.6143,-4.6143,-4.6161,-4.6189,-4.6195,-4.6197,-4.6201,-4.619,-4.6196,-4.6209,0.0,0.0,0.0,0.0,-4.6143,-4.6145,0.0,-0.9301,-0.9385,-0.9394,-0.9394,-0.9394,-0.9394,-0.9448,-1.0131,-1.1948,-1.371,-1.5762,-1.8276,-2.0134,-2.1472,-2.2154,-2.2381,-2.2173,-2.1396,-2.1434,-2.2166,-2.372,-2.3891,-2.4683,-2.6268,-2.6287,-2.677,-2.7744,-2.8526,-2.894,-2.9044,-2.9841,-3.0204,-3.0204,-3.0204,-3.0234,-3.0278,-3.0278,-3.0367,-3.0404,-2.9622,-2.8801,-2.7874,-2.6217,-2.5563,-2.5313,-2.3781,-2.2742,-2.2076,-2.2049,0.0,0.0,0.0,0.0,0.0,0.0,0.0,0.0,0.0,0.0,0.0,0.0,0.0,0.0,0.0,0.0,0.0,0.0,0.0,0.0,0.0,0.0,0.0,0.0,-3.4935,-3.626,-3.9491,-4.0018,-4.0351,-4.1074,-4.201,-4.3181,-4.4664,-4.4898,-4.5289,-4.6051,-4.611,-4.611,-4.6111,-4.6111,0.0,0.0,0.0,-4.6111,-4.6112,-4.6172,-4.6205,-4.6209,-4.6191,-4.6201,-4.6196,-4.6196,-4.6196,-4.6196,-4.6196,-4.6196,-4.6196,-4.6196,-4.6196,-4.6196,-4.6196,-4.6196,-4.6196,-4.6196,-4.6196,-4.6203,0.0,-0.9226,-0.9265,-0.9385,-0.9394,-0.9394,-0.9394,-0.9448,-1.0123,-1.1819,-1.3644,-1.5507,-1.7372,-1.9741,-2.1017,-2.0524,-2.1718,-2.2419,-2.2267,-2.2855,-2.3367,-2.3702,-2.4384,-2.5251,-2.6279,-2.6306,-2.7043,-2.8565,-2.8774,-2.9241,-2.9861,-3.0095,-3.0204,-3.0204,-3.0204,-3.0199,-3.0226,-3.0226,-3.0221,-3.0228,-3.0075,-2.9571,-2.8839,-2.7797,-2.7401,-2.7238,-2.629,-2.5835,-2.5584,-2.4911,-2.4126,-2.3463,-2.3443,0.0,0.0,0.0,0.0,0.0,0.0,0.0,0.0,0.0,0.0,0.0,0.0,0.0,0.0,0.0,0.0,0.0,0.0,0.0,0.0,-3.4355,-3.6381,-3.8486,-4.0565,-4.1401,-4.1896,-4.2103,-4.3464,-4.4528,-4.4844,-4.5527,-4.5996,-4.6165,-4.6175,-4.6183,-4.6182,-4.6182,-4.6182,-4.6182,-4.6182,-4.6177,-4.6187,-4.6192,-4.6206,-4.6203,-4.6189,0.0,-4.6196,-4.6196,-4.6196,-4.6196,-4.6196,-4.6196,-4.6196,-4.6196,-4.6196,-4.6196,-4.6196,-4.6196,-4.6196,-4.6196,-4.6196,-4.6203,-0.9106,-0.9243,-0.932,-0.9385,-0.9394,-0.9394,-0.9394,-0.943,-1.0051,-1.178,-1.3214,-1.4705,-1.641,-1.8117,-1.8998,-1.8584,-2.0149,-2.1708,-2.3007,-2.348,-2.3878,-2.4333,-2.5148,-2.6015,-2.6864,-2.7295,-2.8126,-2.941,-2.9421,-2.9679,-3.0098,-3.0128,-3.0147,-3.0161,-3.0157,-3.0142,-3.0161,-3.019,-3.0171,-3.0157,-3.0204,-2.9985,-2.9567,-2.8722,-2.8406,-2.8302,-2.7527,-2.6978,-2.6544,-2.6163,-2.5492,-2.481,-2.4846,-2.3901,-2.2721,0.0,0.0,0.0,0.0,0.0,0.0,0.0,0.0,0.0,0.0,0.0,0.0,0.0,0.0,-3.0414,0.0,0.0,-3.5343,-3.7506,-3.8948,-4.0409,-4.2104,-4.3078,-4.3611,-4.3655,-4.4397,-4.5074,-4.5519,-4.5948,-4.6195,-4.6197,-4.6206,-4.6209,-4.619,-4.619,-4.619,-4.619,-4.619,-4.6209,-4.6196,-4.6638,-4.6852,-4.6839,-4.6852,-4.708,-4.7482,-4.7053,-4.7092,-4.7501,-4.7501,-4.7501,-4.7462,-4.7033,-4.6585,-4.6196,-4.6196,-4.6196,-4.6196,-4.6196,-4.6196,-4.6196,-0.9056,-0.9241,-0.9347,-0.9366,-0.9385,-0.9394,-0.9394,-0.9403,-1.0023,-1.1741,-1.2745,-1.3951,-1.5674,-1.6599,-1.7218,-1.7565,-1.9088,-2.1061,-2.3498,-2.3846,-2.4257,-2.4972,-2.5768,-2.6622,-2.7475,-2.8294,-2.9125,-2.9972,-3.0007,-3.0038,-3.0102,-3.0102,-3.0117,-3.0117,-3.0128,-3.0128,-3.0117,-3.019,-3.0171,-3.0123,-3.0171,-3.0157,-3.0032,-2.9379,-2.9126,-2.902,-2.8107,-2.7328,-2.6696,-2.6495,-2.5962,-2.5379,-2.546,-2.4919,-2.4261,-2.4122,-2.3043,0.0,0.0,0.0,0.0,0.0,0.0,0.0,0.0,0.0,-2.8275,-2.9231,-3.1388,-3.3492,-3.4856,-3.6084,-3.7837,-4.0643,-4.1364,-4.2124,-4.3643,-4.4462,-4.4949,-4.5124,-4.5144,-4.5436,-4.6137,-4.6196,-4.6196,-4.6196,-4.6196,-4.6196,-4.6196,-4.6196,-4.6196,-4.6196,-4.6196,-4.6274,-4.6449,-4.715,-4.7579,-4.7754,-4.7754,-4.8125,-4.8787,-4.8066,-4.8144,-4.8806,-4.8806,-4.8806,-4.8748,-4.8047,-4.7345,-4.6702,-4.6702,-4.6702,-4.6663,-4.6313,-4.6196,-4.6196,0.0,-0.912,-0.9143,-0.9216,-0.932,-0.9394,-0.9394,-0.9403,-0.9986,-1.1603,-1.268,-1.3915,-1.5551,-1.6559,-1.769,-1.9191,-2.027,-2.1625,-2.3413,-2.4355,-2.4915,-2.501,-2.5768,-2.6622,-2.7475,-2.8358,-2.9159,-2.9905,-3.0022,-3.0087,-3.0102,-3.0098,-3.0142,-3.019,-3.0204,-3.0204,-3.019,-3.0204,-3.0204,-3.0185,-3.0123,-3.0109,-3.0075,-3.0003,-2.9965,-2.9766,-2.8255,-2.7638,-2.7357,-2.5917,-2.538,-2.5322,-2.5398,-2.5337,-2.5073,-2.4254,0.0,-2.3688,-2.3557,-2.4244,-2.5255,-2.62,-2.7083,-2.835,0.0,0.0,-3.2897,-3.3707,-3.5343,-3.6688,-3.6863,-3.8889,-4.0643,-4.1033,-4.2357,-4.3663,-4.4618,-4.4832,-4.5183,-4.5962,-4.604,-4.6079,-4.6196,-4.6196,-4.6196,-4.6196,-4.6196,-4.6196,-4.6196,-4.6196,-4.6196,-4.6196,-4.6196,-4.6566,-4.7345,-4.7443,-4.7891,-4.8651,-4.8651,-4.8709,-4.8806,-4.869,-4.8709,-4.8806,-4.8806,-4.8806,-4.8787,-4.869,-4.8592,-4.8514,-4.8514,-4.8514,-4.8319,-4.6761,-4.6196,-4.6196,0.0,-0.8891,-0.8957,-0.9022,-0.9167,-0.9274,-0.9274,-0.9348,-0.9815,-1.0944,-1.1469,-1.2336,-1.3944,-1.494,-1.6164,-1.789,-1.9343,-2.0921,-2.2633,-2.4152,-2.501,-2.501,-2.6261,-2.7134,-2.7494,-2.8764,-2.9599,-2.9888,-2.9956,-2.9972,-2.9972,-2.9988,-3.0003,-3.0034,-3.0068,-3.0049,-3.0034,-3.0098,-3.0113,-3.0083,-3.0098,-3.0083,-2.9977,-2.9516,-2.9345,-2.9269,-2.8588,-2.7712,0.0,-2.614,-2.5608,-2.5209,-2.5313,-2.5284,-2.5166,-2.4812,-2.4998,0.0,-2.6655,-2.7277,-2.7854,0.0,-2.9744,-3.0831,-3.2474,-3.3476,-3.4438,-3.5825,-3.7506,-3.8714,-3.8714,-4.0409,-4.1968,0.0,-4.3565,-4.4656,-4.5533,-4.565,-4.5592,-4.5455,-4.5884,-4.6196,-4.6196,-4.6196,-4.6196,-4.6196,-4.6196,-4.6196,-4.6196,-4.6196,-4.6196,-4.6196,-4.6683,-4.7131,-4.7501,-4.8475,-4.9138,-4.9508,-4.9508,-4.9761,-5.0248,-4.9722,-4.9781,-5.0248,-5.0248,-4.9976,-4.9508,-4.9508,-4.9216,-4.8806,-4.8806,-4.8806,-4.8651,-4.7404,-4.6956,-4.6878,0.0,-0.8748,-0.8801,-0.8824,-0.9033,-0.9177,-0.9189,-0.932,-0.9689,-1.0486,-1.0593,-1.1223,-1.2807,-1.3773,-1.4881,-1.636,-1.8157,-1.994,-2.1714,-2.3563,-2.4704,-2.4977,-2.6375,-2.7247,-2.7494,-2.8862,-2.968,-2.9888,-2.9888,-2.9905,-2.994,-2.994,-2.994,-2.9956,-3.0007,-3.0007,-2.9956,-3.0072,-3.0072,-3.0022,-3.0053,-2.9905,-2.9589,-2.9011,-2.8483,-2.8089,-2.8094,-2.7328,-2.6243,-2.5825,-2.5425,-2.5075,-2.4922,-2.4973,-2.5151,-2.5425,-2.6034,-2.6943,-2.8422,-2.9206,0.0,-3.115,-3.2291,-3.3316,-3.4247,-3.5223,-3.6333,-3.7656,-3.9104,-4.0156,-4.0156,-4.1325,-4.2591,-4.3461,-4.4325,-4.5202,-4.6079,-4.5981,-4.5611,-4.4968,-4.5455,-4.5845,-4.5845,-4.6059,-4.6196,-4.6196,-4.6196,-4.6196,-4.6196,-4.6196,-4.6196,-4.6196,-4.7053,-4.7618,-4.7852,-4.9274,-5.0112,-5.0365,-5.0365,-5.0696,-5.1281,-5.0657,-5.0696,-5.13,-5.13,-5.095,-5.0365,-5.0365,-5.0014,-4.9488,-4.9488,-4.9488,-4.9372,-4.8514,-4.8047,-4.7735,0.0,0.0,-0.8705,-0.8705,-0.8919,-0.9123,-0.9196,-0.932,-0.9689,-1.0502,-1.0609,-1.1209,-1.2819,-1.3779,-1.4598,-1.5374,-1.7174,-1.899,-2.0728,-2.2539,-2.3983,-2.4959,-2.5806,-2.6641,-2.7475,-2.8313,-2.9112,-2.9888,-2.9888,-2.994,-3.0007,-3.0007,-3.0038,-3.0087,-3.0102,-3.0102,-3.0087,-3.0102,-3.0102,-3.0087,-3.0022,-2.9532,-2.8829,-2.8745,-2.7687,-2.628,-2.635,-2.6338,-2.6053,-2.4435,-2.4416,-2.4949,-2.4124,-2.4416,0.0,-2.6045,-2.683,-2.7518,0.0,0.0,-3.0887,-3.2679,-3.4471,-3.6006,-3.6883,-3.8402,-3.9649,-3.9708,-4.0448,-4.1052,-4.1052,-4.1734,-4.2591,-4.3461,-4.4325,-4.5202,-4.6079,-4.5475,-4.4929,-4.489,-4.491,-4.4929,0.0,-4.5689,-4.6196,-4.6196,-4.6196,-4.6196,-4.6196,-4.6196,-4.6196,-4.6196,-4.7053,-4.791,-4.8748,-4.9586,-5.0424,-5.1261,-5.1261,-5.1261,-5.13,-5.1261,-5.1261,-5.13,-5.13,-5.1281,-5.1261,-5.1261,-5.1242,-5.1222,-5.1222,-5.1222,-5.1125,-5.0248,-4.943,-4.8631,0.0,0.0,0.0,-0.8693,-0.8919,-0.912,-0.9133,-0.9282,-0.951,-0.9778,-1.0688,0.0,0.0,0.0,0.0,0.0,-1.6598,-1.8038,-1.9704,-2.1634,-2.3088,-2.3964,-2.5409,-2.6337,-2.6641,-2.746,-2.8029,-2.8313,-2.8843,-2.9128,-2.9144,-2.9674,-2.9956,-2.9972,-2.9972,-2.9972,-2.9972,-2.9972,-2.9972,-2.9918,-2.9352,-2.8973,-2.8613,-2.746,-2.6361,-2.5332,0.0,-2.4581,-2.4505,-2.398,-2.398,-2.4296,-2.4556,0.0,0.0,-2.6688,-2.7324,-2.8079,-3.042,0.0,-3.3323,-3.5145,-3.655,-3.7724,-3.8599,-3.9325,-3.9805,-3.9805,-3.994,-3.9882,-3.9346,-4.0368,-4.1594,-4.2525,-4.3927,-4.5202,-4.6079,-4.5942,-4.5553,-4.4968,-4.5416,0.0,0.0,0.0,-4.6196,-4.6196,-4.6196,-4.6196,-4.6196,-4.6196,-4.6196,-4.6196,-4.7618,-4.8495,-4.8806,-5.017,-5.1008,-5.13,-5.13,-5.13,-5.13,-5.13,-5.13,-5.13,-5.13,-5.13,-5.13,-5.13,-5.13,-5.13,-5.13,-5.13,-5.1261,-5.0969,-5.0696,-5.0268,0.0,0.0,0.0,0.0,0.0,0.0,0.0,0.0,0.0,0.0,0.0,0.0,0.0,0.0,0.0,0.0,0.0,0.0,-1.8349,-2.0187,-2.1634,-2.2487,-2.394,-2.4832,-2.5152,-2.5714,-2.6264,-2.6868,-2.7444,-2.7875,-2.8177,-2.8774,-2.9033,-2.9033,-2.9033,-2.9033,-2.9033,-2.9033,-2.9033,-2.8995,-2.8483,-2.8085,-2.7669,-2.6285,-2.5275,0.0,-2.3215,-2.2817,-2.2798,-2.2861,-2.3271,-2.3803,-2.4075,-2.4955,-2.61,-2.7182,-2.7966,-2.9179,-3.2316,-3.3613,-3.4674,-3.7051,-3.8152,-3.8888,-3.976,-3.981,-3.9571,-3.926,-3.8839,-3.8287,-3.7453,-3.8219,-3.9577,-4.1403,-4.2735,-4.4169,-4.5928,-4.5916,-4.5533,-4.4968,-4.5397,-4.5514,0.0,0.0,0.0,-4.6196,-4.6196,-4.6196,-4.6196,-4.6196,-4.6332,-4.6644,-4.8047,-4.8943,-4.9235,-5.0618,-5.13,-5.13,-5.13,-5.13,-5.13,-5.13,-5.13,-5.13,-5.13,-5.13,-5.13,-5.13,-5.13,-5.13,-5.13,-5.13,-5.13,-5.13,-5.13,-5.1106,0.0,0.0,0.0,0.0,0.0,0.0,0.0,0.0,0.0,0.0,0.0,0.0,0.0,0.0,0.0,0.0,0.0,0.0,-1.6743,-1.8298,-1.9638,-2.0685,-2.15,-2.2337,-2.3207,-2.3225,-2.3973,-2.5519,-2.5745,-2.6277,-2.7071,-2.7308,-2.7441,-2.7479,-2.7513,-2.7494,-2.7494,-2.7494,-2.7475,-2.7422,-2.7399,-2.6849,-2.5963,-2.5167,-2.4314,-2.3367,-2.1763,-2.1195,-2.1206,-2.1244,0.0,0.0,0.0,0.0,0.0,-2.7666,-2.8931,-3.0837,-3.3427,-3.4232,-3.5139,-3.843,-3.9276,-3.9496,-4.0339,-3.9876,-3.9004,-3.8102,-3.7201,-3.63,0.0,0.0,-3.6725,-4.0051,-4.0913,-4.2305,-4.5577,-4.5414,-4.4968,0.0,0.0,0.0,0.0,0.0,0.0,-4.6196,-4.6196,-4.6196,-4.6196,-4.6235,-4.6644,-4.7462,-4.8397,-4.9235,-4.9995,-5.0852,-5.13,-5.13,-5.13,-5.13,-5.13,-5.13,-5.13,-5.13,-5.13,-5.13,-5.13,-5.13,-5.13,-5.13,-5.13,-5.13,-5.13,-5.13,-5.13,-5.1183,0.0,0.0,0.0,0.0,0.0,0.0,0.0,0.0,0.0,0.0,0.0,0.0,0.0,0.0,0.0,0.0,0.0,0.0,0.0,-1.684,-1.8162,-1.9623,-2.0589,-2.1481,-2.23,-2.2319,-2.2523,-2.2933,-2.3649,-2.4393,-2.5217,-2.5998,-2.6698,-2.7285,-2.7415,-2.7494,-2.7494,-2.7494,-2.7055,-2.6337,-2.584,-2.5069,-2.4101,-2.3253,-2.2476,-2.1763,-2.123,0.0,0.0,0.0,0.0,0.0,0.0,0.0,-2.8711,0.0,0.0,-3.3282,-3.5183,-3.663,-3.7964,-3.9563,-3.9514,-3.915,-3.9411,-3.8433,-3.7023,-3.5516,-3.4429,-3.3301,0.0,0.0,0.0,-3.7528,-4.0205,0.0,-4.4896,-4.5585,0.0,-4.5864,0.0,-4.5864,-4.5864,-4.6059,0.0,-4.6196,-4.6196,-4.6196,-4.6196,-4.6819,-4.7267,-4.7482,-4.8923,-4.9781,-4.9995,-5.0852,-5.13,-5.13,-5.13,-5.13,-5.13,-5.13,-5.13,-5.13,-5.13,-5.13,-5.13,-5.13,-5.13,-5.13,-5.13,-5.13,-5.13,-5.13,-5.13,-5.1261,0.0,0.0,0.0,0.0,0.0,0.0,0.0,0.0,0.0,0.0,0.0,0.0,0.0,0.0,0.0,0.0,0.0,0.0,0.0,-1.5701,-1.6634,-1.7512,-1.8449,-1.9166,-1.9626,-2.001,-2.036,-2.0728,-2.1636,-2.2483,-2.3282,-2.3945,-2.4492,-2.4926,-2.5039,-2.5084,-2.5084,-2.5144,-2.4846,0.0,0.0,-2.3555,-2.296,-2.2092,-2.1525,-2.1138,0.0,0.0,0.0,0.0,0.0,-2.6399,-2.7631,-2.8875,-3.0181,-3.1906,0.0,-3.4772,-3.6844,-3.808,-3.8992,-3.9848,-3.949,-3.8725,-3.8034,-3.6638,-3.4889,-3.2781,-3.1626,0.0,-2.932,-3.0968,0.0,0.0,0.0,0.0,-4.4518,-4.5624,-4.6196,0.0,-4.6196,0.0,-4.6196,-4.6196,-4.6196,-4.6196,-4.6546,-4.6761,-4.6761,-4.7599,-4.8222,-4.8592,-4.9508,-5.019,-5.0579,-5.1067,-5.13,-5.13,-5.13,-5.13,-5.13,-5.13,-5.13,-5.13,-5.13,-5.1276,-5.122,-5.1284,-5.1276,-5.122,-5.1284,-5.13,-5.13,-5.13,-5.13,-5.13,0.0,0.0,0.0,0.0,0.0,0.0,0.0,0.0,0.0,0.0,0.0,0.0,0.0,0.0,0.0,0.0,0.0,0.0,0.0,0.0,0.0,-1.5307,-1.6034,-1.6496,-1.6586,-1.7351,-1.8127,-1.8942,0.0,-2.0611,-2.1528,-2.171,-2.186,-2.1971,-2.1987,-2.2002,-2.2002,-2.2131,-2.2116,-2.2023,-2.2237,-2.2255,-2.2054,0.0,0.0,0.0,0.0,0.0,0.0,0.0,-2.5882,-2.6816,-2.8502,-3.0189,-3.1893,-3.3616,-3.4698,-3.5837,-3.8173,-3.8876,-3.9083,-3.9629,-3.91,-3.8021,-3.635,-3.4582,-3.2599,-3.0155,0.0,-2.8183,-2.7323,-2.8835,-3.129,-3.4634,0.0,-4.0779,-4.4164,-4.5434,-4.6059,-4.6196,-4.6196,-4.6196,-4.6196,-4.6196,-4.6196,-4.6196,-4.7014,-4.7501,-4.7501,-4.8436,-4.9333,-5.0151,-5.017,-5.0541,-5.13,-5.13,-5.13,-5.13,-5.1284,-5.1284,-5.13,-5.1256,-5.1248,-5.1265,-5.1248,-5.1181,-5.1105,-5.1191,-5.1181,-5.1117,-5.123,-5.1256,-5.1248,-5.1273,-5.1292,-5.1284,0.0,0.0,0.0,0.0,0.0,0.0,0.0,0.0,0.0,0.0,-1.2659,-1.3048,0.0,0.0,0.0,0.0,0.0,0.0,0.0,0.0,0.0,-1.5346,-1.5526,-1.5922,-1.6586,-1.6745,0.0,0.0,0.0,0.0,-2.0553,-2.0684,-2.1113,-2.176,-2.194,-2.2002,-2.2002,-2.2131,-2.1742,-2.1078,-2.1318,-2.0939,-2.017,-2.002,0.0,0.0,0.0,0.0,0.0,0.0,-2.7593,-2.8559,-3.0246,-3.195,-3.3691,-3.5362,-3.6445,-3.7318,-3.8477,-3.9233,-3.9591,-3.9121,-3.781,-3.6236,-3.4603,-3.2345,0.0,0.0,-2.7262,-2.6394,-2.5579,-2.7472,-3.0113,-3.2975,0.0,0.0,0.0,0.0,-4.5397,0.0,0.0,0.0,-4.6196,-4.6196,0.0,-4.6196,-4.7014,-4.7501,-4.7501,-4.8962,-5.019,-5.1047,-5.1067,-5.1145,-5.13,-5.13,-5.13,-5.13,-5.1201,-5.1181,-5.1292,-5.1004,-5.0972,-5.1128,-5.0972,-5.0972,-5.1093,-5.0959,-5.0972,-5.1105,-5.1128,-5.103,-5.0926,-5.1201,-5.123,-5.115,0.0,0.0,0.0,0.0,0.0,0.0,0.0,-1.0235,-1.1244,-1.2443,-1.3408,-1.4175,-1.467,-1.4363,-1.41,0.0,0.0,0.0,0.0,0.0,0.0,0.0,0.0,-1.4999,0.0,0.0,0.0,0.0,0.0,0.0,0.0,0.0,0.0,0.0,0.0,0.0,0.0,-2.063,-2.0466,0.0,0.0,0.0,0.0,0.0,0.0,0.0,0.0,0.0,0.0,0.0,-2.6664,-2.8446,-3.0549,-3.2367,-3.3997,-3.5211,-3.6463,-3.7639,-3.8512,-3.9307,-3.9721,-3.8948,-3.7449,-3.5552,-3.3029,0.0,0.0,0.0,-2.5882,-2.5465,-2.5067,0.0,0.0,0.0,0.0,0.0,0.0,0.0,0.0,0.0,0.0,0.0,0.0,-4.6181,-4.6154,-4.6196,-4.7014,-4.7696,-4.8144,-4.9761,-5.0872,-5.13,-5.13,-5.1276,-5.1211,-5.1276,-5.121,-5.1035,-5.1086,-5.1086,-5.1035,-5.0865,-5.0855,-5.0932,-5.084,-5.0828,-5.0832,-5.0809,-5.0828,-5.0848,-5.0918,-5.0884,-5.082,-5.0979,-5.0998,-5.0959,0.0,0.0,0.0,0.0,0.0,0.0,0.0,-1.0653,-1.1602,-1.2706,-1.4113,-1.511,-1.5447,-1.4798,-1.4292,0.0,0.0,0.0,0.0,0.0,0.0,0.0,0.0,0.0,0.0,0.0,0.0,0.0,0.0,0.0,0.0,0.0,0.0,0.0,0.0,0.0,0.0,0.0,0.0,0.0,0.0,0.0,0.0,0.0,0.0,0.0,0.0,0.0,0.0,0.0,-2.5167,-2.7134,-2.962,-3.1686,-3.3354,-3.4358,-3.5704,-3.7087,-3.813,-3.902,-3.9399,-3.8395,-3.703,-3.504,-3.1705,-2.9658,0.0,0.0,-2.501,-2.501,-2.501,0.0,0.0,0.0,0.0,0.0,0.0,0.0,0.0,0.0,0.0,0.0,-4.6154,-4.6111,0.0,-4.6162,-4.696,-4.7915,-4.9001,-5.0291,-5.1053,-5.1248,-5.121,-5.1141,-5.1049,-5.1141,-5.1058,-5.079,-5.0918,-5.0937,-5.079,-5.0745,-5.0728,-5.0761,-5.0711,-5.0661,-5.0606,-5.0678,-5.0661,-5.0606,-5.0731,-5.0728,-5.0692,-5.0774,-5.0774,-5.0778,0.0,0.0,0.0,0.0,0.0,0.0,0.0,-1.0599,-1.1948,-1.4042,-1.4708,-1.5255,-1.594,-1.554,-1.4899,0.0,0.0,0.0,0.0,0.0,0.0,0.0,0.0,0.0,0.0,0.0,0.0,0.0,0.0,0.0,0.0,0.0,0.0,0.0,0.0,0.0,0.0,0.0,0.0,0.0,0.0,0.0,0.0,0.0,0.0,0.0,0.0,0.0,0.0,0.0,0.0,-2.4485,-2.7039,-2.9488,-3.1743,-3.3335,0.0,0.0,-3.7068,-3.8148,-3.8414,-3.6822,-3.5723,-3.4169,-3.0871,0.0,0.0,-2.537,-2.501,-2.501,-2.501,-2.5725,-2.7189,0.0,0.0,-3.4443,0.0,0.0,0.0,0.0,0.0,0.0,-4.6017,-4.6075,-4.6102,-4.6102,-4.6805,-4.8001,-4.98,-4.9907,-5.0301,-5.1078,-5.0945,-5.0835,-5.084,-5.0835,-5.082,-5.079,-5.0698,-5.0696,-5.079,-5.0488,-5.0442,-5.0606,-5.0421,-5.0442,-5.0606,-5.0421,-5.0442,-5.0587,-5.0606,-5.0526,-5.0377,-5.0694,-5.0711,-5.0644,0.0,0.0,0.0,0.0,0.0,0.0,-1.0269,-1.0389,-1.1191,-1.3481,-1.4037,-1.4527,-1.5345,-1.5363,-1.497,-1.4171,0.0,0.0,0.0,0.0,0.0,0.0,0.0,0.0,0.0,0.0,0.0,0.0,0.0,0.0,0.0,0.0,0.0,0.0,0.0,0.0,0.0,0.0,0.0,0.0,0.0,0.0,0.0,0.0,0.0,0.0,0.0,0.0,0.0,0.0,0.0,0.0,-2.3556,-2.5432,0.0,0.0,-3.2728,-3.4434,-3.5571,-3.6879,-3.7637,-3.6481,-3.5173,-3.3449,-3.0644,0.0,-2.702,-2.5351,-2.501,-2.501,-2.501,-2.5256,-2.5986,-2.754,-2.8428,-3.0426,-3.4789,0.0,0.0,0.0,0.0,0.0,0.0,0.0,-4.6027,-4.5968,-4.6138,-4.6764,-4.8012,-4.8554,-4.9251,-5.0176,-5.007,-5.0243,-5.0678,-5.0761,-5.0711,-5.0508,-5.0567,-5.0567,-5.0508,-5.0355,-5.0329,-5.0399,-5.0329,-5.0348,-5.0399,-5.0329,-5.0348,-5.0418,-5.0418,-5.0374,-5.0325,-5.0466,-5.0466,-5.0442,0.0,0.0,0.0,0.0,0.0,-0.9118,-1.0385,-1.0333,-1.0891,-1.2975,-1.3699,-1.4342,-1.5173,-1.5294,-1.5077,-1.4506,-1.4238,0.0,0.0,0.0,0.0,0.0,0.0,0.0,0.0,0.0,0.0,0.0,0.0,0.0,0.0,0.0,0.0,0.0,0.0,0.0,0.0,0.0,0.0,0.0,0.0,0.0,0.0,0.0,0.0,0.0,0.0,0.0,0.0,0.0,0.0,0.0,0.0,0.0,0.0,0.0,-3.0606,-3.2804,-3.3866,-3.5382,-3.6462,-3.5647,-3.4377,-3.2672,0.0,-2.8313,-2.6716,-2.5294,-2.501,-2.501,-2.501,-2.501,-2.5275,-2.6072,-2.6694,-2.8408,-3.2172,-3.3947,0.0,0.0,0.0,-4.3388,0.0,-4.5619,-4.5879,-4.5835,-4.563,-4.577,-4.6328,-4.6928,-4.7945,-4.9434,-4.9408,-4.974,-5.0486,-5.0605,-5.0529,-5.0302,-5.0442,-5.044,-5.0302,-5.0302,-5.0302,-5.0302,-5.0302,-5.0302,-5.0302,-5.0302,-5.0302,-5.0302,-5.0302,-5.0302,-5.0302,-5.0302,-5.0149,-4.9962,0.0,0.0,0.0,0.0,0.0,0.0,-0.9703,-1.0418,-1.1412,-1.2919,-1.4092,-1.5072,-1.5797,-1.5532,-1.5291,-1.5291,-1.456,0.0,0.0,0.0,0.0,0.0,0.0,0.0,0.0,0.0,-1.6634,-1.6693,-1.8324,0.0,0.0,0.0,0.0,0.0,0.0,0.0,0.0,0.0,0.0,0.0,0.0,0.0,0.0,0.0,0.0,0.0,0.0,0.0,0.0,0.0,0.0,0.0,0.0,0.0,0.0,0.0,-2.801,-3.0286,-3.197,-3.3657,-3.4737,-3.3922,-3.307,-3.1762,0.0,-2.7422,-2.5977,-2.5181,-2.501,-2.501,-2.501,-2.501,-2.5275,-2.6072,-2.7593,-2.9627,-3.2313,-3.4868,0.0,0.0,0.0,-4.209,-4.3027,-4.4689,-4.5669,-4.5619,-4.5416,-4.5304,-4.5323,-4.5154,-4.632,-4.9125,-4.907,-4.9415,-5.0283,-5.0302,-5.0302,-5.0302,-5.0302,-5.0302,-5.0302,-5.0302,-5.0302,-5.0302,-5.0302,-5.0302,-5.0302,-5.0302,-5.0302,-5.0302,-5.0302,-5.0302,-5.0302,-5.0302,-4.9805,-4.9098,0.0,0.0,0.0,0.0,0.0,0.0,0.0,-0.9574,-0.9978,-1.1578,-1.1693,-1.2144,-1.3616,-1.368,-1.3817,-1.4421,-1.4256,0.0,0.0,0.0,0.0,0.0,0.0,0.0,0.0,0.0,-1.6664,-1.6634,-1.8274,-1.9153,-1.923,0.0,0.0,0.0,0.0,0.0,0.0,0.0,0.0,0.0,0.0,0.0,0.0,0.0,0.0,0.0,0.0,0.0,0.0,0.0,0.0,0.0,0.0,0.0,0.0,-2.2628,0.0,0.0,-2.9583,-3.0663,-3.144,-3.1231,-3.053,-2.9526,-2.818,-2.7005,-2.5977,-2.5181,-2.501,-2.501,-2.501,-2.501,-2.5465,-2.6868,-2.7532,-2.878,0.0,0.0,0.0,0.0,-4.2294,-4.4602,0.0,-4.5252,-4.5436,-4.5342,-4.5142,-4.5045,-4.5045,-4.4972,-4.5665,-4.7242,-4.7205,-4.76,-4.8514,-4.8514,-4.8556,-4.8602,-4.9194,-4.948,-4.95,-5.0054,-5.0302,-5.0302,-5.0302,-5.0302,-5.0302,-5.0302,-5.0302,-5.0302,-5.0302,-4.9958,-4.948,-4.948,-4.8945,-4.822,0.0,0.0,0.0,0.0,0.0,0.0,0.0,-0.923,-0.9496,-1.0548,-1.0581,-1.1071,-1.2529,-1.249,-1.2816,-1.4011,-1.3815,0.0,0.0,0.0,0.0,0.0,0.0,0.0,0.0,-1.5518,-1.6501,-1.7101,-1.8517,-1.9397,-1.9748,-1.9825,-1.9763,0.0,0.0,0.0,0.0,0.0,0.0,0.0,0.0,0.0,0.0,0.0,0.0,0.0,0.0,0.0,0.0,0.0,0.0,0.0,0.0,0.0,0.0,0.0,-2.3291,-2.5939,0.0,-2.8578,-2.9453,-2.9507,-2.8881,-2.8029,-2.7209,-2.6356,-2.5617,-2.5105,-2.501,-2.501,-2.501,-2.501,-2.5351,-2.6394,-2.7096,0.0,0.0,0.0,0.0,0.0,0.0,0.0,0.0,-4.5189,-4.5262,-4.5099,-4.4976,-4.4895,-4.4895,-4.4895,-4.5209,-4.5813,-4.613,-4.673,-4.7666,-4.7666,-4.7666,-4.7732,-4.8289,-4.8579,-4.8617,-4.9461,-4.9843,-4.9843,-4.9843,-4.9843,0.0,-4.95,-4.9366,-4.9366,-4.9366,-4.906,-4.8602,-4.8602,-4.8067,-4.7322,0.0,0.0,0.0,0.0,0.0,0.0,0.0,-0.9279,-0.9719,-0.9719,-1.0498,-1.1356,-1.2165,-1.1806,-1.2161,-1.3797,0.0,0.0,0.0,0.0,0.0,0.0,0.0,0.0,-1.4291,-1.5085,-1.6237,-1.7801,-1.8932,-1.9835,-2.0535,-2.0778,-2.0513,-1.977,-1.9031,0.0,0.0,0.0,0.0,0.0,0.0,0.0,0.0,0.0,0.0,0.0,0.0,0.0,0.0,0.0,0.0,0.0,0.0,0.0,0.0,0.0,0.0,0.0,0.0,-2.7024,0.0,-2.8316,-2.7782,-2.7039,-2.6299,-2.5541,0.0,-2.501,-2.501,-2.5029,-2.5067,-2.5048,-2.5067,-2.5224,-2.6622,0.0,0.0,0.0,0.0,0.0,-4.2508,0.0,-4.3748,-4.4646,-4.5125,-4.4938,-4.4895,-4.4895,-4.4895,-4.4895,-4.4895,-4.4895,-4.5765,-4.6573,-4.7429,-4.7429,-4.7429,-4.7429,-4.7552,-4.7613,-4.7652,-4.8579,-4.9003,-4.9003,-4.9003,-4.9003,-4.8926,-4.8143,-4.7799,-4.7799,-4.7799,-4.7761,-4.7723,-4.7723,-4.7169,-4.6405,0.0,0.0,0.0,0.0,0.0,0.0,0.0,0.0,0.0,0.0,-0.9232,-0.9555,-0.9858,-1.0376,-1.1105,0.0,0.0,0.0,0.0,0.0,0.0,0.0,0.0,0.0,-1.4229,-1.5655,-1.6555,-1.6905,-1.9151,-2.0409,-2.0741,-2.1512,-2.1499,-2.0838,-2.0649,-2.035,0.0,0.0,0.0,0.0,0.0,0.0,0.0,0.0,0.0,0.0,0.0,-1.9433,0.0,0.0,0.0,0.0,0.0,0.0,0.0,0.0,-2.0865,-2.1623,-2.223,0.0,-2.4106,-2.4712,-2.4731,-2.4712,0.0,-2.5143,-2.501,0.0,0.0,0.0,0.0,0.0,0.0,0.0,0.0,0.0,0.0,0.0,0.0,-4.4039,-4.4672,-4.4805,-4.4843,-4.5055,-4.5125,-4.4938,-4.4895,-4.4895,-4.4895,-4.4895,-4.4895,-4.4895,-4.5128,-4.5342,-4.5603,-4.5603,-4.5627,-4.5693,-4.6382,-4.6729,-4.6813,-4.7655,-4.806,-4.8124,-4.8124,-4.8124,-4.8086,-4.7895,-4.7799,-4.7799,-4.7799,-4.7398,-4.6806,-4.6806,-4.629,-4.5583,0.0,0.0,0.0,0.0,0.0,0.0,0.0,0.0,0.0,0.0,0.0,0.0,0.0,0.0,0.0,0.0,0.0,0.0,0.0,0.0,0.0,0.0,0.0,-1.4208,-1.4198,-1.545,-1.6483,-1.7282,-1.9133,-2.0515,-2.1446,-2.1636,-2.1563,-2.1187,-2.0808,-2.041,0.0,0.0,0.0,0.0,0.0,0.0,0.0,0.0,0.0,0.0,-1.8732,-1.8987,0.0,-1.985,-1.9949,-1.9915,0.0,0.0,0.0,0.0,-2.0293,-2.0604,-2.0645,-2.1813,-2.3158,-2.3594,-2.3992,-2.4409,-2.4896,0.0,0.0,0.0,0.0,0.0,0.0,0.0,0.0,0.0,0.0,0.0,0.0,0.0,0.0,-4.4957,-4.532,-4.5258,-4.508,-4.5061,-4.5033,-4.4895,-4.4895,-4.4895,-4.4895,-4.4895,-4.4895,-4.4895,-4.4895,-4.4919,-4.4943,-4.4943,-4.4967,-4.501,-4.5532,-4.5784,-4.5849,-4.6752,-4.7178,-4.7201,-4.7204,-4.7207,-4.7169,-4.6806,-4.6653,-4.6653,-4.6653,-4.6366,-4.5946,-4.5946,-4.566,-4.5297,0.0,0.0,0.0,0.0,0.0,0.0,0.0,0.0,0.0,0.0,0.0,0.0,0.0,0.0,0.0,0.0,0.0,0.0,0.0,0.0,0.0,0.0,0.0,-1.4266,-1.4404,-1.5174,-1.6407,-1.8119,-1.93,-2.0686,-2.2182,-2.191,-2.163,-2.1346,-2.0399,-1.9982,0.0,0.0,0.0,0.0,0.0,0.0,0.0,0.0,0.0,0.0,0.0,0.0,0.0,-1.9536,-1.979,-1.982,-1.9949,0.0,0.0,0.0,0.0,0.0,-2.0112,-2.1801,-2.3486,-2.3518,-2.4163,-2.4839,0.0,0.0,0.0,0.0,0.0,0.0,0.0,0.0,0.0,0.0,0.0,0.0,0.0,0.0,-4.2604,-4.4884,-4.5148,-4.5103,-4.4919,-4.4895,-4.4895,-4.4895,-4.4895,-4.4895,-4.4895,-4.4895,-4.4895,-4.4895,-4.4895,-4.4895,-4.4895,-4.4895,-4.4895,-4.4895,-4.4943,-4.4991,-4.5029,-4.5887,-4.6275,-4.6298,-4.6285,-4.6287,-4.623,-4.5543,-4.5297,-4.5297,-4.5297,-4.5297,-4.5297,-4.5297,-4.5297,-4.5297,0.0,0.0,0.0,0.0,0.0,0.0,0.0,0.0,0.0,0.0,0.0,0.0,0.0,0.0,0.0,0.0,0.0,0.0,0.0,0.0,0.0,-1.4114,-1.4177,-1.4558,-1.5369,-1.6052,-1.7006,-1.819,-2.0493,-2.182,-2.2224,-2.3731,-2.3638,-2.2149,-2.0599,-1.9919,-1.987,0.0,0.0,0.0,0.0,0.0,0.0,0.0,0.0,0.0,0.0,0.0,0.0,-1.8836,-1.93,-1.982,-1.9949,0.0,0.0,0.0,0.0,0.0,-2.0733,-2.1752,-2.2615,-2.2672,-2.3291,-2.4087,-2.4839,0.0,0.0,0.0,0.0,0.0,0.0,0.0,0.0,0.0,0.0,-3.6691,0.0,0.0,-4.3069,-4.4759,-4.4962,-4.4919,-4.4895,-4.4895,-4.4895,-4.4895,-4.4895,-4.4895,-4.4895,-4.4895,-4.4895,-4.4895,-4.4895,-4.4895,-4.4895,-4.4895,-4.4895,-4.4895,-4.4895,-4.4962,-4.501,-4.5166,-4.527,-4.5316,-4.5316,-4.5297,-4.5319,-4.5249,-4.5233,-4.5213,-4.5275,-4.5297,-4.5297,-4.5297,-4.5297,-4.5297,0.0,0.0,0.0,0.0,0.0,0.0,0.0,0.0,0.0,0.0,0.0,0.0,0.0,0.0,0.0,0.0,0.0,0.0,0.0,0.0,-1.4292,-1.4738,-1.4841,-1.5099,-1.5542,-1.6637,-1.7766,-1.896,-2.0926,-2.229,-2.3024,-2.3409,-2.2426,-2.0304,-1.9537,-1.8941,-1.8493,-1.8583,0.0,0.0,0.0,0.0,0.0,0.0,0.0,0.0,0.0,0.0,0.0,0.0,-1.8418,-1.9008,-1.9141,0.0,0.0,0.0,0.0,0.0,-2.0277,-2.1381,-2.2401,-2.2426,-2.3771,-2.5148,-2.556,0.0,0.0,0.0,0.0,0.0,0.0,0.0,0.0,0.0,0.0,-3.8969,-4.0934,-4.2344,-4.362,-4.4743,-4.4895,-4.4895,-4.4895,-4.4895,-4.4895,-4.4895,-4.4895,-4.4895,-4.4895,-4.4895,-4.4895,-4.4895,-4.4895,-4.4895,-4.4895,-4.4895,-4.4895,-4.4895,-4.4895,-4.4938,-4.4943,-4.4967,-4.5033,-4.5057,-4.5061,-4.5103,-4.5103,-4.5125,-4.5148,-4.5148,-4.5213,-4.5254,-4.5254,-4.5297,-4.5297,-4.5297,0.0,0.0,0.0,0.0,0.0,0.0,0.0,0.0,0.0,0.0,0.0,0.0,0.0,0.0,0.0,0.0,0.0,0.0,0.0,0.0,-1.4185,-1.5013,-1.5314,-1.565,-1.6101,-1.7374,-1.8648,-1.9924,-2.1393,-2.2619,-2.3591,-2.29,-2.1204,-1.8786,-1.8568,-1.802,-1.7236,-1.7753,-1.82,0.0,0.0,0.0,0.0,0.0,0.0,0.0,0.0,0.0,0.0,0.0,0.0,0.0,0.0,0.0,0.0,-1.9744,-1.9731,-1.9729,-1.9994,-2.1179,-2.2412,-2.262,0.0,-2.6034,-2.6413,0.0,0.0,0.0,0.0,0.0,0.0,0.0,0.0,-3.504,-3.83,-4.0726,-4.1389,-4.2924,-4.4213,-4.4838,-4.4895,-4.4895,-4.4895,-4.4895,-4.4895,-4.4895,-4.4895,-4.4895,-4.4895,-4.4895,-4.4895,-4.4895,-4.4895,-4.4895,-4.4895,-4.4895,-4.4895,-4.4895,-4.4895,-4.4895,-4.4895,-4.4943,-4.4986,-4.4967,-4.5014,-4.5038,-4.5038,-4.508,-4.508,-4.508,-4.5148,-4.517,-4.5192,-4.5235,-4.5275,-4.5275,0.0,0.0,0.0,0.0,0.0,0.0,0.0,0.0,0.0,0.0,0.0,0.0,0.0,0.0,0.0,0.0,0.0,0.0,0.0,0.0,-1.3372,-1.4229,-1.494,-1.6121,-1.7858,-1.8635,-1.9614,-2.0907,-2.2312,-2.3112,-2.331,-2.3143,-2.171,-1.9317,-1.849,-1.7683,-1.6903,-1.6325,-1.6962,-1.8267,0.0,0.0,0.0,0.0,0.0,0.0,0.0,0.0,0.0,0.0,0.0,0.0,0.0,0.0,-1.9611,-1.9692,-1.9665,-1.9792,-2.0602,-2.1545,-2.2482,-2.322,0.0,0.0,-2.7058,-2.7456,0.0,-2.9431,0.0,0.0,0.0,-3.3562,-3.6064,-3.7049,-4.0025,-4.2242,-4.2299,-4.3758,-4.4838,-4.4895,-4.4895,-4.4895,-4.4895,-4.4895,-4.4895,-4.4895,-4.4895,-4.4895,-4.4895,-4.4895,-4.4895,-4.4895,-4.4895,-4.4895,-4.4895,-4.4895,-4.4895,-4.4895,-4.4895,-4.4895,-4.4895,-4.4895,-4.4895,-4.4895,-4.4895,-4.4919,-4.4919,-4.4967,-4.501,-4.5014,-4.508,-4.5103,-4.5125,-4.517,-4.5213,-4.5213,0.0,0.0,0.0,0.0,0.0,0.0,0.0,0.0,0.0,0.0,0.0,0.0,0.0,0.0,0.0,0.0,0.0,0.0,0.0,-1.2532,-1.3617,-1.4945,-1.5316,-1.6122,-1.7453,-1.895,-2.0566,-2.2319,-2.2836,-2.2875,-2.242,-2.1787,-2.0452,-1.8585,-1.8188,-1.7601,-1.6888,-1.6676,-1.6971,-1.7552,-1.6817,0.0,0.0,0.0,0.0,0.0,0.0,0.0,0.0,0.0,-1.6446,-1.7628,-1.7994,-1.8801,-1.9597,-1.9625,-1.9611,-1.9685,-2.0047,-2.1564,-2.299,-2.2755,0.0,0.0,0.0,-2.902,-3.0265,-3.1933,-3.2691,0.0,0.0,0.0,-3.6462,-3.7258,-4.0214,-4.2412,-4.2412,-4.3853,-4.4895,-4.4895,-4.4895,-4.4895,-4.4895,-4.4895,-4.4895,-4.4895,-4.4895,-4.4895,-4.4895,-4.4895,-4.4895,-4.4895,-4.4895,-4.4895,-4.4895,-4.4895,-4.4895,-4.4895,-4.4895,-4.4895,-4.4895,-4.4895,-4.4895,-4.4895,-4.4895,-4.4895,-4.4895,-4.4919,-4.4919,-4.4943,-4.5014,-4.5103,-4.517,-4.5192,-4.5233,-4.5275,0.0,0.0,0.0,0.0,0.0,0.0,0.0,0.0,0.0,0.0,0.0,0.0,0.0,0.0,0.0,0.0,0.0,0.0,-1.1294,-1.2167,-1.3269,-1.4686,-1.522,-1.5976,-1.6978,-1.8794,-2.0462,-2.1964,-2.2368,-2.2151,-2.1359,-2.0673,-1.9508,-1.8009,-1.7975,-1.7519,-1.6812,-1.6649,-1.6762,-1.6929,-1.5926,-1.5644,0.0,0.0,0.0,0.0,0.0,0.0,0.0,0.0,-1.572,-1.6781,-1.7287,-1.8217,-1.9146,-1.9452,-1.9722,-1.9983,-2.0047,-2.1765,-2.3451,0.0,0.0,0.0,0.0,-3.0517,-3.2141,-3.4093,-3.4927,0.0,0.0,0.0,0.0,0.0,-4.0385,-4.2412,-4.2412,-4.3853,-4.4895,-4.4895,-4.4895,-4.4895,-4.4895,-4.4895,-4.4895,-4.4895,-4.4895,-4.4895,-4.4895,-4.4895,-4.4895,-4.4895,-4.4895,-4.4895,-4.4895,-4.4895,-4.4895,-4.4895,-4.4895,-4.4895,-4.4895,-4.4895,-4.4895,-4.4895,-4.4895,-4.4895,-4.4895,-4.4895,-4.4895,-4.4895,-4.4943,-4.5014,-4.5125,-4.5148,-4.5192,-4.5235,0.0,0.0,0.0,0.0,0.0,0.0,0.0,0.0,0.0,0.0,0.0,0.0,0.0,0.0,0.0,0.0,0.0,0.0,-1.0555,-1.1277,-1.2108,-1.3058,-1.4509,-1.5749,-1.6762,-1.8153,-1.9067,-1.9522,-2.0769,-2.0969,-2.0192,-2.0043,-1.9183,-1.7808,-1.7808,-1.7372,-1.6573,-1.5976,-1.6059,-1.6483,-1.5086,-1.494,0.0,0.0,0.0,0.0,0.0,0.0,0.0,0.0,-1.5843,-1.6079,-1.7679,-1.8119,-1.8203,-1.9136,-2.0015,-2.073,-2.0863,-2.2224,0.0,0.0,0.0,0.0,0.0,-3.1785,-3.3145,-3.5704,0.0,-3.6462,-3.7258,-3.7409,0.0,-3.8567,-4.0783,-4.2393,-4.2393,-4.3815,-4.4876,-4.4895,-4.4895,-4.4895,-4.4895,-4.4895,-4.4895,-4.4895,-4.4895,-4.4895,-4.4895,-4.4895,-4.4895,-4.4895,-4.4895,-4.4895,-4.4895,-4.4895,-4.4895,-4.4895,-4.4895,-4.4895,-4.4895,-4.4895,-4.4895,-4.4895,-4.4895,-4.4895,-4.4895,-4.4895,-4.4895,-4.4895,-4.4895,-4.4895,-4.4919,-4.5057,-4.5103,-4.5125,0.0,0.0,0.0,0.0,0.0,0.0,0.0,0.0,0.0,0.0,0.0,0.0,0.0,0.0,0.0,0.0,0.0,0.0,-1.0555,-1.0859,-1.1623,-1.3036,-1.3509,-1.421,-1.5154,-1.6008,-1.7878,-2.0843,-1.9993,-1.9794,-2.0174,-1.8896,-1.8396,-1.8485,-1.8485,-1.8106,-1.7408,-1.6642,-1.6486,-1.6656,-1.5676,-1.5345,0.0,0.0,0.0,0.0,0.0,0.0,0.0,0.0,0.0,0.0,-1.6899,-1.7954,-1.8906,-1.9178,-1.9913,-2.0649,-2.0752,0.0,0.0,0.0,0.0,0.0,0.0,-3.2239,0.0,0.0,-3.8357,-3.8016,-3.8262,-3.83,-3.8395,-3.8662,-4.0309,-4.156,-4.156,-4.2469,-4.3379,-4.3985,-4.4061,-4.4289,-4.4857,-4.4895,-4.4895,-4.4895,-4.4895,-4.4895,-4.4895,-4.4895,-4.4895,-4.4895,-4.4895,-4.4895,-4.4895,-4.4895,-4.4895,-4.4895,-4.4895,-4.4895,-4.4895,-4.4895,-4.4895,-4.4895,-4.4895,-4.4895,-4.4895,-4.4895,-4.4895,-4.4895,-4.4895,-4.4919,-4.4967,-4.508,-4.5125,-4.517,0.0,0.0,0.0,0.0,0.0,0.0,0.0,0.0,0.0,0.0,0.0,0.0,0.0,0.0,0.0,0.0,0.0,0.0,0.0,-1.0731,-1.152,-1.2509,-1.3154,-1.3918,-1.4803,-1.5468,-1.699,-1.9417,-1.836,-1.8306,-1.9147,-1.8091,-1.8056,-1.8878,-1.8878,-1.8482,-1.777,-1.7284,-1.6905,-1.6591,-1.6107,-1.5684,-1.5357,0.0,0.0,0.0,0.0,0.0,0.0,0.0,0.0,0.0,-1.5992,-1.6889,-1.7871,-1.8958,-1.9926,-2.0825,-2.1622,0.0,0.0,0.0,0.0,0.0,0.0,0.0,0.0,0.0,0.0,-3.8793,-3.9115,-3.8906,-3.8793,-3.9115,-4.0309,-4.12,-4.12,-4.1901,-4.2602,-4.3133,-4.3189,-4.3512,-4.4345,-4.4421,-4.4554,-4.4876,-4.4895,-4.4895,-4.4895,-4.4895,-4.4895,-4.4895,-4.4895,-4.4895,-4.4895,-4.4895,-4.4895,-4.4895,-4.4895,-4.4895,-4.4895,-4.4895,-4.4895,-4.4895,-4.4895,-4.4895,-4.4895,-4.4895,-4.4895,-4.4895,-4.4895,-4.4919,-4.4967,-4.508,-4.5125,-4.517,0.0,0.0,0.0,0.0,0.0,0.0,0.0,0.0,0.0,0.0,0.0,0.0,0.0,0.0,0.0,0.0,0.0,0.0,0.0,0.0,-1.1633,-1.1705,-1.3311,-1.4577,-1.538,-1.5987,-1.629,-1.629,-1.629,-1.6736,-1.761,-1.7521,-1.8019,-1.8984,-1.8984,-1.8497,-1.7666,-1.7666,-1.7134,-1.629,-1.629,-1.5898,-1.5291,-1.5291,0.0,0.0,0.0,0.0,0.0,0.0,0.0,0.0,-1.513,-1.5397,-1.5917,-1.8492,-1.9926,-2.1079,-2.2919,0.0,0.0,0.0,0.0,0.0,0.0,0.0,-3.7883,-3.9551,0.0,-3.902,-3.9778,-3.9304,-3.9039,-3.9797,-4.0574,-4.1086,-4.1086,-4.1711,-4.2204,-4.228,-4.2299,-4.264,-4.3493,-4.3587,-4.3891,-4.463,-4.4668,-4.4668,-4.4668,-4.4668,-4.4706,-4.4781,-4.4781,-4.4838,-4.4895,-4.4895,-4.4895,-4.4895,-4.4895,-4.4895,-4.4895,-4.4895,-4.4895,-4.4895,-4.4895,-4.4895,-4.4895,-4.4895,-4.4895,-4.4895,-4.4895,-4.4895,-4.4938,-4.5038,-4.5103,-4.5125,0.0,0.0,0.0,0.0,0.0,0.0,0.0,0.0,0.0,0.0,0.0,0.0,0.0,0.0,0.0,0.0,0.0,0.0,0.0,0.0,-1.108,-1.1669,-1.3846,-1.538,-1.6148,-1.5755,-1.5541,-1.5541,-1.5541,-1.6237,-1.7592,-1.6951,-1.7449,-1.8843,-1.8843,-1.8038,-1.6695,-1.6695,-1.625,-1.5541,-1.5541,-1.5434,-1.5291,-1.5291,-1.4809,0.0,0.0,0.0,0.0,0.0,0.0,0.0,-1.5085,-1.5699,-1.6395,-1.7621,-1.9202,-2.0778,0.0,-2.3652,0.0,0.0,0.0,0.0,0.0,0.0,-3.7883,-3.9551,-3.9778,-3.9702,-3.9851,-3.9778,-3.9702,-3.9851,-4.006,-4.0195,-4.0195,-4.0347,-4.0707,-4.1389,-4.1465,-4.1787,-4.2602,-4.2678,-4.2754,-4.2924,-4.2943,-4.2943,-4.2943,-4.2943,-4.3246,-4.3947,-4.3966,-4.427,-4.4895,-4.4895,-4.4895,-4.4895,-4.4895,-4.4895,-4.4895,-4.4895,-4.4895,-4.4895,-4.4895,-4.4895,-4.4895,-4.4895,-4.4895,-4.4895,-4.4895,-4.4895,-4.4895,-4.4991,-4.5014,-4.5014,0.0,0.0,0.0,0.0,0.0,0.0,0.0,0.0,0.0,0.0,0.0,0.0,0.0,0.0,0.0,0.0,0.0,0.0,0.0,-1.0474,-1.1633,-1.2793,-1.4417,-1.5291,-1.5309,-1.5291,-1.5113,-1.4738,-1.4738,-1.5505,-1.7022,-1.7379,-1.8199,-1.9359,-1.8966,-1.8128,-1.6951,-1.6558,-1.5969,-1.5327,-1.5684,-1.5612,-1.5291,-1.5291,-1.4809,-1.41,-1.41,0.0,0.0,0.0,0.0,0.0,0.0,0.0,-1.5553,-1.6838,-1.8476,-2.0186,0.0,0.0,0.0,0.0,0.0,0.0,0.0,0.0,-3.7182,-3.8452,-3.9342,-3.9889,-3.9889,-3.9889,-3.9889,-3.9889,-3.9889,-3.9889,-3.9889,-3.9889,-4.006,-4.0536,-4.0593,-4.0915,-4.1749,-4.1844,-4.1996,-4.2375,-4.2412,-4.2412,-4.2412,-4.2412,-4.2621,-4.3057,-4.3076,-4.3474,-4.4326,-4.4326,-4.4516,-4.4895,-4.4895,-4.4895,-4.4895,-4.4895,-4.4895,-4.4895,-4.4895,-4.4895,-4.4895,-4.4895,-4.4895,-4.4895,-4.4895,-4.4895,-4.4895,-4.4986,-4.4991,-4.4991,0.0,0.0,0.0,0.0,0.0,0.0,0.0,0.0,0.0,0.0,0.0,0.0,0.0,0.0,0.0,0.0,0.0,0.0,0.0,-1.0848,-1.2418,-1.4028,-1.4863,-1.5041,-1.4524,-1.5024,-1.497,-1.431,-1.431,-1.5095,0.0,-1.7968,-1.9109,-1.9966,-1.9306,-1.8414,-1.736,-1.6683,-1.5898,-1.5148,-1.5755,-1.5648,-1.5095,-1.5095,-1.4684,-1.41,-1.41,-1.41,-1.41,-1.41,0.0,0.0,0.0,0.0,-1.4423,-1.6069,-1.7705,-1.935,0.0,0.0,0.0,0.0,0.0,0.0,0.0,0.0,-3.6386,-3.7049,-3.8527,-3.9702,-3.9702,-3.9816,-3.9889,-3.9889,-3.9889,-3.9889,-3.9889,-3.9889,-3.9889,-3.9889,-3.9889,-4.0173,-4.0915,-4.0991,-4.1256,-4.192,-4.1977,-4.1977,-4.1977,-4.1977,-4.2052,-4.2204,-4.2204,-4.2621,-4.3474,-4.3474,-4.3815,-4.4478,-4.463,-4.4687,-4.4706,-4.4838,-4.4895,-4.4895,-4.4895,-4.4895,-4.4895,-4.4895,-4.4895,-4.4895,-4.4895,-4.4895,-4.4895,-4.4943,-4.4967,-4.4991,0.0,0.0,0.0,0.0,0.0,0.0,0.0,0.0,0.0,0.0,0.0,-0.9394,-0.9394,-0.9394,0.0,0.0,0.0,0.0,-0.9394,0.0,0.0,-1.4028,-1.4863,-1.5541,-1.6076,-1.5559,-1.5238,-1.5131,-1.5131,0.0,0.0,0.0,0.0,-2.0002,-1.9895,-1.861,-1.654,-1.6451,-1.5577,-1.4274,-1.4381,-1.4363,-1.4274,-1.4274,-1.4189,-1.41,-1.41,-1.41,-1.41,-1.41,-1.41,0.0,0.0,0.0,-1.4274,-1.521,-1.6754,-1.8225,0.0,0.0,0.0,0.0,0.0,0.0,0.0,0.0,-3.6215,0.0,-3.7675,-3.885,-3.885,-3.9437,-3.9889,-3.9889,-3.9889,-3.9889,-3.9889,-3.9889,-3.9889,-3.9889,-3.9889,-3.9946,-4.006,-4.006,-4.0116,-4.0211,-4.0211,-4.0211,-4.0211,-4.0211,-4.0593,-4.1351,-4.137,-4.1749,-4.2583,-4.2583,-4.264,-4.2754,-4.3512,-4.3853,-4.3891,-4.4573,-4.4895,-4.4895,-4.4895,-4.4895,-4.4895,-4.4895,-4.4895,-4.4895,-4.4895,-4.4895,-4.4895,-4.4895,-4.4895,-4.4919,0.0,0.0,0.0,0.0,0.0,0.0,0.0,0.0,0.0,0.0,0.0,-0.9301,-0.9301,-0.9348,0.0,0.0,0.0,0.0,-1.0045,-1.0706,0.0,-1.3369,-1.3761,-1.41,-1.4421,-1.4118,-1.3957,-1.3957,0.0,0.0,0.0,-1.8271,-1.9341,0.0,0.0,0.0,-1.7664,0.0,0.0,-1.41,-1.41,-1.4631,-1.5291,-1.4435,-1.4649,-1.5291,-1.4403,-1.41,-1.41,-1.41,-1.4399,-1.4684,-1.4225,0.0,0.0,0.0,0.0,0.0,0.0,0.0,0.0,0.0,0.0,0.0,0.0,0.0,-3.5476,-3.5476,-3.6443,-3.7428,-3.7883,-3.866,-3.9229,-3.9229,-3.9608,-3.9889,-3.9889,-3.9889,-3.9889,-3.9889,-3.9889,-3.9889,-3.9889,-3.9889,-3.9889,-3.9889,-3.9889,-3.9889,-3.9889,-3.9889,-4.0079,-4.046,-4.0479,-4.0896,-4.173,-4.173,-4.1958,-4.2412,-4.2791,-4.2981,-4.3,-4.3834,-4.4478,-4.4895,-4.4895,-4.4895,-4.4895,-4.4895,-4.4895,-4.4895,-4.4895,-4.4895,-4.4895,-4.4895,-4.4895,-4.4895,0.0,0.0,0.0,0.0,0.0,0.0,0.0,0.0,0.0,0.0,0.0,0.0,-0.9245,0.0,0.0,0.0,0.0,0.0,-1.026,0.0,0.0,0.0,0.0,-1.2786,-1.2602,-1.2799,-1.2893,-1.2893,0.0,0.0,-1.8788,-1.8788,-2.0162,0.0,-2.1179,-1.993,0.0,0.0,0.0,0.0,-1.4684,-1.538,-1.6326,-1.5594,-1.6023,-1.6808,-1.5238,-1.4684,-1.4631,0.0,-1.4506,-1.4899,-1.4292,-1.4506,0.0,0.0,0.0,0.0,0.0,0.0,0.0,0.0,0.0,0.0,0.0,0.0,-3.4566,0.0,-3.5361,-3.6024,-3.663,-3.7637,-3.8433,-3.8662,-3.9191,-3.9683,-3.9851,-3.9889,-3.9889,-3.9889,-3.9889,-3.9889,-3.9889,-3.9889,-3.9889,-3.9889,-3.9889,-3.9889,-3.9889,-3.9889,-3.9889,-3.9889,-3.9889,-4.0214,-4.0858,-4.0877,-4.1181,-4.1787,-4.1996,-4.2109,-4.2128,-4.2981,-4.3701,-4.4289,-4.4724,-4.4895,-4.4895,-4.4895,-4.4895,-4.4895,-4.4895,-4.4895,-4.4895,-4.4895,-4.4895,-4.4895,0.0,0.0,0.0,0.0,0.0,0.0,0.0,0.0,0.0,0.0,0.0,0.0,-0.9375,-0.9394,-0.9394,-0.9394,0.0,0.0,0.0,0.0,0.0,0.0,0.0,0.0,-1.1776,-1.2513,-1.2893,0.0,0.0,0.0,-1.8788,-1.8788,-2.0446,-2.3387,-2.2553,-2.0912,-1.8734,0.0,0.0,0.0,0.0,-1.6326,-1.6558,-1.8021,-1.861,-1.8449,-1.6861,-1.6272,0.0,0.0,0.0,-1.4153,-1.41,-1.4118,-1.4153,0.0,0.0,0.0,0.0,0.0,0.0,0.0,0.0,0.0,0.0,0.0,-3.3705,-3.4454,-3.4745,-3.4903,-3.4941,-3.6326,-3.7732,-3.8586,-3.8757,-3.902,-3.9797,-3.9889,-3.9889,-3.9889,-3.9889,-3.9889,-3.9889,-3.9889,-3.9889,-3.9889,-3.9889,-3.9889,-3.9889,-3.9889,-3.9889,-3.9889,-3.9889,-3.9908,-3.9965,-3.9965,-3.9984,-4.0022,-4.0877,-4.1275,-4.1294,-4.2109,-4.2488,-4.2621,-4.4213,-4.4895,-4.4895,-4.4895,-4.4895,-4.4895,-4.4895,-4.4895,-4.4895,-4.4895,-4.4895,-4.4895,0.0,0.0,0.0,0.0,0.0,0.0,0.0,0.0,0.0,0.0,0.0,0.0,0.0,-0.9126,-0.9224,-0.9265,-0.9339,0.0,0.0,0.0,0.0,0.0,0.0,0.0,0.0,-1.174,0.0,0.0,0.0,-1.365,-1.6576,-1.7575,-1.9181,-2.1268,-2.1447,-2.1054,-2.0162,-1.836,0.0,0.0,0.0,-1.7789,-1.8717,-1.8788,-1.9413,-2.0073,-1.8503,0.0,0.0,0.0,0.0,-1.6165,-1.5184,-1.5202,-1.538,-1.4385,0.0,0.0,0.0,0.0,0.0,0.0,0.0,-2.8044,-2.9781,-3.1257,-3.2463,-3.3222,-3.3413,-3.3691,-3.4411,-3.5677,-3.6727,-3.703,-3.7523,-3.8148,-3.9001,-3.9134,-3.9323,-3.9832,-3.9889,-3.9889,-3.9889,-3.9735,-3.9647,-3.9647,-3.9647,-3.9556,-3.932,-3.9693,-3.9804,-3.9647,-3.9804,-3.9889,-3.9889,-3.9735,-3.9735,-3.9889,-4.0233,-4.0385,-4.0404,-4.1256,-4.1635,-4.1692,-4.281,-4.3606,-4.4137,-4.4137,-4.4421,-4.4895,-4.4895,-4.4895,-4.4895,-4.4895,-4.4895,-4.4895,0.0,0.0,0.0,0.0,0.0,0.0,0.0,0.0,0.0,-0.8677,0.0,0.0,0.0,0.0,-0.9726,-0.9554,-0.9392,-0.93,-0.93,-0.93,0.0,0.0,0.0,0.0,0.0,-1.1312,0.0,0.0,0.0,0.0,0.0,-1.636,-1.7807,-1.9609,-1.9823,-2.0358,0.0,0.0,0.0,-1.8431,0.0,0.0,-2.0394,-2.068,-2.1251,-2.175,0.0,0.0,0.0,0.0,0.0,0.0,-1.6165,-1.5648,-1.5434,-1.4385,-1.5024,0.0,-1.6502,0.0,0.0,0.0,0.0,-2.6114,-2.7822,-2.9466,-3.0886,-3.1654,-3.2047,-3.2563,-3.3613,-3.4498,-3.5354,-3.6082,-3.6651,-3.7277,-3.813,-3.8529,-3.8888,-3.9437,-3.9675,-3.9758,-3.9758,-3.9508,-3.9338,-3.9338,-3.9338,-3.9242,-3.9008,-3.9371,-3.9532,-3.9338,-3.9489,-3.967,-3.9758,-3.9599,-3.9623,-3.9889,-3.9889,-3.9889,-3.9908,-4.0517,-4.0764,-4.0802,-4.1332,-4.2375,-4.3701,-4.3701,-4.4175,-4.4895,-4.4895,-4.4895,-4.4895,-4.4895,-4.4895,-4.4895,0.0,0.0,0.0,0.0,0.0,0.0,0.0,0.0,-0.8652,-0.8805,0.0,0.0,0.0,0.0,0.0,-1.0316,-0.9577,-0.915,-0.9133,-0.9099,0.0,0.0,0.0,0.0,0.0,-1.1319,-1.1693,-1.1658,-1.0955,-1.2187,-1.5166,0.0,-1.6487,-1.8645,-1.7932,-1.886,-2.1001,0.0,-2.0608,-2.0091,0.0,-2.109,-2.1393,0.0,-2.4195,0.0,-2.2642,-2.1857,0.0,-1.9466,0.0,0.0,-1.6986,-1.5416,-1.4171,-1.4171,-1.4756,0.0,0.0,0.0,0.0,0.0,0.0,0.0,-2.5929,0.0,-2.8931,-2.9771,-3.0656,-3.1562,-3.2401,-3.2736,-3.3589,-3.5757,-3.612,-3.6404,-3.7218,-3.8073,-3.8622,-3.8641,-3.91,-3.9427,-3.9427,-3.9115,-3.8906,-3.8906,-3.8906,-3.8906,-3.8906,-3.8906,-3.8925,-3.8971,-3.8943,-3.9144,-3.9502,-3.9483,-3.9623,-3.9889,-3.9889,-3.9889,-3.9889,-3.9889,-3.9889,-3.9889,-3.9889,-4.1332,-4.3625,-4.3625,-4.4118,-4.4857,-4.4857,-4.4876,-4.4895,-4.4895,-4.4895,-4.4895,0.0,0.0,0.0,0.0,0.0,-0.8521,-0.8521,-0.8558,-0.8791,0.0,0.0,0.0,-1.0445,-1.1306,-1.1782,-1.1578,-1.0985,-1.0399,-0.9863,-0.932,-0.9054,-0.9123,-1.0574,-1.1043,-1.0326,-1.1547,-1.1668,-1.0615,-1.1048,-1.1423,-1.1789,-1.3592,-1.5095,-1.6308,-1.7199,-1.7967,-1.8521,-1.795,0.0,-2.0769,-2.0448,-2.0965,0.0,0.0,0.0,0.0,0.0,-2.3891,-2.3552,0.0,-2.1822,-2.0965,0.0,0.0,-1.5755,-1.5755,-1.6754,0.0,-1.6665,0.0,0.0,0.0,0.0,0.0,0.0,0.0,-2.6393,-2.829,-2.8918,-2.9583,-3.1209,-3.2007,-3.2658,-3.3538,-3.4269,-3.5025,-3.5834,-3.6152,-3.6545,-3.7186,-3.7374,-3.7455,-3.7455,-3.7173,-3.6961,-3.6961,-3.6961,-3.6912,-3.6699,-3.6883,-3.735,-3.8199,-3.7978,-3.8396,-3.9483,-3.9242,-3.9371,-3.9889,-3.9889,-3.9889,-3.9889,-3.9889,-3.9889,-3.9889,-3.9889,-4.0669,-4.1901,-4.1901,-4.2735,-4.4023,-4.4023,-4.4383,-4.4895,-4.4895,-4.4895,-4.4895,0.0,0.0,0.0,0.0,-0.9216,-0.9426,-0.9426,-0.9454,-0.9614,0.0,0.0,0.0,-1.1938,-1.2813,-1.3066,-1.2489,-1.1824,-1.1033,-0.9987,-0.953,-0.9207,-0.8981,-1.0391,-1.0997,-1.0629,-1.1761,-1.1806,-1.0699,-1.0845,-1.0732,-1.0443,-1.2151,-1.3231,-1.3809,-1.534,-1.6017,-1.5981,-1.56,0.0,0.0,-2.0733,0.0,0.0,-2.4052,-2.4766,0.0,0.0,0.0,-2.5087,-2.4623,-2.3499,0.0,0.0,0.0,0.0,-1.7004,-1.8039,0.0,0.0,0.0,0.0,0.0,0.0,0.0,-2.3119,-2.3873,-2.4694,-2.6389,-2.6996,-2.7665,-2.9124,-3.0044,-3.074,-3.1279,-3.2452,-3.3655,-3.4686,-3.5119,-3.5553,-3.6087,-3.6356,-3.648,-3.648,-3.6221,-3.6035,-3.6035,-3.6035,-3.5964,-3.5802,-3.5951,-3.6344,-3.6996,-3.6838,-3.7187,-3.813,-3.8385,-3.8763,-3.9248,-3.9697,-3.9889,-3.9889,-3.9889,-3.9889,-3.9889,-3.9889,-4.0173,-4.0669,-4.0669,-4.1654,-4.3189,-4.3568,-4.3985,-4.444,-4.4781,-4.4895,-4.4895,0.0,0.0,-0.9672,-0.9672,-1.0315,-1.08,-1.08,-1.0865,-1.0962,0.0,-1.1707,-1.2746,-1.4235,-1.4897,-1.474,-1.3495,-1.2559,-1.1434,-1.0027,-0.9781,-0.9442,-0.8921,-1.0229,-1.1071,-1.127,-1.1984,-1.2023,-1.1335,-1.0565,-1.0254,-1.0359,-1.0993,-1.1382,-1.1628,-1.3089,-1.3736,-1.3713,-1.4229,0.0,-1.886,-2.1126,-2.2678,0.0,0.0,-2.5854,-2.6032,-2.6728,-2.6603,-2.605,-2.5961,-2.4427,0.0,0.0,0.0,0.0,-1.8217,-1.9056,0.0,0.0,0.0,0.0,0.0,0.0,0.0,-2.2923,-2.3369,-2.3713,-2.4427,-2.5158,-2.5925,-2.671,-2.7567,-2.8389,-2.9106,-3.0614,-3.2216,-3.3589,-3.4522,-3.5084,-3.5136,-3.557,-3.5842,-3.5889,-3.5648,-3.5517,-3.5548,-3.5548,-3.5548,-3.5548,-3.5548,-3.5584,-3.5675,-3.5675,-3.583,-3.6203,-3.7229,-3.7891,-3.816,-3.9252,-3.9778,-3.9778,-3.9851,-3.9889,-3.9889,-3.9889,-3.9889,-3.9889,-3.9889,-4.084,-4.2337,-4.3114,-4.3474,-4.3644,-4.4478,-4.4762,-4.4781,0.0,-0.9952,-1.016,-1.016,-1.0912,-1.1496,-1.1496,-1.1998,-1.26,-1.3184,-1.4383,-1.5729,-1.7207,-1.6995,-1.6661,-1.6368,-1.4647,-1.295,-1.1482,-1.0277,-0.9588,-0.9541,-1.0378,-1.1134,-1.1744,-1.2438,-1.2174,-1.0928,-1.0853,-1.0538,-1.0018,-1.0838,-1.126,-1.1425,-1.2854,-1.329,-1.3155,-1.562,0.0,-1.8003,-1.9734,-2.2054,-2.4569,-2.5461,-2.6193,-2.6782,-2.6942,-2.7317,-2.7611,-2.6978,-2.564,-2.407,0.0,0.0,0.0,-2.0644,-2.109,-2.1697,-2.1054,-2.1465,0.0,0.0,-2.1697,0.0,-2.1643,-2.2571,-2.3529,-2.3713,-2.4373,-2.514,-2.5908,-2.6718,-2.7308,-2.7451,-2.8872,-3.0478,-3.2169,-3.3038,-3.3526,-3.3556,-3.3641,-3.3768,-3.3864,-3.3822,-3.3822,-3.3864,-3.3882,-3.3882,-3.3882,-3.3882,-3.4172,-3.4824,-3.4842,-3.5266,-3.6203,-3.6628,-3.6988,-3.7276,-3.8404,-3.8925,-3.8944,-3.9608,-3.9889,-3.9889,-3.9889,-3.9889,-3.9889,-3.9889,-4.0517,-4.1465,-4.1616,-4.209,-4.2773,-4.3625,-4.3929,-4.4023,0.0,-1.0428,-1.0963,-1.1325,-1.2178,-1.2905,-1.3226,-1.3618,-1.4103,-1.4854,-1.6484,-1.761,-1.7652,-1.7977,-1.7766,-1.6694,-1.5281,-1.3836,-1.2391,-1.127,-1.0507,-1.0212,-1.088,-1.1417,-1.1792,-1.2528,-1.24,-1.135,-1.1004,-1.052,-0.9902,-1.0283,-1.0771,-1.1395,-1.2372,-1.3151,-1.3806,0.0,-1.6918,-1.8645,-2.0865,0.0,-2.4819,-2.5961,-2.6907,-2.7603,-2.7603,-2.787,-2.8031,-2.6817,-2.589,-2.5051,-2.385,-2.3499,-2.3338,0.0,-2.2874,-2.332,-2.2517,-2.2589,0.0,-2.291,-2.2589,0.0,0.0,-2.291,-2.3017,-2.3405,-2.3838,-2.4212,-2.4587,-2.5319,-2.5854,-2.5854,-2.7174,-2.8504,-2.9384,-3.0901,-3.1936,-3.1948,-3.1948,-3.2139,-3.2601,-3.2637,-3.2829,-3.3316,-3.3382,-3.3393,-3.3393,-3.3393,-3.3592,-3.3991,-3.4009,-3.4261,-3.4801,-3.5478,-3.5929,-3.6227,-3.7322,-3.8159,-3.8719,-3.9115,-3.9532,-3.9889,-3.9889,-3.9889,-3.9889,-3.9889,-4.0154,-4.0593,-4.1029,-4.1465,-4.1901,-4.2754,-4.3057,-4.3114,0.0,-1.0857,-1.1747,-1.2384,-1.3384,-1.4286,-1.481,-1.5133,-1.5619,-1.65,-1.8129,-1.8875,-1.7989,-1.8827,-1.8702,-1.6986,-1.5917,-1.4735,-1.3294,-1.2387,-1.1675,-1.114,-1.148,-1.1836,-1.2112,-1.262,-1.2544,-1.186,-1.1091,-1.0483,-1.0051,-0.9943,-1.0461,-1.1521,-1.2429,-1.3532,0.0,0.0,0.0,-1.9699,0.0,-2.4011,-2.4873,-2.6407,-2.7406,-2.7995,-2.8128,-2.8182,-2.7968,-2.6532,-2.6032,-2.5765,-2.423,-2.4236,0.0,0.0,-2.4254,-2.4693,-2.41,-2.3945,-2.407,-2.4569,-2.382,-2.3195,0.0,0.0,0.0,-2.3213,-2.3387,-2.3494,0.0,-2.4034,-2.448,-2.448,-2.564,-2.655,-2.655,-2.8389,-2.9904,-3.0266,-3.0427,-3.0769,-3.1445,-3.1546,-3.1899,-3.2739,-3.2852,-3.2984,-3.3128,-3.3291,-3.3382,-3.3393,-3.3393,-3.3393,-3.3393,-3.432,-3.4913,-3.5169,-3.6255,-3.7294,-3.8245,-3.8567,-3.9039,-3.9683,-3.9813,-3.9889,-3.9889,-3.9889,-3.9889,-3.9965,-4.0688,-4.0953,-4.1067,-4.1882,-4.2185,-4.2204,-1.0648,-1.1409,-1.2117,-1.2443,-1.378,-1.481,-1.4891,-1.6014,-1.7335,-1.8664,-1.9054,-1.9592,-2.071,-2.0434,-2.0078,0.0,-1.7989,-1.6224,-1.4762,-1.3407,-1.2648,-1.2567,-1.2015,-1.2306,-1.3605,-1.3086,-1.2438,-1.1708,-1.1043,-1.0686,-1.062,-1.0589,-1.0994,-1.1844,-1.4113,0.0,0.0,0.0,-1.9241,0.0,-2.2712,-2.4086,-2.4873,-2.6407,-2.7049,-2.7228,-2.7959,-2.8182,-2.8039,-2.7174,-2.6853,-2.6586,-2.5051,-2.487,-2.5156,-2.4711,0.0,0.0,-2.5493,-2.5551,-2.5408,-2.4837,-2.5051,-2.4908,-2.2999,0.0,-2.4052,-2.2696,0.0,-2.3494,-2.3494,0.0,0.0,-2.3636,-2.4391,-2.4962,-2.4962,-2.5765,-2.6871,-2.8326,-2.913,-2.9622,-2.9779,-2.9835,-3.0214,-3.1006,-3.1106,-3.1441,-3.2191,-3.2913,-3.3352,-3.3411,-3.3393,-3.3393,-3.3393,-3.3762,-3.4076,-3.4346,-3.5431,-3.6123,-3.6519,-3.8016,-3.8736,-3.8869,-3.9589,-3.9889,-3.9889,-3.9889,-3.9889,-3.9908,-4.0003,-4.0063,-4.0135,-4.1029,-4.1351,-4.1446,-1.0535,-1.1299,0.0,-1.2645,-1.3493,-1.4377,-1.5231,-1.6843,-1.8187,-1.876,-1.9587,-2.0368,0.0,0.0,0.0,0.0,0.0,-1.7245,0.0,0.0,-1.446,-1.4039,-1.3711,-1.3666,-1.3901,-1.3609,-1.307,-1.2338,-1.1254,-1.0702,-1.0687,-1.0266,-1.0976,-1.2672,-1.3996,0.0,-1.7349,0.0,-1.9169,0.0,0.0,-2.3,-2.3762,-2.639,-2.7538,-2.7745,-2.8075,-2.8182,-2.8075,-2.7264,-2.6693,-2.6239,-2.5862,-2.5676,-2.5614,-2.5703,-2.5994,-2.6233,-2.5875,-2.5967,-2.6003,-2.5465,-2.5417,-2.519,-2.3969,-2.3856,-2.382,-2.3142,0.0,0.0,0.0,0.0,0.0,0.0,-2.3644,-2.3655,-2.3351,-2.3478,-2.4389,-2.6542,-2.7121,-2.7522,-2.7996,-2.8515,-2.8981,-2.9322,-2.9826,-3.0476,-3.1372,-3.2173,-3.2852,-3.3393,-3.3393,-3.3393,-3.3393,-3.3491,-3.378,-3.4197,-3.4652,-3.5334,-3.6215,-3.6917,-3.7769,-3.8738,-3.9058,-3.9475,-3.9889,-3.9889,-3.9889,-3.9889,-3.9889,-3.9889,-3.9927,-4.0328,-4.046,-4.0498,-1.0363,0.0,0.0,0.0,-1.3087,-1.3964,-1.5578,-1.718,-1.8327,-1.8717,-1.9687,-2.0487,-2.0863,-2.0799,0.0,0.0,-1.9597,-1.8475,0.0,0.0,-1.5935,-1.5503,-1.5108,-1.482,-1.4626,-1.4131,-1.3641,-1.3102,-1.1675,-1.0962,-1.0962,-1.0428,-1.122,-1.3139,-1.4367,-1.6248,-1.8568,0.0,-1.9761,-2.0733,-2.1953,-2.2942,-2.3898,-2.6335,-2.7508,-2.794,-2.794,-2.7996,-2.7929,-2.703,-2.6402,-2.5994,-2.6048,-2.5908,-2.5815,-2.6236,-2.6608,-2.6831,-2.6446,-2.6513,-2.6606,-2.5974,-2.557,-2.5165,-2.4515,-2.4017,-2.365,-2.3437,-2.3561,0.0,0.0,0.0,-2.3052,-2.3247,0.0,-2.2884,-2.2562,-2.2159,-2.2605,-2.4502,-2.5131,-2.5725,-2.6586,-2.7066,-2.7396,-2.7593,-2.8201,-2.9035,-3.017,-3.1171,-3.2166,-3.3049,-3.3284,-3.3393,-3.3393,-3.3393,-3.3615,-3.4099,-3.4099,-3.468,-3.5776,-3.5984,-3.68,-3.8035,-3.851,-3.902,-3.9589,-3.9816,-3.9889,-3.9889,-3.9889,-3.9889,-3.9889,-3.9889,-3.9889,-3.9889,-1.03,-1.106,0.0,0.0,-1.2676,-1.3891,-1.5891,-1.6745,-1.7624,-1.9006,-1.9221,0.0,0.0,0.0,0.0,0.0,0.0,-2.0221,-1.9033,0.0,-1.6628,-1.6921,-1.5636,-1.5382,0.0,-1.4764,-1.3901,-1.3869,-1.2405,-1.1675,-1.1675,-1.1642,-1.2047,-1.2962,-1.6082,-1.7715,-1.8286,-2.0742,-2.2035,-2.2492,-2.3242,-2.4644,-2.6269,-2.6099,-2.654,-2.7244,-2.7244,-2.743,-2.7549,-2.642,-2.6231,-2.6311,-2.519,-2.5166,-2.5573,-2.5918,-2.6356,-2.6839,-2.7465,-2.7648,-2.7355,-2.6116,-2.5596,-2.5085,-2.3821,-2.3914,-2.4058,-2.326,-2.3741,-2.3946,-2.292,-2.273,-2.273,-2.2712,-2.273,0.0,0.0,-2.2223,-2.1722,-2.199,-2.3407,-2.4741,-2.574,-2.5212,-2.5105,-2.5836,-2.5908,-2.668,-2.8396,-2.998,-3.1261,-3.2216,-3.2995,-3.3393,-3.3393,-3.3393,-3.3549,-3.3815,-3.3815,-3.4117,-3.468,-3.545,-3.5993,-3.6367,-3.7997,-3.8719,-3.8793,-3.9589,-3.9889,-3.9889,-3.9889,-3.9889,-3.9889,-3.9889,-3.9889,-3.9889,0.0,0.0,0.0,0.0,0.0,-1.3612,-1.5802,-1.7258,-1.8528,0.0,-2.0005,0.0,0.0,-2.2238,-2.2223,0.0,0.0,-2.1306,-2.0452,-1.9682,0.0,-1.8749,-1.8071,-1.7678,0.0,0.0,-1.5778,-1.5285,-1.3358,-1.2681,-1.3135,-1.216,-1.2597,-1.4281,-1.6357,-1.7869,0.0,0.0,0.0,0.0,-2.3111,-2.4587,-2.612,-2.6469,-2.6779,-2.7066,-2.7066,-2.7178,-2.7303,-2.6933,-2.6532,-2.6152,-2.6102,-2.5936,-2.5928,-2.6345,-2.7093,-2.7806,-2.8034,-2.8662,-2.8836,-2.7362,-2.672,-2.6033,-2.44,-2.4497,-2.4611,-2.3358,-2.392,-2.4336,-2.3404,-2.2764,-2.251,-2.2884,-2.2634,-2.2124,0.0,-2.0467,-2.003,-2.0649,-2.1787,0.0,-2.317,-2.347,-2.3596,-2.3499,-2.4462,-2.5797,-2.7438,-2.8569,-3.006,-3.2058,-3.2383,-3.281,-3.3393,-3.3393,-3.352,-3.3807,-3.3807,-3.3998,-3.4358,-3.4619,-3.5188,-3.5991,-3.7084,-3.7983,-3.8755,-3.957,-3.9889,-3.9889,-3.9889,-3.9889,-3.9889,-3.9889,-3.9889,-3.9889,-1.2307,0.0,0.0,0.0,0.0,-1.4097,-1.5845,-1.7593,-1.9072,0.0,-2.0512,0.0,-2.2692,0.0,-2.25,0.0,-2.2566,-2.194,-2.1128,-2.0782,0.0,-1.9791,-1.9358,-1.8975,0.0,0.0,0.0,-1.6184,-1.4675,-1.4059,-1.4238,-1.3278,-1.3581,-1.4972,-1.6694,-1.7967,-1.9049,-2.1681,-2.254,0.0,-2.371,-2.4919,-2.586,-2.6262,-2.6522,-2.6607,-2.6607,-2.6724,-2.6891,-2.6791,-2.6485,-2.626,-2.6707,-2.6674,-2.6555,-2.7145,-2.7789,-2.8372,-2.8476,-2.9068,-2.9319,-2.8105,-2.7528,-2.6815,-2.5055,-2.5125,-2.5216,-2.3946,-2.4105,-2.4453,-2.4455,-2.3119,-2.2367,-2.3264,-2.2649,-2.1602,0.0,-1.9866,-1.974,-1.9883,0.0,0.0,0.0,-2.2611,-2.2782,-2.2727,-2.341,-2.4563,-2.6193,-2.7305,-2.8919,-3.1153,-3.1766,-3.248,-3.3352,-3.3352,-3.3452,-3.3661,-3.3661,-3.3807,-3.4049,-3.4049,-3.4548,-3.5431,-3.622,-3.72,-3.83,-3.9134,-3.9646,-3.9889,-3.9889,-3.9889,-3.9889,-3.9889,-3.9889,-3.9889,-1.2925,-1.2574,0.0,0.0,-1.4197,-1.5253,0.0,0.0,-1.9277,0.0,-2.0669,-2.1293,-2.2004,-2.2401,-2.2681,-2.2875,-2.2714,-2.2162,-2.1175,-2.0799,0.0,0.0,-1.9531,-1.9318,-1.9669,0.0,0.0,0.0,0.0,-1.5683,-1.5004,-1.4923,-1.4923,-1.5053,-1.7164,0.0,-1.8378,-2.1989,-2.3545,-2.374,-2.5065,-2.5616,-2.5616,-2.5616,-2.5712,-2.5897,-2.5881,-2.6082,-2.6314,-2.6026,-2.6189,-2.6587,-2.6995,-2.7222,-2.7462,-2.8213,-2.8406,-2.85,-2.8861,-2.8952,-2.8873,-2.8391,-2.8066,-2.7437,-2.5785,-2.5796,-2.5911,-2.5043,-2.4448,-2.4462,-2.5862,-2.3834,-2.2344,-2.3701,-2.2675,-2.1251,-1.9849,-2.0441,-2.0673,-1.9744,0.0,0.0,0.0,-2.2534,-2.2567,-2.3315,-2.2749,-2.3079,-2.4705,-2.6211,-2.7797,-2.9494,-3.1114,-3.2367,-3.3238,-3.3274,-3.3322,-3.3411,-3.3411,-3.352,-3.378,-3.378,-3.4074,-3.4617,-3.5428,-3.6387,-3.7466,-3.8338,-3.9172,-3.9889,-3.9889,-3.9889,-3.9889,-3.9889,-3.9889,-3.9889,-1.3657,-1.426,-1.4963,0.0,-1.5343,-1.5552,-1.717,-1.8323,0.0,0.0,-2.1474,-2.2104,-2.3066,-2.2966,-2.2833,-2.2873,-2.2863,0.0,0.0,0.0,0.0,-2.1884,-2.1523,-2.1155,-2.0792,-1.9928,-1.9262,-1.8885,0.0,-1.6428,-1.65,-1.5408,-1.5182,-1.5803,0.0,-1.8394,-1.9135,-2.22,-2.4094,-2.5098,-2.547,-2.5616,-2.5616,-2.5616,-2.5616,-2.5675,-2.5717,-2.5864,-2.6026,-2.5934,-2.6282,-2.6854,-2.7048,-2.7493,-2.8009,-2.8323,-2.8738,-2.9152,-2.9254,-2.9653,-2.9982,-2.9631,-2.9022,-2.8296,-2.7385,-2.7623,-2.7707,-2.642,-2.6724,-2.6806,-2.5399,-2.4221,-2.3283,-2.2757,-2.1723,-2.0837,-2.0472,0.0,0.0,-2.0373,0.0,0.0,0.0,-2.1389,-2.1698,-2.1516,-2.2536,-2.3642,-2.4665,-2.5611,-2.6913,-2.8578,-3.0202,-3.1451,-3.2331,-3.2877,-3.3214,-3.3322,-3.3322,-3.3382,-3.3491,-3.3491,-3.3807,-3.4349,-3.5155,-3.6235,-3.7466,-3.8338,-3.9172,-3.9889,-3.9889,-3.9889,-3.9889,-3.9889,-3.9889,-3.9889,-1.464,-1.5469,0.0,-1.6972,-1.6564,-1.6618,-1.8024,-1.8827,-1.9713,-2.0965,-2.1526,-2.2077,-2.2658,-2.2759,-2.2797,-2.2872,-2.2872,0.0,-2.2497,0.0,0.0,-2.2275,-2.214,-2.1889,-2.1545,-2.0722,0.0,-1.9654,0.0,-1.7183,-1.7076,-1.5984,-1.5758,-1.6319,0.0,-1.8716,-1.9394,-2.2281,-2.411,-2.5146,-2.5486,-2.5616,0.0,-2.5616,-2.5616,-2.5616,-2.5659,-2.5696,-2.5798,-2.6162,-2.6521,-2.6983,-2.7715,-2.8247,-2.8688,-2.9154,-2.9558,-2.9856,-2.9856,-3.0195,-3.0468,-3.0256,-2.9878,-2.9314,-2.8443,-2.8511,-2.8561,-2.7735,-2.7593,-2.7437,-2.6927,-2.5263,-2.3567,-2.2233,-2.1532,-2.1081,0.0,0.0,0.0,0.0,-2.1019,-2.0839,-1.9932,-2.078,-2.1178,-2.0695,-2.1773,-2.2758,-2.3466,-2.4967,-2.6397,-2.7674,-2.9633,-3.104,-3.19,-3.266,-3.3104,-3.3214,-3.3262,-3.3322,-3.3352,-3.3382,-3.3698,-3.4234,-3.4686,-3.5829,-3.7428,-3.7921,-3.8831,-3.9889,-3.9889,-3.9889,-3.9889,-3.9889,-3.9889,-3.9889,-1.5848,0.0,0.0,0.0,0.0,-1.8092,-1.8789,-1.9381,-1.9989,-2.0698,-2.1369,-2.1755,-2.1755,-2.2312,-2.279,-2.2925,-2.2925,-2.2725,-2.2236,-2.2642,-2.2642,-2.2106,-2.212,-2.2077,-2.2004,-2.1108,-2.031,-1.9603,-1.8594,-1.7685,-1.6899,-1.6462,-1.63,0.0,0.0,0.0,0.0,-2.2443,-2.3916,-2.4693,-2.5341,-2.5616,-2.5616,-2.5616,-2.5616,-2.5632,-2.5729,-2.5745,-2.5843,-2.6474,-2.6837,-2.729,-2.86,-2.9123,-2.937,-3.0136,-3.0375,-3.0401,-3.0485,-3.0468,-3.0526,-3.0526,-3.0526,-3.022,-2.9252,-2.9026,-2.9026,-2.9026,-2.8,-2.754,-2.8992,-2.6468,-2.3653,-2.2178,-2.193,-2.1715,0.0,0.0,0.0,0.0,0.0,0.0,-1.9535,-2.0368,-2.078,-2.035,-2.0741,-2.1299,-2.1978,-2.4193,-2.5882,-2.68,-2.9137,-3.0773,-3.1631,-3.2532,-3.3011,-3.3086,-3.3214,-3.3292,-3.334,-3.3382,-3.3671,-3.4148,-3.4173,-3.5338,-3.7198,-3.7353,-3.8395,-3.9889,-3.9889,-3.9889,-3.9889,-3.9889,-3.9889,-3.9889,-1.7155,0.0,0.0,0.0,-1.8731,-1.9332,-2.0021,-2.0232,-2.0599,-2.1281,-2.1981,-2.2443,-2.2443,-2.2955,-2.3388,-2.3529,-2.3529,-2.3486,-2.3418,-2.3074,-2.2814,-2.2682,-2.2698,-2.2438,-2.1874,-2.122,-2.046,-1.953,-1.8295,-1.706,-1.5863,-1.6313,-1.6057,0.0,0.0,0.0,-2.2783,-2.3302,-2.4223,-2.5438,-2.5567,-2.5616,-2.5616,-2.5616,-2.5616,-2.5697,-2.6296,-2.6506,-2.6523,-2.6652,-2.7462,-2.8508,-2.8867,-2.9381,-2.9897,-3.0156,-3.0316,-3.0401,-3.0401,-3.0443,-3.0526,-3.0526,-3.0526,-3.0444,-3.0236,-3.0211,-3.0211,-3.0211,-3.0011,-2.954,-2.8743,-2.6568,-2.4431,-2.294,-2.2708,-2.2659,-2.2526,0.0,0.0,0.0,0.0,-2.1082,-1.8899,-1.9655,-1.9993,-1.9307,-2.0102,-2.1004,-2.1954,-2.3064,-2.4382,-2.5961,-2.8352,-2.9958,-3.0737,-3.2184,-3.2979,-3.3086,-3.3117,-3.3226,-3.3364,-3.3393,-3.3577,-3.3868,-3.4099,-3.4927,-3.6136,-3.7045,-3.8395,-3.9889,-3.9889,-3.9889,-3.9889,-3.9889,-3.9889,-3.9889,-1.8925,0.0,0.0,0.0,-2.0189,-2.0709,-2.165,-2.2118,-2.2249,-2.1897,-2.2423,-2.2852,-2.2852,-2.3419,-2.3836,-2.3934,-2.3969,-2.4032,-2.4177,-2.3937,-2.3634,-2.3378,-2.3395,-2.3045,-2.2334,-2.1801,-2.1087,-2.0177,-1.8643,-1.7403,-1.6442,-1.622,-1.6034,-1.5929,0.0,-2.0749,0.0,-2.3351,-2.4078,-2.5065,-2.5454,-2.5616,-2.5664,-2.6037,-2.6166,-2.6264,-2.6976,-2.7462,-2.7786,-2.7786,-2.8239,-2.8897,-2.9329,-2.9686,-2.9989,-3.006,-3.0146,-3.0231,-3.0375,-3.0401,-3.0443,-3.0485,-3.0526,-3.0526,-3.0526,-3.0526,-3.0526,-3.0526,-3.0526,-2.9963,-2.818,-2.6319,-2.4746,-2.3653,-2.3156,-2.2891,-2.2891,-2.2592,-2.2096,0.0,0.0,0.0,0.0,-1.9543,-1.9446,-1.846,-1.9406,-2.0438,-2.1321,-2.2635,-2.4117,-2.5747,-2.7745,-2.9333,-3.0493,-3.1671,-3.2536,-3.3042,-3.3086,-3.3196,-3.3352,-3.3364,-3.3549,-3.3815,-3.4074,-3.4811,-3.5923,-3.744,-3.8793,-3.9889,-3.9889,-3.9889,-3.9889,-3.9889,-3.9889,-3.9889,-2.0456,-2.0175,0.0,-2.1316,-2.1611,-2.1974,-2.2943,-2.3758,-2.3906,-2.278,-2.2999,-2.3294,-2.3294,-2.387,-2.4301,-2.4425,-2.4425,-2.4475,-2.474,-2.4661,-2.4408,-2.3966,-2.3916,-2.3565,-2.2904,-2.2263,-2.147,-2.0594,-1.9075,-1.7911,-1.7049,-1.641,-1.6503,-1.73,-1.9028,-2.0797,-2.2552,-2.3157,-2.4032,-2.5017,-2.547,-2.5847,-2.6118,-2.6701,-2.6911,-2.6992,-2.7688,-2.8304,-2.8806,-2.8968,-2.9016,-2.9113,-2.974,-2.9918,-2.9902,-2.9973,-2.9973,-3.006,-3.0274,-3.0333,-3.0359,-3.0443,-3.0443,-3.0443,-3.0485,-3.0443,-3.0426,-3.0485,-3.0352,-2.9641,-2.7644,-2.6336,-2.5226,-2.4166,-2.3636,-2.3255,-2.294,-2.2891,0.0,0.0,0.0,0.0,-1.9717,-1.9452,-1.8976,-1.8087,-1.8763,-1.9664,-2.0675,-2.2127,-2.3738,-2.5515,-2.7121,-2.8691,-3.0261,-3.1225,-3.213,-3.2979,-3.3073,-3.3152,-3.3292,-3.3352,-3.3491,-3.3726,-3.3998,-3.4857,-3.6186,-3.7761,-3.9001,-3.9889,-3.9889,-3.9889,-3.9889,-3.9889,-3.9889,-3.9889,-2.1119,0.0,-2.1344,-2.1974,-2.2564,-2.2957,-2.3069,-2.4123,-2.4709,-2.4033,-2.3991,-2.4033,-2.4033,-2.4568,-2.4948,-2.5105,-2.5105,-2.5105,-2.5157,-2.4805,-2.4447,-2.4177,-2.3894,-2.3564,-2.3268,-2.2195,-2.1041,-1.9815,-1.9161,-1.8085,-1.6692,-1.7186,-1.7979,-1.8987,-1.9725,-2.1101,-2.2857,-2.3125,-2.4477,-2.6451,-2.611,-2.659,-2.751,-2.7591,-2.7608,-2.7705,-2.8433,-2.8725,-2.8887,-2.9594,-2.9805,-2.9821,-2.9902,-2.9918,-2.9918,-2.9902,-2.9946,-3.0017,-3.0017,-3.0103,-3.0231,-3.0248,-3.0231,-3.0274,-3.0359,-3.0333,-3.0274,-3.0359,-2.9865,-2.8982,-2.7561,-2.7201,-2.6402,-2.4332,-2.4497,-2.4431,-2.3089,-2.2891,-2.2377,-2.0981,0.0,0.0,-1.9667,-1.8989,-1.8643,-1.8689,-1.8251,-1.8728,-2.0425,-2.0845,-2.2215,-2.473,-2.63,-2.787,-2.9494,-3.0957,-3.213,-3.2979,-3.3028,-3.3122,-3.331,-3.331,-3.3352,-3.3452,-3.3726,-3.5002,-3.6919,-3.7345,-3.8452,-3.9889,-3.9889,-3.9889,-3.9889,-3.9889,-3.9889,-3.9889,-2.2273,-2.2089,-2.229,-2.3638,-2.3758,-2.3926,-2.4657,-2.5205,-2.543,-2.5191,-2.5163,-2.5163,-2.5163,-2.5388,-2.5582,-2.5635,-2.5635,-2.5635,-2.5742,-2.5607,-2.536,-2.4924,-2.4783,-2.4455,-2.3858,-2.3103,-2.2281,-2.1338,-2.011,-1.8988,-1.7961,-1.7726,-1.8371,-1.9767,-2.0622,-2.2003,-2.3685,-2.3763,-2.4823,-2.6397,-2.6209,-2.6408,-2.6879,-2.7592,-2.7881,-2.8035,-2.9076,-2.948,-2.9529,-2.9821,-2.9918,-2.9918,-2.9918,-2.9918,-2.9918,-2.9918,-2.9902,-2.9946,-2.9973,-3.0017,-3.0103,-3.0189,-3.0189,-3.0189,-3.029,-3.0231,-3.0231,-3.0359,-2.9824,-2.8907,-2.747,-2.6879,-2.6352,-2.5475,-2.5209,-2.4746,-2.3702,-2.3553,0.0,-2.1532,0.0,-2.1069,-2.0323,-1.9611,-1.9207,-1.9284,-1.837,-1.8637,-2.0523,-2.0727,-2.1998,-2.4623,-2.5729,-2.7281,-2.9387,-3.0457,-3.1648,-3.2979,-3.2979,-3.3042,-3.3165,-3.3165,-3.3268,-3.3484,-3.3652,-3.4877,-3.6727,-3.7032,-3.8143,-3.9689,-3.9845,-3.9889,-3.9889,-3.9889,-3.9889,-3.9889,-2.2977,-2.2737,-2.2923,-2.4435,-2.4498,-2.4632,-2.548,-2.5784,-2.5893,-2.5893,-2.5893,-2.5893,-2.5893,-2.5893,-2.5893,-2.5893,-2.5893,-2.5948,-2.6002,-2.6056,-2.5926,-2.554,-2.5393,-2.508,-2.4459,-2.395,-2.3339,-2.2635,-2.1311,-2.031,-1.9678,-1.8892,-1.9292,-2.0722,-2.159,-2.2847,-2.4313,-2.4366,-2.5196,-2.6504,-2.6382,-2.6535,-2.6903,-2.7781,-2.8196,-2.8455,-2.9339,-2.977,-2.9918,-2.9918,-2.9918,-2.9918,-2.9918,-2.9918,-2.9918,-2.9918,-2.9918,-2.9902,-2.9946,-2.9989,-2.9973,-3.0076,-3.0119,-3.0119,-3.0162,-3.0119,-3.0097,-3.0053,-2.9453,-2.8603,-2.7382,-2.6611,-2.6049,-2.5834,-2.5537,-2.4977,-2.3819,-2.3835,-2.3454,-2.1963,-2.1599,-2.135,-2.1064,-2.0174,-1.9684,-1.9871,-1.9194,-1.9429,-2.0871,-2.1061,-2.2246,-2.4623,-2.5872,-2.7442,-2.9387,-3.0368,-3.1576,-3.2979,-3.2979,-3.3011,-3.3055,-3.3086,-3.322,-3.3437,-3.3625,-3.4734,-3.6435,-3.6752,-3.7866,-3.9364,-3.967,-3.9781,-3.9781,-3.9867,-3.9889,-3.9889,-2.2998,-2.3102,-2.3271,-2.3903,-2.4553,-2.4991,-2.5005,-2.5508,-2.5893,-2.5893,-2.5893,-2.5893,-2.5893,-2.5893,-2.5893,-2.5893,-2.5893,-2.5893,-2.5893,-2.6002,-2.6056,-2.5879,-2.5463,-2.5137,-2.4966,-2.4413,-2.3858,-2.3285,-2.2649,-2.2104,-2.1539,-2.0997,-2.1181,-2.1989,-2.2628,-2.3539,-2.4612,-2.4736,-2.5738,-2.7164,-2.6768,-2.7243,-2.8273,-2.8273,-2.8622,-2.9074,-2.912,-2.947,-2.9918,-2.9918,-2.9918,-2.9918,-2.9918,-2.9918,-2.9918,-2.9918,-2.9918,-2.9918,-2.9918,-2.9918,-2.9918,-2.9902,-2.9902,-2.9902,-2.9989,-2.9946,-2.9751,-2.9214,-2.8534,-2.7892,-2.7412,-2.6594,-2.5779,-2.5038,-2.5532,-2.5252,-2.3094,-2.3521,-2.3454,-2.1963,-2.118,-2.1014,-2.1715,-2.0472,-1.9855,-2.0553,-2.0942,-2.1285,-2.1564,-2.1831,-2.2829,-2.4641,-2.6978,-2.8584,-2.9387,-3.0921,-3.2081,-3.2916,-3.2916,-3.2948,-3.3011,-3.3055,-3.3165,-3.3322,-3.3577,-3.4651,-3.6232,-3.6488,-3.7541,-3.9036,-3.9364,-3.9483,-3.9551,-3.9804,-3.9889,-3.9889,-2.2964,-2.3119,-2.3288,-2.3878,-2.458,-2.5005,-2.5005,-2.5508,-2.5893,-2.5893,-2.5893,-2.5893,-2.5893,-2.5893,-2.5893,-2.5893,-2.5893,-2.5893,-2.5893,-2.5948,-2.5948,-2.5893,-2.5765,-2.5652,-2.5598,-2.4994,-2.4638,-2.4455,-2.3512,-2.2725,-2.2224,-2.2512,-2.2818,-2.3172,-2.3807,-2.4588,-2.5443,-2.545,-2.6052,-2.6908,-2.6806,-2.6924,-2.7306,-2.7615,-2.7849,-2.8046,-2.8448,-2.8889,-2.9364,-2.9364,-2.9621,-2.9814,-2.947,-2.9621,-2.9918,-2.9918,-2.9918,-2.9918,-2.9918,-2.9918,-2.9918,-2.9918,-2.9918,-2.9918,-2.9902,-2.9946,-2.9632,-2.8412,-2.8054,-2.7633,-2.6421,-2.6065,-2.5835,-2.5606,-2.5415,-2.4857,-2.3654,-2.334,-2.2891,-2.1913,-2.1582,-2.1532,-2.1764,-2.092,-2.0655,-2.1354,-2.0606,-2.0533,-2.148,-2.2835,-2.3908,-2.4694,-2.6996,-2.8602,-2.9387,-3.0921,-3.2099,-3.2916,-3.2916,-3.2916,-3.2948,-3.3011,-3.306,-3.3122,-3.3334,-3.4359,-3.5872,-3.6221,-3.7274,-3.8759,-3.9305,-3.9502,-3.9532,-3.9804,-3.9889,-3.9889,-2.2702,-2.275,-2.2871,-2.328,-2.3872,-2.4292,-2.4292,-2.5034,-2.5495,-2.5189,-2.5439,-2.5564,-2.5564,-2.5564,-2.5674,-2.5893,-2.5893,-2.5893,-2.5893,-2.5893,-2.5893,-2.5893,-2.5893,-2.5893,-2.5893,-2.5514,-2.5331,-2.5331,-2.4371,-2.3653,-2.3174,-2.3587,-2.3997,-2.4339,-2.4776,-2.5394,-2.6089,-2.6155,-2.6402,-2.6779,-2.6779,-2.6779,-2.6832,-2.7152,-2.7327,-2.7565,-2.7864,-2.8336,-2.8795,-2.8795,-2.9028,-2.9227,-2.8935,-2.9028,-2.9319,-2.9515,-2.9726,-2.9918,-2.9918,-2.9918,-2.9918,-2.9918,-2.9918,-2.9918,-2.9918,-2.9946,-2.9605,-2.8394,-2.8062,-2.7588,-2.6395,-2.5971,-2.5844,-2.5881,-2.531,-2.4625,-2.3885,-2.3274,-2.2626,-2.188,-2.2029,-2.2096,-2.1814,-2.1864,-2.2013,-2.2195,-2.1982,-2.2119,-2.2745,-2.3659,-2.4733,-2.5971,-2.8013,-2.9458,-3.0261,-3.151,-3.2384,-3.2916,-3.2916,-3.2916,-3.2916,-3.2979,-3.3011,-3.3042,-3.3232,-3.4063,-3.5336,-3.5836,-3.6893,-3.8235,-3.8997,-3.9408,-3.9532,-3.9804,-3.9889,-3.9889,-2.2197,-2.2197,-2.2197,-2.2197,-2.2702,-2.3088,-2.3088,-2.4163,-2.4694,-2.4079,-2.4523,-2.4948,-2.4948,-2.4948,-2.5174,-2.5729,-2.5839,-2.5893,-2.5893,-2.5893,-2.5893,-2.5893,-2.5893,-2.5893,-2.5893,-2.5893,-2.5893,-2.5893,-2.5331,-2.4793,-2.4303,-2.4303,-2.4731,-2.5469,-2.5586,-2.594,-2.651,-2.6712,-2.6779,-2.6779,-2.6779,-2.6779,-2.6779,-2.6779,-2.7049,-2.7464,-2.7464,-2.7799,-2.8255,-2.8301,-2.8286,-2.8304,-2.8301,-2.8286,-2.84,-2.8889,-2.9425,-2.9858,-2.9858,-2.9874,-2.9918,-2.9918,-2.9918,-2.9918,-2.9918,-2.9918,-2.9708,-2.9046,-2.8396,-2.7736,-2.7038,-2.626,-2.5803,-2.5881,-2.5226,-2.4507,-2.3885,-2.3274,-2.2642,-2.1947,-2.2526,-2.2708,-2.2013,-2.3189,-2.3719,-2.3023,-2.4523,-2.5329,-2.5011,-2.4452,-2.54,-2.811,-2.9708,-3.0886,-3.1689,-3.2491,-3.2916,-3.2916,-3.2916,-3.2916,-3.2916,-3.2979,-3.3042,-3.3117,-3.3262,-3.384,-3.4751,-3.5462,-3.6461,-3.7581,-3.8618,-3.9189,-3.9532,-3.9804,-3.9889,-3.9889,-2.2185,-2.2197,-2.2197,-2.2197,-2.2702,-2.3088,-2.3088,-2.3741,-2.4208,-2.4021,-2.415,-2.4266,-2.4266,-2.4266,-2.4266,-2.4439,-2.537,-2.5893,-2.5893,-2.5893,-2.5893,-2.5893,-2.5893,-2.5893,-2.5893,-2.5893,-2.5893,-2.5893,-2.5753,-2.5598,-2.5511,-2.5511,-2.5635,-2.5952,-2.5952,-2.6183,-2.651,-2.6578,-2.6645,-2.6779,-2.6779,-2.6779,-2.6779,-2.6779,-2.6884,-2.6974,-2.6974,-2.7291,-2.779,-2.8267,-2.8388,-2.8348,-2.8435,-2.8373,-2.8336,-2.8448,-2.8889,-2.9273,-2.9273,-2.9576,-2.9918,-2.9918,-2.9918,-2.9918,-2.9918,-2.9918,-2.9708,-2.8978,-2.8702,-2.8199,-2.6974,-2.6578,-2.6308,-2.5835,-2.4748,-2.3933,-2.3819,-2.3274,-2.2841,-2.2659,-2.3288,-2.3669,-2.3503,-2.3802,-2.3934,-2.3752,-2.4148,-2.4804,-2.5781,-2.6238,-2.7023,-2.8164,-2.9708,-3.0886,-3.1689,-3.2491,-3.2916,-3.2916,-3.2916,-3.2916,-3.2916,-3.3024,-3.3086,-3.3117,-3.3304,-3.4178,-3.5498,-3.5598,-3.669,-3.837,-3.8765,-3.9163,-3.9532,-3.9804,-3.9889,-3.9889,-2.1999,-2.2061,-2.2061,-2.2185,-2.2469,-2.2702,-2.2702,-2.3207,-2.3505,-2.322,-2.3446,-2.361,-2.361,-2.361,-2.3787,-2.4394,-2.509,-2.5508,-2.5508,-2.5729,-2.5893,-2.5893,-2.5893,-2.5893,-2.5893,-2.5893,-2.5893,-2.5893,-2.5893,-2.5893,-2.5893,-2.5893,-2.5948,-2.6002,-2.6056,-2.6165,-2.6312,-2.6457,-2.6751,-2.7108,-2.7161,-2.7389,-2.765,-2.765,-2.765,-2.765,-2.765,-2.7837,-2.808,-2.8449,-2.853,-2.8502,-2.8557,-2.853,-2.8419,-2.812,-2.855,-2.9074,-2.9074,-2.947,-2.9918,-2.9918,-2.9918,-2.9918,-2.9918,-2.9918,-2.9805,-2.9416,-2.9016,-2.845,-2.7365,-2.6911,-2.6383,-2.5407,-2.4612,-2.4011,-2.3769,-2.3457,-2.3259,-2.3259,-2.3935,-2.4282,-2.3935,-2.4563,-2.4878,-2.453,-2.4829,-2.5547,-2.6819,-2.7474,-2.8233,-2.9216,-3.0422,-3.1421,-3.2224,-3.267,-3.2916,-3.2916,-3.2916,-3.2916,-3.2916,-3.3011,-3.3073,-3.3073,-3.3196,-3.3761,-3.4627,-3.5267,-3.63,-3.7539,-3.8394,-3.9045,-3.9526,-3.9647,-3.9781,-3.9889,-2.1862,-2.1874,-2.1937,-2.2061,-2.2123,-2.2123,-2.2123,-2.2641,-2.275,-2.2247,-2.2641,-2.298,-2.298,-2.3055,-2.3488,-2.4492,-2.4845,-2.5043,-2.5118,-2.5619,-2.5893,-2.5893,-2.5893,-2.5893,-2.5893,-2.5893,-2.5893,-2.5893,-2.5893,-2.5893,-2.5893,-2.5893,-2.5893,-2.5893,-2.6002,-2.6113,-2.6252,-2.6508,-2.6975,-2.7648,-2.7758,-2.8146,-2.8681,-2.8624,-2.8681,-2.8681,-2.8681,-2.8681,-2.8695,-2.8797,-2.8768,-2.8695,-2.8797,-2.8753,-2.8579,-2.8028,-2.8469,-2.9093,-2.8889,-2.9319,-2.977,-2.977,-2.977,-2.977,-2.977,-2.9726,-2.9665,-2.977,-2.927,-2.8624,-2.7996,-2.7316,-2.6416,-2.5065,-2.4688,-2.4398,-2.3767,-2.38,-2.3866,-2.3866,-2.4574,-2.484,-2.4181,-2.5388,-2.6005,-2.5475,-2.6021,-2.6847,-2.7995,-2.8493,-2.9333,-3.0642,-3.1332,-3.2081,-3.2898,-3.2916,-3.2916,-3.2916,-3.2916,-3.2916,-3.2916,-3.2979,-3.2979,-3.3011,-3.3055,-3.3158,-3.3391,-3.4882,-3.5802,-3.6446,-3.7967,-3.8933,-3.9532,-3.9551,-3.9693,-3.9889,-2.1686,-2.1761,-2.1761,-2.1761,-2.1874,-2.1937,-2.1937,-2.2173,-2.2309,-2.2197,-2.2309,-2.2359,-2.2359,-2.2771,-2.2919,-2.2641,-2.3952,-2.5087,-2.5702,-2.5839,-2.5893,-2.5893,-2.5893,-2.5893,-2.5893,-2.5893,-2.5893,-2.5893,-2.5893,-2.5893,-2.5893,-2.5893,-2.5893,-2.5893,-2.5893,-2.6299,-2.6834,-2.689,-2.7357,-2.8111,-2.8111,-2.824,-2.844,-2.8326,-2.844,-2.8681,-2.8497,-2.8553,-2.8768,-2.9305,-2.9116,-2.8768,-2.9305,-2.9116,-2.8652,-2.8565,-2.8902,-2.9132,-2.8052,-2.8496,-2.9227,-2.9227,-2.9227,-2.9227,-2.9227,-2.8873,-2.8685,-2.912,-2.9132,-2.8997,-2.8699,-2.8045,-2.7113,-2.5766,-2.4997,-2.4398,-2.3767,-2.4243,-2.4636,-2.4636,-2.533,-2.5796,-2.5681,-2.5983,-2.6419,-2.6936,-2.7048,-2.7743,-2.9145,-2.9903,-3.066,-3.151,-3.1617,-3.2081,-3.2898,-3.2916,-3.2916,-3.2916,-3.2916,-3.2916,-3.2916,-3.2979,-3.2979,-3.3011,-3.3055,-3.3481,-3.4163,-3.505,-3.6141,-3.7393,-3.8372,-3.9136,-3.9693,-3.9804,-3.9867,-3.9889,-2.1537,-2.1549,-2.1624,-2.1698,-2.1686,-2.1686,-2.1749,-2.1886,-2.1949,-2.1999,-2.23,-2.248,-2.2618,-2.3087,-2.3434,-2.355,-2.4306,-2.5003,-2.5692,-2.5841,-2.6048,-2.6371,-2.6385,-2.6554,-2.6905,-2.6905,-2.6905,-2.6905,-2.6905,-2.6905,-2.6905,-2.6905,-2.6905,-2.6905,-2.6905,-2.7116,-2.7455,-2.7513,-2.791,-2.858,-2.8639,-2.8911,-2.9299,-2.924,-2.9299,-2.9477,-2.9462,-2.9448,-2.9623,-3.0031,-2.9943,-2.9755,-3.0045,-2.9943,-2.9639,-2.929,-2.9057,-2.8831,-2.8525,-2.8596,-2.8685,-2.8685,-2.8685,-2.8685,-2.8685,-2.8496,-2.8448,-2.8982,-2.9074,-2.9051,-2.8834,-2.8207,-2.7365,-2.6422,-2.5605,-2.5021,-2.4769,-2.5013,-2.5224,-2.5224,-2.5648,-2.6102,-2.6512,-2.671,-2.7081,-2.7848,-2.7914,-2.8365,-2.9391,-3.0172,-3.0942,-3.1671,-3.2122,-3.2509,-3.2916,-3.2916,-3.2916,-3.2916,-3.2916,-3.2916,-3.2916,-3.2916,-3.2948,-3.2948,-3.2979,-3.3208,-3.3619,-3.4378,-3.5361,-3.6472,-3.7424,-3.8393,-3.9294,-3.9483,-3.9712,-3.9889,-2.1336,-2.1411,-2.1486,-2.1572,-2.1486,-2.1486,-2.1624,-2.1686,-2.1859,-2.204,-2.246,-2.2886,-2.3159,-2.3628,-2.4093,-2.4471,-2.4701,-2.5037,-2.5382,-2.5638,-2.6061,-2.6516,-2.6674,-2.7083,-2.7762,-2.7776,-2.7776,-2.7776,-2.7776,-2.7776,-2.7776,-2.7776,-2.7776,-2.7776,-2.7776,-2.786,-2.7987,-2.8104,-2.8502,-2.9054,-2.9174,-2.9533,-3.0036,-2.9988,-3.005,-3.0111,-3.0219,-3.0266,-3.0312,-3.0507,-3.0568,-3.0568,-3.0568,-3.0568,-3.048,-2.9987,-2.9312,-2.8777,-2.8882,-2.8652,-2.8308,-2.814,-2.8094,-2.8094,-2.8094,-2.8012,-2.811,-2.8779,-2.8826,-2.8762,-2.8854,-2.8164,-2.7368,-2.6615,-2.6188,-2.5818,-2.5627,-2.5891,-2.6102,-2.6102,-2.6254,-2.658,-2.7175,-2.7415,-2.7827,-2.8572,-2.8622,-2.8959,-2.9736,-3.0394,-3.1074,-3.1823,-3.2521,-3.2916,-3.2916,-3.2916,-3.2916,-3.2916,-3.2916,-3.2916,-3.2916,-3.2916,-3.2916,-3.2916,-3.2916,-3.2916,-3.2969,-3.3776,-3.4521,-3.5313,-3.6526,-3.7674,-3.8711,-3.9178,-3.9551,-3.9804,-2.1221,-2.1233,-2.1221,-2.1233,-2.1336,-2.1388,-2.1388,-2.1663,-2.204,-2.2591,-2.2827,-2.3171,-2.3664,-2.4157,-2.4278,-2.3875,-2.4863,-2.5256,-2.4808,-2.5292,-2.5628,-2.5667,-2.6323,-2.7042,-2.7776,-2.7776,-2.7776,-2.7776,-2.7776,-2.7776,-2.7776,-2.7776,-2.7776,-2.7776,-2.7776,-2.8099,-2.8619,-2.8619,-2.8984,-2.9532,-2.9532,-2.967,-2.9822,-2.9651,-2.9803,-3.0111,-3.0111,-3.0219,-3.0312,-3.0507,-3.0568,-3.0568,-3.0568,-3.0568,-3.0568,-3.051,-3.0075,-2.9275,-2.8152,-2.8148,-2.8323,-2.7715,-2.7565,-2.7565,-2.7565,-2.7203,-2.7167,-2.8158,-2.7947,-2.7947,-2.8919,-2.8092,-2.6962,-2.6115,-2.6409,-2.6513,-2.5718,-2.6733,-2.7559,-2.7559,-2.7656,-2.7809,-2.7928,-2.804,-2.8471,-2.9284,-2.9334,-2.9809,-3.0926,-3.1038,-3.1439,-3.2249,-3.2672,-3.2916,-3.2916,-3.2916,-3.2916,-3.2916,-3.2916,-3.2916,-3.2916,-3.2916,-3.2916,-3.2916,-3.2916,-3.2916,-3.2969,-3.3776,-3.4297,-3.4762,-3.6632,-3.7569,-3.8015,-3.9076,-3.9483,-3.9551,-2.1221,-2.1221,-2.1221,-2.1221,-2.1221,-2.1273,-2.1273,-2.1348,-2.1619,-2.202,-2.2455,-2.2989,-2.3713,-2.4218,-2.4566,-2.4711,-2.5111,-2.5274,-2.5066,-2.5302,-2.5864,-2.6814,-2.7463,-2.8181,-2.8914,-2.8914,-2.8914,-2.8914,-2.8914,-2.8914,-2.8914,-2.8914,-2.8914,-2.8914,-2.8914,-2.904,-2.9265,-2.9265,-2.9392,-2.9602,-2.9602,-2.9665,-2.9651,-2.9602,-2.9665,-2.9803,-3.005,-3.0021,-3.0007,-3.0312,-3.0387,-3.0387,-3.0387,-3.0507,-3.0568,-3.0568,-3.0408,-3.0016,-2.9145,-2.8429,-2.7817,-2.7225,-2.7063,-2.7063,-2.7063,-2.6922,-2.6974,-2.7665,-2.765,-2.7715,-2.8496,-2.8124,-2.7731,-2.786,-2.7615,-2.7451,-2.7551,-2.7656,-2.7705,-2.7705,-2.7818,-2.8078,-2.8559,-2.8715,-2.9132,-2.998,-3.003,-3.0228,-3.0683,-3.0965,-3.1338,-3.1913,-3.2091,-3.2403,-3.2884,-3.2916,-3.2916,-3.2916,-3.2916,-3.2916,-3.2916,-3.2916,-3.2916,-3.2916,-3.2916,-3.2916,-3.2934,-3.3223,-3.3698,-3.4329,-3.5387,-3.6505,-3.7654,-3.835,-3.9021,-3.9526,-2.1221,-2.1221,-2.1221,-2.1221,-2.1221,-2.1221,-2.1221,-2.1221,-2.1475,-2.2005,-2.2486,-2.3089,-2.4114,-2.4498,-2.4845,-2.5276,-2.5312,-2.5312,-2.5312,-2.5312,-2.5896,-2.7169,-2.7643,-2.8195,-2.8944,-2.8944,-2.8944,-2.8944,-2.8944,-2.9071,-2.9261,-2.9261,-2.9401,-2.9602,-2.9602,-2.9602,-2.9602,-2.9602,-2.9602,-2.9602,-2.9602,-2.9602,-2.9602,-2.9602,-2.9602,-2.9665,-2.9913,-2.9898,-2.9808,-3.0144,-3.0266,-3.0266,-3.0266,-3.0326,-3.0507,-3.0568,-3.0568,-3.0437,-2.9798,-2.884,-2.7868,-2.7244,-2.6924,-2.6779,-2.6779,-2.6779,-2.6922,-2.7429,-2.7378,-2.7429,-2.7947,-2.7966,-2.7969,-2.8419,-2.8319,-2.8281,-2.8757,-2.8547,-2.8385,-2.8385,-2.8484,-2.8737,-2.9267,-2.9384,-2.9648,-3.0284,-3.0375,-3.0443,-3.0485,-3.074,-3.1083,-3.149,-3.149,-3.1896,-3.2705,-3.2705,-3.2787,-3.2916,-3.2916,-3.2916,-3.2916,-3.2916,-3.2916,-3.2916,-3.2916,-3.2916,-3.2916,-3.2916,-3.3223,-3.3773,-3.4461,-3.5593,-3.69,-3.7581,-3.8385,-3.9181,-2.1221,-2.1221,-2.1221,-2.1221,-2.1221,-2.1221,-2.1221,-2.1336,-2.176,-2.2817,-2.308,-2.3659,-2.4921,-2.5111,-2.5182,-2.5312,-2.5312,-2.5312,-2.5312,-2.5312,-2.5652,-2.6346,-2.6414,-2.6756,-2.7471,-2.7484,-2.7484,-2.7484,-2.7484,-2.7868,-2.8492,-2.8492,-2.8903,-2.9602,-2.9602,-2.9602,-2.9602,-2.9602,-2.9602,-2.9602,-2.9602,-2.9602,-2.9602,-2.9602,-2.9602,-2.9602,-2.9761,-2.9808,-2.9822,-3.0036,-3.0111,-3.0111,-3.0111,-3.0219,-3.0326,-3.0507,-3.0568,-3.0437,-2.9798,-2.9174,-2.8536,-2.7897,-2.7258,-2.6779,-2.6779,-2.6779,-2.6922,-2.7429,-2.71,-2.6922,-2.7429,-2.7515,-2.744,-2.7255,-2.8295,-2.9035,-2.8844,-2.9464,-2.9918,-2.9918,-2.9918,-2.9902,-2.9973,-3.0017,-3.0076,-3.0189,-3.0316,-3.0443,-3.0485,-3.0526,-3.0658,-3.1083,-3.1083,-3.149,-3.2283,-3.2283,-3.2488,-3.2916,-3.2916,-3.2916,-3.2916,-3.2916,-3.2916,-3.2916,-3.2916,-3.2916,-3.2916,-3.2916,-3.2916,-3.2987,-3.4078,-3.4948,-3.5738,-3.6807,-3.7703,-3.8446,-2.1221,-2.1221,-2.1221,-2.1221,-2.1221,-2.1221,-2.1221,-2.1221,-2.1527,-2.2341,-2.2488,-2.294,-2.4166,-2.4354,-2.4566,-2.5075,-2.5182,-2.5182,-2.5312,-2.5312,-2.5382,-2.5581,-2.6139,-2.6756,-2.7471,-2.7484,-2.7484,-2.7484,-2.7484,-2.7868,-2.8492,-2.8492,-2.8903,-2.9602,-2.9602,-2.9602,-2.9602,-2.9602,-2.9602,-2.9602,-2.9602,-2.9602,-2.9602,-2.9602,-2.9602,-2.9602,-2.9761,-2.9761,-2.9651,-2.9837,-2.9884,-2.9946,-3.0144,-3.0266,-3.0326,-3.0507,-3.0568,-3.0539,-3.0335,-2.9827,-2.9087,-2.7943,-2.7258,-2.6779,-2.6779,-2.6779,-2.6832,-2.6959,-2.687,-2.6832,-2.6959,-2.758,-2.8033,-2.7979,-2.8932,-2.9645,-2.9567,-2.9772,-2.9918,-2.9918,-2.9918,-2.9902,-2.9946,-2.9946,-2.9989,-3.0189,-3.0359,-3.0485,-3.0526,-3.0526,-3.0551,-3.0675,-3.0658,-3.0925,-3.1452,-3.202,-3.2488,-3.2916,-3.2916,-3.2916,-3.2916,-3.2916,-3.2916,-3.2916,-3.2916,-3.2916,-3.2916,-3.2916,-3.2916,-3.2934,-3.3417,-3.4411,-3.5652,-3.6188,-3.7215,-3.8446,-2.1221,-2.1221,-2.1221,-2.1221,-2.1221,-2.1227,-2.1433,-2.1468,-2.1786,-2.2578,-2.2671,-2.3039,-2.4061,-2.4225,-2.4425,-2.4957,-2.5052,-2.5182,-2.5312,-2.5312,-2.5312,-2.5312,-2.5721,-2.6195,-2.6595,-2.6595,-2.6595,-2.6595,-2.6595,-2.6989,-2.7657,-2.7986,-2.8454,-2.9198,-2.9477,-2.9602,-2.9602,-2.9602,-2.9602,-2.9602,-2.9602,-2.9602,-2.9602,-2.9602,-2.9602,-2.9602,-2.9713,-2.9651,-2.9602,-2.9713,-2.9699,-2.9775,-3.0007,-3.0144,-3.028,-3.0447,-3.0507,-3.0568,-3.0568,-3.0044,-2.9378,-2.861,-2.781,-2.7084,-2.6837,-2.6779,-2.6779,-2.6779,-2.6779,-2.6779,-2.6779,-2.7444,-2.8046,-2.824,-2.9028,-2.9665,-2.9874,-2.9918,-2.9918,-2.9918,-2.9918,-2.9918,-2.9918,-2.9918,-2.9946,-3.0103,-3.0231,-3.0359,-3.0443,-3.0443,-3.0485,-3.0526,-3.0526,-3.0699,-3.1083,-3.175,-3.2266,-3.2672,-3.2802,-3.2916,-3.2916,-3.2916,-3.2916,-3.2916,-3.2916,-3.2916,-3.2916,-3.2916,-3.2916,-3.2916,-3.3024,-3.3858,-3.5058,-3.5525,-3.6512,-3.7685,-2.1227,-2.1227,-2.1314,-2.136,-2.136,-2.1456,-2.1927,-2.1996,-2.234,-2.3246,-2.3372,-2.3638,-2.436,-2.449,-2.4574,-2.479,-2.4992,-2.5182,-2.5312,-2.5312,-2.5312,-2.5312,-2.5312,-2.5312,-2.5312,-2.5312,-2.5312,-2.5312,-2.5312,-2.5652,-2.6414,-2.7082,-2.7723,-2.8441,-2.9135,-2.9401,-2.9401,-2.9401,-2.9477,-2.9477,-2.9477,-2.954,-2.9602,-2.9602,-2.9602,-2.9602,-2.9602,-2.9602,-2.9602,-2.9602,-2.9602,-2.9602,-2.9761,-2.9898,-3.0111,-3.0266,-3.0387,-3.0582,-3.0582,-3.0028,-2.9448,-2.9522,-2.8697,-2.7668,-2.7026,-2.6823,-2.6779,-2.6779,-2.6779,-2.6832,-2.6832,-2.724,-2.77,-2.8192,-2.8732,-2.9273,-2.9726,-2.9814,-2.9814,-2.9814,-2.9874,-2.9918,-2.9918,-2.9918,-2.9946,-2.9973,-3.0017,-3.0103,-3.0375,-3.0375,-3.0401,-3.0485,-3.0468,-3.0675,-3.1044,-3.149,-3.1913,-3.2318,-3.2705,-3.2916,-3.2916,-3.2916,-3.2916,-3.2916,-3.2916,-3.2916,-3.2916,-3.2916,-3.2916,-3.2916,-3.2916,-3.3384,-3.4187,-3.4865,-3.5614,-3.6399,-2.1686,-2.1766,-2.1893,-2.2283,-2.2352,-2.2386,-2.2501,-2.2513,-2.2742,-2.3292,-2.3372,-2.3638,-2.4215,-2.4273,-2.4418,-2.479,-2.5052,-2.5241,-2.5312,-2.5312,-2.5312,-2.5312,-2.5312,-2.5312,-2.5312,-2.5312,-2.5312,-2.5312,-2.5312,-2.5652,-2.6414,-2.6552,-2.7015,-2.7736,-2.7881,-2.7947,-2.7947,-2.7947,-2.826,-2.8762,-2.8762,-2.9044,-2.9602,-2.9602,-2.9602,-2.9602,-2.9602,-2.9602,-2.9602,-2.9602,-2.9602,-2.9602,-2.9761,-2.9822,-2.9884,-3.0097,-3.0158,-3.0233,-3.0233,-3.0072,-2.9843,-2.9328,-2.8999,-2.8555,-2.7726,-2.7142,-2.6779,-2.6779,-2.6779,-2.6922,-2.7291,-2.7765,-2.8143,-2.8288,-2.8732,-2.8982,-2.8685,-2.9028,-2.9273,-2.9273,-2.9621,-2.9918,-2.9918,-2.9946,-2.9973,-3.0017,-3.0103,-3.0189,-3.0231,-3.0231,-3.0231,-3.0274,-3.0359,-3.0443,-3.0568,-3.1317,-3.1913,-3.2318,-3.2705,-3.2916,-3.2916,-3.2916,-3.2916,-3.2916,-3.2916,-3.2916,-3.2916,-3.2916,-3.2916,-3.2916,-3.2916,-3.3384,-3.4133,-3.4294,-3.4811,-3.5489,-2.1451,-2.1911,-2.2375,-2.2639,-2.2685,-2.2765,-2.3006,-2.3041,-2.3224,-2.3741,-2.3798,-2.3902,-2.4166,-2.42,-2.4345,-2.4646,-2.4921,-2.5123,-2.5182,-2.5241,-2.5312,-2.5312,-2.5312,-2.5312,-2.5312,-2.5312,-2.5312,-2.5312,-2.5312,-2.5523,-2.5861,-2.6208,-2.662,-2.7015,-2.7338,-2.7484,-2.7484,-2.7484,-2.767,-2.8051,-2.8363,-2.8698,-2.9121,-2.9477,-2.9602,-2.9602,-2.9602,-2.9602,-2.9602,-2.9602,-2.9602,-2.9602,-2.9651,-2.9761,-2.9822,-2.9898,-3.0036,-3.0111,-3.0111,-3.0036,-2.9889,-2.9622,-2.9323,-2.8767,-2.7792,-2.7353,-2.7089,-2.6852,-2.6779,-2.687,-2.71,-2.7393,-2.768,-2.7864,-2.8143,-2.8336,-2.8288,-2.8779,-2.9074,-2.9074,-2.9576,-2.9918,-2.9918,-2.9946,-2.9946,-2.9946,-3.0033,-3.0076,-3.0103,-3.0103,-3.0146,-3.0189,-3.029,-3.0316,-3.0316,-3.1004,-3.1452,-3.1694,-3.2521,-3.2916,-3.2916,-3.2916,-3.2916,-3.2916,-3.2916,-3.2916,-3.2916,-3.2916,-3.2916,-3.2916,-3.2916,-3.3152,-3.3562,-3.3972,-3.4579,-3.5204,-2.0915,-2.1811,-2.2616,-2.2707,-2.2868,-2.3087,-2.3511,-2.3569,-2.3718,-2.4143,-2.42,-2.42,-2.42,-2.42,-2.4345,-2.4502,-2.4646,-2.4861,-2.5052,-2.5182,-2.5241,-2.5241,-2.5312,-2.5312,-2.5312,-2.5312,-2.5312,-2.5312,-2.5312,-2.5312,-2.5312,-2.5931,-2.6208,-2.6208,-2.6867,-2.7136,-2.7136,-2.7136,-2.7217,-2.7338,-2.792,-2.8233,-2.8376,-2.9008,-2.9338,-2.9401,-2.9275,-2.9338,-2.9401,-2.954,-2.9602,-2.9602,-2.9602,-2.9651,-2.9761,-2.9761,-2.9898,-2.9988,-2.9988,-2.9898,-2.9822,-2.9974,-2.9529,-2.8788,-2.7925,-2.7607,-2.7386,-2.691,-2.6779,-2.6832,-2.6922,-2.6922,-2.7063,-2.7414,-2.7515,-2.7615,-2.8012,-2.8591,-2.8982,-2.8982,-2.9515,-2.9918,-2.9918,-2.9918,-2.9918,-2.9918,-2.9918,-2.9902,-2.9973,-2.9973,-3.0017,-3.0162,-3.0146,-3.0189,-3.0189,-3.0699,-3.0965,-3.1004,-3.2144,-3.2654,-3.2705,-3.277,-3.282,-3.2802,-3.2884,-3.2916,-3.2916,-3.2916,-3.2916,-3.2916,-3.2916,-3.2916,-3.2987,-3.3651,-3.4276,-3.4811,-2.0425,-2.1446,-2.2435,-2.2875,-2.3537,-2.4016,-2.4085,-2.4097,-2.412,-2.4189,-2.42,-2.42,-2.42,-2.4345,-2.449,-2.449,-2.4646,-2.479,-2.4861,-2.5052,-2.5111,-2.5111,-2.5241,-2.5312,-2.5312,-2.5312,-2.5312,-2.5312,-2.5312,-2.5312,-2.5312,-2.5382,-2.5453,-2.5441,-2.5581,-2.5581,-2.5581,-2.5581,-2.6,-2.6552,-2.6688,-2.7082,-2.767,-2.7749,-2.8117,-2.857,-2.7999,-2.813,-2.8776,-2.9401,-2.9602,-2.9602,-2.9602,-2.9602,-2.9602,-2.9602,-2.9665,-2.9665,-2.9665,-2.9665,-2.9602,-2.9665,-2.9608,-2.9369,-2.8845,-2.8068,-2.7386,-2.691,-2.6779,-2.6922,-2.7327,-2.7429,-2.7429,-2.7515,-2.7515,-2.7378,-2.7063,-2.783,-2.8384,-2.8384,-2.9273,-2.9918,-2.9918,-2.9918,-2.9918,-2.9918,-2.9918,-2.9902,-2.9902,-2.9902,-2.9902,-2.9946,-2.9989,-3.006,-3.0189,-3.0617,-3.0885,-3.1021,-3.1493,-3.1752,-3.186,-3.2231,-3.2386,-3.2386,-3.2737,-3.2916,-3.2916,-3.2916,-3.2916,-3.2916,-3.2916,-3.2916,-3.2902,-3.3009,-3.3116,-3.3205,-2.0038,-2.1292,-2.2484,-2.2914,-2.3677,-2.42,-2.42,-2.42,-2.42,-2.42,-2.42,-2.42,-2.42,-2.4273,-2.4345,-2.4345,-2.4502,-2.4646,-2.4646,-2.4849,-2.4921,-2.4921,-2.4992,-2.5052,-2.5052,-2.5052,-2.5052,-2.5182,-2.5241,-2.5312,-2.5312,-2.5312,-2.5312,-2.5312,-2.5312,-2.5312,-2.5312,-2.5312,-2.5523,-2.5791,-2.6208,-2.662,-2.6947,-2.7338,-2.767,-2.792,-2.8051,-2.8247,-2.8634,-2.9324,-2.9602,-2.9602,-2.9602,-2.9602,-2.9602,-2.9602,-2.9602,-2.9602,-2.9602,-2.9602,-2.9602,-2.9602,-2.9602,-2.9448,-2.9025,-2.8564,-2.8054,-2.7342,-2.7194,-2.7186,-2.7122,-2.71,-2.71,-2.71,-2.71,-2.7063,-2.6832,-2.7393,-2.7947,-2.824,-2.8732,-2.912,-2.9425,-2.947,-2.9576,-2.9874,-2.9918,-2.9918,-2.9918,-2.9918,-2.9918,-2.9918,-2.9946,-2.9989,-3.0033,-3.0258,-3.0368,-3.0452,-3.0666,-3.105,-3.1605,-3.2074,-3.2283,-3.2318,-3.2737,-3.2916,-3.2916,-3.2916,-3.2916,-3.2916,-3.2916,-3.2916,-3.2916,-3.2916,-3.2916,-3.2916]}]]